<?xml version='1.0' encoding='UTF-8'?><gpx version="1.1" creator="JPX - https://github.com/jenetics/jpx" xmlns="http://www.topografix.com/GPX/1/1"><trk><trkseg><trkpt lat="45.05531638552381" lon="9.608276025524429"><ele>60.99999999999999</ele><time>2026-04-24T07:25:00Z</time></trkpt><trkpt lat="45.05530543645313" lon="9.608157534699387"><ele>61.0</ele><time>2026-04-24T07:25:03Z</time></trkpt><trkpt lat="45.05529110411003" lon="9.608046419026245"><ele>61.0</ele><time>2026-04-24T07:25:06Z</time></trkpt><trkpt lat="45.05528261880227" lon="9.607929624664793"><ele>61.0</ele><time>2026-04-24T07:25:09Z</time></trkpt><trkpt lat="45.05522200386871" lon="9.60784515779703"><ele>60.99999999999999</ele><time>2026-04-24T07:25:11Z</time></trkpt><trkpt lat="45.055138712204254" lon="9.607848010802883"><ele>61.0</ele><time>2026-04-24T07:25:13Z</time></trkpt><trkpt lat="45.05503404473978" lon="9.607853959455584"><ele>61.0</ele><time>2026-04-24T07:25:15Z</time></trkpt><trkpt lat="45.05493780957626" lon="9.607868398223754"><ele>60.99999999999999</ele><time>2026-04-24T07:25:17Z</time></trkpt><trkpt lat="45.05483813626707" lon="9.607881630731551"><ele>60.99999999999999</ele><time>2026-04-24T07:25:19Z</time></trkpt><trkpt lat="45.054759665525886" lon="9.607866793769466"><ele>61.0</ele><time>2026-04-24T07:25:21Z</time></trkpt><trkpt lat="45.05467546839225" lon="9.607825025070248"><ele>61.0</ele><time>2026-04-24T07:25:23Z</time></trkpt><trkpt lat="45.05458591032154" lon="9.607799434607962"><ele>61.199999999999996</ele><time>2026-04-24T07:25:25Z</time></trkpt><trkpt lat="45.05450133932282" lon="9.607771264473065"><ele>61.39999999999999</ele><time>2026-04-24T07:25:27Z</time></trkpt><trkpt lat="45.05440753710678" lon="9.607767059930255"><ele>61.6</ele><time>2026-04-24T07:25:29Z</time></trkpt><trkpt lat="45.05431648542961" lon="9.607771065541057"><ele>61.8</ele><time>2026-04-24T07:25:31Z</time></trkpt><trkpt lat="45.05422773992011" lon="9.607748468602795"><ele>62.0</ele><time>2026-04-24T07:25:33Z</time></trkpt><trkpt lat="45.05413152798991" lon="9.607724333485852"><ele>61.833333333333336</ele><time>2026-04-24T07:25:35Z</time></trkpt><trkpt lat="45.05404966190101" lon="9.607716682003364"><ele>61.66666666666667</ele><time>2026-04-24T07:25:37Z</time></trkpt><trkpt lat="45.053961586067494" lon="9.607703651089672"><ele>61.5</ele><time>2026-04-24T07:25:39Z</time></trkpt><trkpt lat="45.05387519377111" lon="9.607699981053221"><ele>61.33333333333333</ele><time>2026-04-24T07:25:41Z</time></trkpt><trkpt lat="45.05380062608624" lon="9.607676841537089"><ele>61.166666666666664</ele><time>2026-04-24T07:25:43Z</time></trkpt><trkpt lat="45.0537551932454" lon="9.607611332195129"><ele>61.0</ele><time>2026-04-24T07:25:45Z</time></trkpt><trkpt lat="45.053792143815926" lon="9.60752311005318"><ele>61.0</ele><time>2026-04-24T07:25:46Z</time></trkpt><trkpt lat="45.05380292369063" lon="9.607386400636594"><ele>60.99999999999999</ele><time>2026-04-24T07:25:48Z</time></trkpt><trkpt lat="45.05381353458366" lon="9.607251834486327"><ele>60.99999999999999</ele><time>2026-04-24T07:25:50Z</time></trkpt><trkpt lat="45.053824509119075" lon="9.607112656339494"><ele>61.0</ele><time>2026-04-24T07:25:52Z</time></trkpt><trkpt lat="45.05383422850471" lon="9.606989396243234"><ele>61.0</ele><time>2026-04-24T07:25:54Z</time></trkpt><trkpt lat="45.053842455768084" lon="9.606885058813775"><ele>60.99999999999999</ele><time>2026-04-24T07:25:56Z</time></trkpt><trkpt lat="45.053850823979936" lon="9.606778936457337"><ele>61.0</ele><time>2026-04-24T07:25:58Z</time></trkpt><trkpt lat="45.05385942515805" lon="9.606669862633316"><ele>61.0</ele><time>2026-04-24T07:26:00Z</time></trkpt><trkpt lat="45.05386918278684" lon="9.606551021031992"><ele>61.0</ele><time>2026-04-24T07:26:02Z</time></trkpt><trkpt lat="45.05383851153427" lon="9.606443573012603"><ele>60.99999999999999</ele><time>2026-04-24T07:26:04Z</time></trkpt><trkpt lat="45.05384572185706" lon="9.606346233072959"><ele>61.0</ele><time>2026-04-24T07:26:05.999Z</time></trkpt><trkpt lat="45.053856379407286" lon="9.606242811215632"><ele>60.99999999999999</ele><time>2026-04-24T07:26:07.999Z</time></trkpt><trkpt lat="45.053853427894815" lon="9.60613636319445"><ele>61.0</ele><time>2026-04-24T07:26:09.999Z</time></trkpt><trkpt lat="45.05383364808415" lon="9.606033457094862"><ele>61.0</ele><time>2026-04-24T07:26:11.999Z</time></trkpt><trkpt lat="45.053830425240804" lon="9.605921768865638"><ele>61.0</ele><time>2026-04-24T07:26:13.999Z</time></trkpt><trkpt lat="45.05383680694204" lon="9.605802029739515"><ele>60.99999999999999</ele><time>2026-04-24T07:26:15.999Z</time></trkpt><trkpt lat="45.053852138852776" lon="9.605706253619982"><ele>61.0</ele><time>2026-04-24T07:26:17.999Z</time></trkpt><trkpt lat="45.053861794716866" lon="9.605600910043233"><ele>60.99999999999999</ele><time>2026-04-24T07:26:19.999Z</time></trkpt><trkpt lat="45.053887998862955" lon="9.6055144657273"><ele>61.0</ele><time>2026-04-24T07:26:21.999Z</time></trkpt><trkpt lat="45.053919836066584" lon="9.605410667989828"><ele>61.0</ele><time>2026-04-24T07:26:23.999Z</time></trkpt><trkpt lat="45.05394918867709" lon="9.60530926544451"><ele>61.0</ele><time>2026-04-24T07:26:25.999Z</time></trkpt><trkpt lat="45.05397408607095" lon="9.605203696012637"><ele>60.99999999999999</ele><time>2026-04-24T07:26:27.999Z</time></trkpt><trkpt lat="45.05399272322408" lon="9.605078195652672"><ele>61.0</ele><time>2026-04-24T07:26:29.999Z</time></trkpt><trkpt lat="45.05400711650206" lon="9.604967853509816"><ele>61.166666666666664</ele><time>2026-04-24T07:26:31.999Z</time></trkpt><trkpt lat="45.054013550009294" lon="9.604858453048998"><ele>61.33333333333333</ele><time>2026-04-24T07:26:33.999Z</time></trkpt><trkpt lat="45.054022451982846" lon="9.60473792007179"><ele>61.5</ele><time>2026-04-24T07:26:35.999Z</time></trkpt><trkpt lat="45.054081823451696" lon="9.6046997360077"><ele>61.66666666666667</ele><time>2026-04-24T07:26:37.999Z</time></trkpt><trkpt lat="45.054150960969174" lon="9.604625428112476"><ele>61.833333333333336</ele><time>2026-04-24T07:26:40Z</time></trkpt><trkpt lat="45.054160224219615" lon="9.604526189564066"><ele>62.0</ele><time>2026-04-24T07:26:42Z</time></trkpt><trkpt lat="45.05416977319302" lon="9.604389946978541"><ele>61.333333333333336</ele><time>2026-04-24T07:26:44Z</time></trkpt><trkpt lat="45.054169399734555" lon="9.604267884997036"><ele>60.66666666666667</ele><time>2026-04-24T07:26:46Z</time></trkpt><trkpt lat="45.05417557824781" lon="9.604157634886581"><ele>60.0</ele><time>2026-04-24T07:26:48Z</time></trkpt><trkpt lat="45.05418787663123" lon="9.604040381623221"><ele>59.33333333333333</ele><time>2026-04-24T07:26:50Z</time></trkpt><trkpt lat="45.05420266284137" lon="9.60392561923877"><ele>58.666666666666664</ele><time>2026-04-24T07:26:52Z</time></trkpt><trkpt lat="45.0542056076556" lon="9.603824620711409"><ele>58.0</ele><time>2026-04-24T07:26:54Z</time></trkpt><trkpt lat="45.05421504945332" lon="9.603702425426869"><ele>57.99999999999999</ele><time>2026-04-24T07:26:57Z</time></trkpt><trkpt lat="45.0542331881058" lon="9.603579392671758"><ele>58.0</ele><time>2026-04-24T07:26:59Z</time></trkpt><trkpt lat="45.05424081787801" lon="9.603465857580181"><ele>58.0</ele><time>2026-04-24T07:27:01Z</time></trkpt><trkpt lat="45.05423735725716" lon="9.60335921562336"><ele>58.0</ele><time>2026-04-24T07:27:03Z</time></trkpt><trkpt lat="45.054240227186234" lon="9.603255002682989"><ele>57.99999999999999</ele><time>2026-04-24T07:27:05Z</time></trkpt><trkpt lat="45.05419168849669" lon="9.603172830995144"><ele>58.0</ele><time>2026-04-24T07:27:07Z</time></trkpt><trkpt lat="45.05410927273081" lon="9.603173309562061"><ele>57.99999999999999</ele><time>2026-04-24T07:27:09Z</time></trkpt><trkpt lat="45.0540872881989" lon="9.603083895372148"><ele>58.0</ele><time>2026-04-24T07:27:11Z</time></trkpt><trkpt lat="45.05410679827883" lon="9.602998209285577"><ele>58.0</ele><time>2026-04-24T07:27:14Z</time></trkpt><trkpt lat="45.05406245761048" lon="9.602903195548695"><ele>58.0</ele><time>2026-04-24T07:27:17Z</time></trkpt><trkpt lat="45.053991727249844" lon="9.602906804949779"><ele>57.99999999999999</ele><time>2026-04-24T07:27:19Z</time></trkpt><trkpt lat="45.053905185338735" lon="9.602910747616097"><ele>58.0</ele><time>2026-04-24T07:27:21Z</time></trkpt><trkpt lat="45.05382465479978" lon="9.602891391740043"><ele>57.99999999999999</ele><time>2026-04-24T07:27:23Z</time></trkpt><trkpt lat="45.053743423901615" lon="9.602864545760845"><ele>58.0</ele><time>2026-04-24T07:27:25Z</time></trkpt><trkpt lat="45.0536680598757" lon="9.602842881754063"><ele>58.0</ele><time>2026-04-24T07:27:27Z</time></trkpt><trkpt lat="45.05359757614443" lon="9.602819306986191"><ele>58.0</ele><time>2026-04-24T07:27:29Z</time></trkpt><trkpt lat="45.053522649267286" lon="9.602795522178708"><ele>57.99999999999999</ele><time>2026-04-24T07:27:31Z</time></trkpt><trkpt lat="45.05343673408389" lon="9.602755493219961"><ele>58.0</ele><time>2026-04-24T07:27:33Z</time></trkpt><trkpt lat="45.053360008532195" lon="9.602712882043573"><ele>58.166666666666664</ele><time>2026-04-24T07:27:35Z</time></trkpt><trkpt lat="45.053282492431514" lon="9.602666567996861"><ele>58.33333333333333</ele><time>2026-04-24T07:27:37Z</time></trkpt><trkpt lat="45.053210433244416" lon="9.602639876357458"><ele>58.5</ele><time>2026-04-24T07:27:39Z</time></trkpt><trkpt lat="45.05314077894934" lon="9.602606564299343"><ele>58.66666666666667</ele><time>2026-04-24T07:27:41Z</time></trkpt><trkpt lat="45.05307675333806" lon="9.602550619016462"><ele>58.833333333333336</ele><time>2026-04-24T07:27:43Z</time></trkpt><trkpt lat="45.05300015373244" lon="9.602489961051441"><ele>59.0</ele><time>2026-04-24T07:27:46Z</time></trkpt><trkpt lat="45.052935917214" lon="9.602439130665605"><ele>59.00000000000001</ele><time>2026-04-24T07:27:48Z</time></trkpt><trkpt lat="45.05288006994455" lon="9.602383460543724"><ele>59.0</ele><time>2026-04-24T07:27:49.999Z</time></trkpt><trkpt lat="45.052798464934405" lon="9.602317037101058"><ele>59.0</ele><time>2026-04-24T07:27:52.999Z</time></trkpt><trkpt lat="45.05273318753228" lon="9.60225119419464"><ele>59.0</ele><time>2026-04-24T07:27:54.999Z</time></trkpt><trkpt lat="45.052681767266286" lon="9.602153520012811"><ele>59.00000000000001</ele><time>2026-04-24T07:27:56.999Z</time></trkpt><trkpt lat="45.052678676304986" lon="9.602062142606634"><ele>59.0</ele><time>2026-04-24T07:27:58.999Z</time></trkpt><trkpt lat="45.05269851230311" lon="9.60196991775398"><ele>59.00000000000001</ele><time>2026-04-24T07:28:00.999Z</time></trkpt><trkpt lat="45.052712976896764" lon="9.60184644621564"><ele>59.0</ele><time>2026-04-24T07:28:03.999Z</time></trkpt><trkpt lat="45.052756071693736" lon="9.601738582156162"><ele>59.0</ele><time>2026-04-24T07:28:06.999Z</time></trkpt><trkpt lat="45.05275125635668" lon="9.601640380700811"><ele>59.0</ele><time>2026-04-24T07:28:08.999Z</time></trkpt><trkpt lat="45.05271721773134" lon="9.601557897390142"><ele>59.00000000000001</ele><time>2026-04-24T07:28:10.999Z</time></trkpt><trkpt lat="45.052729234642996" lon="9.60144384482087"><ele>59.0</ele><time>2026-04-24T07:28:12.999Z</time></trkpt><trkpt lat="45.05273761758562" lon="9.601331311418926"><ele>59.00000000000001</ele><time>2026-04-24T07:28:14.999Z</time></trkpt><trkpt lat="45.05274396392477" lon="9.60121254064242"><ele>59.0</ele><time>2026-04-24T07:28:16.999Z</time></trkpt><trkpt lat="45.052738540267086" lon="9.601094840333518"><ele>59.0</ele><time>2026-04-24T07:28:18.999Z</time></trkpt><trkpt lat="45.05274608367055" lon="9.600970260904942"><ele>59.0</ele><time>2026-04-24T07:28:20.999Z</time></trkpt><trkpt lat="45.05275088144249" lon="9.600853813060361"><ele>59.00000000000001</ele><time>2026-04-24T07:28:22.999Z</time></trkpt><trkpt lat="45.05274235932226" lon="9.600742413599312"><ele>59.0</ele><time>2026-04-24T07:28:24.999Z</time></trkpt><trkpt lat="45.052752646913525" lon="9.60063816497954"><ele>59.16666666666667</ele><time>2026-04-24T07:28:26.999Z</time></trkpt><trkpt lat="45.0527796192264" lon="9.600541815006256"><ele>59.333333333333336</ele><time>2026-04-24T07:28:28.999Z</time></trkpt><trkpt lat="45.05273382542206" lon="9.60042816566497"><ele>59.5</ele><time>2026-04-24T07:28:31.999Z</time></trkpt><trkpt lat="45.05275165637059" lon="9.600314722344015"><ele>59.66666666666667</ele><time>2026-04-24T07:28:33.999Z</time></trkpt><trkpt lat="45.0527656839978" lon="9.600202302247325"><ele>59.833333333333336</ele><time>2026-04-24T07:28:35.999Z</time></trkpt><trkpt lat="45.052765081088005" lon="9.600087632419925"><ele>60.0</ele><time>2026-04-24T07:28:37.999Z</time></trkpt><trkpt lat="45.052770477141564" lon="9.599985832484405"><ele>60.5</ele><time>2026-04-24T07:28:39.999Z</time></trkpt><trkpt lat="45.05276315473967" lon="9.599885160084437"><ele>61.0</ele><time>2026-04-24T07:28:41.999Z</time></trkpt><trkpt lat="45.05278192200282" lon="9.599763238743636"><ele>61.5</ele><time>2026-04-24T07:28:44.999Z</time></trkpt><trkpt lat="45.05283175232959" lon="9.599703349290648"><ele>62.0</ele><time>2026-04-24T07:28:47Z</time></trkpt><trkpt lat="45.05280281443132" lon="9.599624206976918"><ele>62.5</ele><time>2026-04-24T07:28:49Z</time></trkpt><trkpt lat="45.052760039618825" lon="9.599510708128262"><ele>63.0</ele><time>2026-04-24T07:28:52Z</time></trkpt><trkpt lat="45.05275624266621" lon="9.599390805166674"><ele>63.166666666666664</ele><time>2026-04-24T07:28:54Z</time></trkpt><trkpt lat="45.052741413486316" lon="9.599287626149009"><ele>63.33333333333333</ele><time>2026-04-24T07:28:56Z</time></trkpt><trkpt lat="45.05273160989349" lon="9.599192058985375"><ele>63.5</ele><time>2026-04-24T07:28:58Z</time></trkpt><trkpt lat="45.052780554817254" lon="9.599115798948551"><ele>63.666666666666664</ele><time>2026-04-24T07:29:00Z</time></trkpt><trkpt lat="45.05273637848387" lon="9.598992932159124"><ele>63.83333333333333</ele><time>2026-04-24T07:29:03Z</time></trkpt><trkpt lat="45.0526660309809" lon="9.598909560565783"><ele>64.0</ele><time>2026-04-24T07:29:06Z</time></trkpt><trkpt lat="45.05261739596311" lon="9.598816379804713"><ele>63.99999999999999</ele><time>2026-04-24T07:29:08Z</time></trkpt><trkpt lat="45.05253413811258" lon="9.598772217958276"><ele>64.0</ele><time>2026-04-24T07:29:10Z</time></trkpt><trkpt lat="45.05244553812319" lon="9.598765351513695"><ele>64.0</ele><time>2026-04-24T07:29:12Z</time></trkpt><trkpt lat="45.0523688196687" lon="9.598769625855399"><ele>64.0</ele><time>2026-04-24T07:29:14Z</time></trkpt><trkpt lat="45.052299045414316" lon="9.59876080226147"><ele>63.99999999999999</ele><time>2026-04-24T07:29:16Z</time></trkpt><trkpt lat="45.052231163621386" lon="9.5987647058697"><ele>64.0</ele><time>2026-04-24T07:29:18Z</time></trkpt><trkpt lat="45.05216650992132" lon="9.598770722182454"><ele>63.49999999999999</ele><time>2026-04-24T07:29:20Z</time></trkpt><trkpt lat="45.05208932457821" lon="9.598767448697764"><ele>63.0</ele><time>2026-04-24T07:29:23Z</time></trkpt><trkpt lat="45.0520511642201" lon="9.598691621512277"><ele>62.5</ele><time>2026-04-24T07:29:25Z</time></trkpt><trkpt lat="45.05204223155674" lon="9.598552705112724"><ele>62.0</ele><time>2026-04-24T07:29:28Z</time></trkpt><trkpt lat="45.05203578057575" lon="9.598460219784108"><ele>61.49999999999999</ele><time>2026-04-24T07:29:30Z</time></trkpt><trkpt lat="45.05200150099636" lon="9.598351191640344"><ele>61.0</ele><time>2026-04-24T07:29:33Z</time></trkpt><trkpt lat="45.05191898628109" lon="9.59833794862858"><ele>59.0</ele><time>2026-04-24T07:29:36Z</time></trkpt><trkpt lat="45.05183781428177" lon="9.598337748092995"><ele>59.0</ele><time>2026-04-24T07:29:38Z</time></trkpt><trkpt lat="45.05176749415204" lon="9.598388819541151"><ele>59.0</ele><time>2026-04-24T07:29:40Z</time></trkpt><trkpt lat="45.05169344073534" lon="9.598398690673967"><ele>59.0</ele><time>2026-04-24T07:29:43Z</time></trkpt></trkseg><trkseg><trkpt lat="45.051870819426526" lon="9.598509647137696"><ele>59.0</ele><time>2026-04-24T07:50:00.107Z</time></trkpt><trkpt lat="45.051674954127066" lon="9.598485586282631"><ele>59.00000000000001</ele><time>2026-04-24T07:50:01.993Z</time></trkpt><trkpt lat="45.051737834208986" lon="9.598433496928942"><ele>59.00000000000001</ele><time>2026-04-24T07:50:21.999Z</time></trkpt><trkpt lat="45.05182239241997" lon="9.598369148829704"><ele>59.0</ele><time>2026-04-24T07:50:24.999Z</time></trkpt><trkpt lat="45.05189007984813" lon="9.59830809770608"><ele>59.0</ele><time>2026-04-24T07:50:29Z</time></trkpt><trkpt lat="45.05197962704716" lon="9.598290029653107"><ele>59.00000000000001</ele><time>2026-04-24T07:50:34Z</time></trkpt><trkpt lat="45.05201706556664" lon="9.598192162679949"><ele>59.0</ele><time>2026-04-24T07:50:38Z</time></trkpt><trkpt lat="45.052014295399424" lon="9.598091521886726"><ele>59.0</ele><time>2026-04-24T07:50:41Z</time></trkpt><trkpt lat="45.05201755676247" lon="9.597979657012095"><ele>59.0</ele><time>2026-04-24T07:50:44Z</time></trkpt><trkpt lat="45.051991173293146" lon="9.597871594764568"><ele>59.00000000000001</ele><time>2026-04-24T07:50:47Z</time></trkpt><trkpt lat="45.051992569213596" lon="9.597781894943239"><ele>59.0</ele><time>2026-04-24T07:50:50Z</time></trkpt><trkpt lat="45.05198140520817" lon="9.597671770406246"><ele>59.0</ele><time>2026-04-24T07:50:54Z</time></trkpt><trkpt lat="45.05196991745171" lon="9.59757248249405"><ele>59.0</ele><time>2026-04-24T07:50:57Z</time></trkpt><trkpt lat="45.05196604737811" lon="9.597467021074086"><ele>59.0</ele><time>2026-04-24T07:51:00Z</time></trkpt><trkpt lat="45.05194609199466" lon="9.597361664849226"><ele>59.0</ele><time>2026-04-24T07:51:03Z</time></trkpt><trkpt lat="45.05194261847341" lon="9.597267622177919"><ele>59.0</ele><time>2026-04-24T07:51:05Z</time></trkpt><trkpt lat="45.051936536312674" lon="9.597146919800007"><ele>59.0</ele><time>2026-04-24T07:51:08Z</time></trkpt><trkpt lat="45.05198869954831" lon="9.5970783734587"><ele>59.0</ele><time>2026-04-24T07:51:10Z</time></trkpt><trkpt lat="45.05209874466283" lon="9.597059445320216"><ele>59.0</ele><time>2026-04-24T07:51:13Z</time></trkpt><trkpt lat="45.0522749815819" lon="9.59706136937616"><ele>59.00000000000001</ele><time>2026-04-24T07:51:18Z</time></trkpt><trkpt lat="45.0523255453298" lon="9.59696319811976"><ele>59.00000000000001</ele><time>2026-04-24T07:51:20Z</time></trkpt><trkpt lat="45.05231495355033" lon="9.59684222483849"><ele>59.0</ele><time>2026-04-24T07:51:22Z</time></trkpt><trkpt lat="45.052297856503735" lon="9.59672892496786"><ele>59.0</ele><time>2026-04-24T07:51:24Z</time></trkpt><trkpt lat="45.05227133268532" lon="9.59662354493802"><ele>59.14285714285714</ele><time>2026-04-24T07:51:25.999Z</time></trkpt><trkpt lat="45.05224687891984" lon="9.596533217066623"><ele>59.28571428571429</ele><time>2026-04-24T07:51:27.999Z</time></trkpt><trkpt lat="45.05223344930605" lon="9.596442336558376"><ele>59.42857142857143</ele><time>2026-04-24T07:51:29.999Z</time></trkpt><trkpt lat="45.05220672996102" lon="9.596349165408313"><ele>59.57142857142857</ele><time>2026-04-24T07:51:31.999Z</time></trkpt><trkpt lat="45.05217352817793" lon="9.596267875808058"><ele>59.71428571428571</ele><time>2026-04-24T07:51:33.999Z</time></trkpt><trkpt lat="45.052158427462" lon="9.596166976128544"><ele>59.85714285714286</ele><time>2026-04-24T07:51:35.999Z</time></trkpt><trkpt lat="45.05213413923238" lon="9.596059022116826"><ele>60.0</ele><time>2026-04-24T07:51:37.999Z</time></trkpt><trkpt lat="45.05212362177574" lon="9.595933590163932"><ele>60.0</ele><time>2026-04-24T07:51:39.999Z</time></trkpt><trkpt lat="45.05211961576895" lon="9.595813336964074"><ele>60.0</ele><time>2026-04-24T07:51:41.999Z</time></trkpt><trkpt lat="45.052116617739316" lon="9.595714516917356"><ele>60.0</ele><time>2026-04-24T07:51:43.999Z</time></trkpt><trkpt lat="45.052112667947384" lon="9.595618235147253"><ele>60.0</ele><time>2026-04-24T07:51:45.999Z</time></trkpt><trkpt lat="45.052103593761736" lon="9.595509262940098"><ele>60.0</ele><time>2026-04-24T07:51:47.999Z</time></trkpt><trkpt lat="45.05209389686275" lon="9.595386395561176"><ele>60.0</ele><time>2026-04-24T07:51:49.999Z</time></trkpt><trkpt lat="45.05210764494844" lon="9.595265574033496"><ele>60.0</ele><time>2026-04-24T07:51:51.999Z</time></trkpt><trkpt lat="45.05211859080124" lon="9.595151735104361"><ele>60.0</ele><time>2026-04-24T07:51:53.999Z</time></trkpt><trkpt lat="45.052125328610316" lon="9.595044920021882"><ele>60.0</ele><time>2026-04-24T07:51:55.999Z</time></trkpt><trkpt lat="45.05212143854896" lon="9.59492905087673"><ele>60.0</ele><time>2026-04-24T07:51:57.999Z</time></trkpt><trkpt lat="45.0521158534221" lon="9.59481221232471"><ele>60.0</ele><time>2026-04-24T07:51:59.999Z</time></trkpt><trkpt lat="45.05211975787991" lon="9.594688240119948"><ele>60.0</ele><time>2026-04-24T07:52:01.999Z</time></trkpt><trkpt lat="45.05212521119247" lon="9.59458012737659"><ele>59.833333333333336</ele><time>2026-04-24T07:52:03.999Z</time></trkpt><trkpt lat="45.052121901138065" lon="9.5944676697614"><ele>59.66666666666667</ele><time>2026-04-24T07:52:05.999Z</time></trkpt><trkpt lat="45.05212220402269" lon="9.594351185999987"><ele>59.5</ele><time>2026-04-24T07:52:07.999Z</time></trkpt><trkpt lat="45.05212519876904" lon="9.594239512684275"><ele>59.333333333333336</ele><time>2026-04-24T07:52:09.999Z</time></trkpt><trkpt lat="45.05213138221974" lon="9.59413148787685"><ele>59.16666666666667</ele><time>2026-04-24T07:52:12Z</time></trkpt><trkpt lat="45.05213496403712" lon="9.594025249975932"><ele>59.0</ele><time>2026-04-24T07:52:14Z</time></trkpt><trkpt lat="45.05213751931261" lon="9.593904796984473"><ele>59.00000000000001</ele><time>2026-04-24T07:52:16Z</time></trkpt><trkpt lat="45.05214295697618" lon="9.593777635010733"><ele>59.0</ele><time>2026-04-24T07:52:18Z</time></trkpt><trkpt lat="45.05214554104545" lon="9.59365222486945"><ele>59.0</ele><time>2026-04-24T07:52:20Z</time></trkpt><trkpt lat="45.05215134365757" lon="9.593536237073689"><ele>59.0</ele><time>2026-04-24T07:52:22Z</time></trkpt><trkpt lat="45.05215120057186" lon="9.593421318123347"><ele>59.00000000000001</ele><time>2026-04-24T07:52:24Z</time></trkpt><trkpt lat="45.052149354767664" lon="9.593309812984181"><ele>59.0</ele><time>2026-04-24T07:52:26Z</time></trkpt><trkpt lat="45.0521511471195" lon="9.593189929956129"><ele>59.00000000000001</ele><time>2026-04-24T07:52:28Z</time></trkpt><trkpt lat="45.052150571236034" lon="9.593073772672987"><ele>59.0</ele><time>2026-04-24T07:52:30Z</time></trkpt><trkpt lat="45.05215364513878" lon="9.592960285276247"><ele>59.0</ele><time>2026-04-24T07:52:32Z</time></trkpt><trkpt lat="45.052153799449556" lon="9.592832913661011"><ele>59.0</ele><time>2026-04-24T07:52:34Z</time></trkpt><trkpt lat="45.052156609601546" lon="9.592707627900845"><ele>59.00000000000001</ele><time>2026-04-24T07:52:36Z</time></trkpt><trkpt lat="45.05215812379738" lon="9.592594119554022"><ele>59.0</ele><time>2026-04-24T07:52:38Z</time></trkpt><trkpt lat="45.05215288929087" lon="9.592478544186507"><ele>59.16666666666667</ele><time>2026-04-24T07:52:40Z</time></trkpt><trkpt lat="45.05214286941809" lon="9.592358375122302"><ele>59.333333333333336</ele><time>2026-04-24T07:52:42Z</time></trkpt><trkpt lat="45.052133880069974" lon="9.592238354908122"><ele>59.5</ele><time>2026-04-24T07:52:44Z</time></trkpt><trkpt lat="45.05212898251253" lon="9.592116564514408"><ele>59.66666666666667</ele><time>2026-04-24T07:52:46Z</time></trkpt><trkpt lat="45.05212125371701" lon="9.59200267055723"><ele>59.833333333333336</ele><time>2026-04-24T07:52:48Z</time></trkpt><trkpt lat="45.05210341321721" lon="9.591880674380526"><ele>60.0</ele><time>2026-04-24T07:52:50Z</time></trkpt><trkpt lat="45.05209008233991" lon="9.591766900743254"><ele>60.333333333333336</ele><time>2026-04-24T07:52:52Z</time></trkpt><trkpt lat="45.052075481882" lon="9.591656706248939"><ele>60.66666666666667</ele><time>2026-04-24T07:52:54Z</time></trkpt><trkpt lat="45.05206541148168" lon="9.591538039398422"><ele>61.0</ele><time>2026-04-24T07:52:56Z</time></trkpt><trkpt lat="45.05205487928172" lon="9.591425849592818"><ele>61.333333333333336</ele><time>2026-04-24T07:52:58Z</time></trkpt><trkpt lat="45.052041436646384" lon="9.591308213199294"><ele>61.66666666666667</ele><time>2026-04-24T07:53:00Z</time></trkpt><trkpt lat="45.05202406176834" lon="9.591195276433833"><ele>62.0</ele><time>2026-04-24T07:53:02Z</time></trkpt><trkpt lat="45.05201096467898" lon="9.591086947409652"><ele>62.00000000000001</ele><time>2026-04-24T07:53:04Z</time></trkpt><trkpt lat="45.051996036078755" lon="9.590971192276049"><ele>62.0</ele><time>2026-04-24T07:53:06Z</time></trkpt><trkpt lat="45.05198501740774" lon="9.590849427087917"><ele>62.0</ele><time>2026-04-24T07:53:08Z</time></trkpt><trkpt lat="45.05197619294477" lon="9.590739134847714"><ele>62.0</ele><time>2026-04-24T07:53:10Z</time></trkpt><trkpt lat="45.051968207776696" lon="9.590626155368827"><ele>62.00000000000001</ele><time>2026-04-24T07:53:12Z</time></trkpt><trkpt lat="45.05195865563913" lon="9.59049856225189"><ele>62.0</ele><time>2026-04-24T07:53:14Z</time></trkpt><trkpt lat="45.05194555968141" lon="9.590375929817222"><ele>62.333333333333336</ele><time>2026-04-24T07:53:15.999Z</time></trkpt><trkpt lat="45.05192902074816" lon="9.590246198971684"><ele>62.66666666666667</ele><time>2026-04-24T07:53:17.999Z</time></trkpt><trkpt lat="45.051922135481476" lon="9.590124836258177"><ele>63.0</ele><time>2026-04-24T07:53:19.999Z</time></trkpt><trkpt lat="45.05191317750503" lon="9.590008845582048"><ele>63.33333333333333</ele><time>2026-04-24T07:53:21.999Z</time></trkpt><trkpt lat="45.05189757560843" lon="9.58988093086663"><ele>63.666666666666664</ele><time>2026-04-24T07:53:23.999Z</time></trkpt><trkpt lat="45.05188748816043" lon="9.589761134724041"><ele>64.0</ele><time>2026-04-24T07:53:25.999Z</time></trkpt><trkpt lat="45.05187895229247" lon="9.589640063996681"><ele>63.99999999999999</ele><time>2026-04-24T07:53:27.999Z</time></trkpt><trkpt lat="45.05186562113114" lon="9.589526031448052"><ele>64.0</ele><time>2026-04-24T07:53:29.999Z</time></trkpt><trkpt lat="45.05185735562577" lon="9.589412143108643"><ele>64.0</ele><time>2026-04-24T07:53:31.999Z</time></trkpt><trkpt lat="45.0518386826944" lon="9.589294614934163"><ele>64.0</ele><time>2026-04-24T07:53:33.999Z</time></trkpt><trkpt lat="45.05181745362109" lon="9.589174037075036"><ele>63.99999999999999</ele><time>2026-04-24T07:53:35.999Z</time></trkpt><trkpt lat="45.05178256216841" lon="9.589059726717803"><ele>64.0</ele><time>2026-04-24T07:53:37.999Z</time></trkpt><trkpt lat="45.051739851543495" lon="9.588956070146654"><ele>63.83333333333333</ele><time>2026-04-24T07:53:39.999Z</time></trkpt><trkpt lat="45.05170620471131" lon="9.588843117989365"><ele>63.666666666666664</ele><time>2026-04-24T07:53:41.999Z</time></trkpt><trkpt lat="45.05166416262403" lon="9.58872420852374"><ele>63.5</ele><time>2026-04-24T07:53:43.999Z</time></trkpt><trkpt lat="45.05161722467649" lon="9.588628842068735"><ele>63.33333333333333</ele><time>2026-04-24T07:53:45.999Z</time></trkpt><trkpt lat="45.0515578418789" lon="9.588537638701279"><ele>63.166666666666664</ele><time>2026-04-24T07:53:47.999Z</time></trkpt><trkpt lat="45.051509315554405" lon="9.588456130823024"><ele>63.0</ele><time>2026-04-24T07:53:49.999Z</time></trkpt><trkpt lat="45.05144024475016" lon="9.58837655294337"><ele>63.0</ele><time>2026-04-24T07:53:51.999Z</time></trkpt><trkpt lat="45.051380321943505" lon="9.588297413820516"><ele>63.0</ele><time>2026-04-24T07:53:53.999Z</time></trkpt><trkpt lat="45.05131788327642" lon="9.588201784184546"><ele>63.0</ele><time>2026-04-24T07:53:55.999Z</time></trkpt><trkpt lat="45.05125672296384" lon="9.588106761974533"><ele>63.0</ele><time>2026-04-24T07:53:57.999Z</time></trkpt><trkpt lat="45.05118900580188" lon="9.58801179032205"><ele>63.0</ele><time>2026-04-24T07:53:59.999Z</time></trkpt><trkpt lat="45.0511217109771" lon="9.58792956011869"><ele>63.0</ele><time>2026-04-24T07:54:01.999Z</time></trkpt><trkpt lat="45.051061306365646" lon="9.587842097056122"><ele>62.8</ele><time>2026-04-24T07:54:03.999Z</time></trkpt><trkpt lat="45.05099735652381" lon="9.587758682985793"><ele>62.599999999999994</ele><time>2026-04-24T07:54:05.999Z</time></trkpt><trkpt lat="45.05093682837239" lon="9.587674967508343"><ele>62.400000000000006</ele><time>2026-04-24T07:54:07.999Z</time></trkpt><trkpt lat="45.0508629090734" lon="9.58759119563643"><ele>62.2</ele><time>2026-04-24T07:54:09.999Z</time></trkpt><trkpt lat="45.050794252043815" lon="9.587503323163508"><ele>62.0</ele><time>2026-04-24T07:54:11.999Z</time></trkpt><trkpt lat="45.05072640902968" lon="9.587415222225728"><ele>62.00000000000001</ele><time>2026-04-24T07:54:13.999Z</time></trkpt><trkpt lat="45.05066374815014" lon="9.587328914846328"><ele>62.0</ele><time>2026-04-24T07:54:15.999Z</time></trkpt><trkpt lat="45.050606088886056" lon="9.587241591731637"><ele>62.0</ele><time>2026-04-24T07:54:18Z</time></trkpt><trkpt lat="45.05053660545155" lon="9.587158216854563"><ele>62.0</ele><time>2026-04-24T07:54:20Z</time></trkpt><trkpt lat="45.05047438517208" lon="9.587074781535831"><ele>62.00000000000001</ele><time>2026-04-24T07:54:22Z</time></trkpt><trkpt lat="45.05041312169546" lon="9.586995127887787"><ele>62.0</ele><time>2026-04-24T07:54:24Z</time></trkpt><trkpt lat="45.05035379082452" lon="9.586912777363507"><ele>61.6</ele><time>2026-04-24T07:54:26Z</time></trkpt><trkpt lat="45.05028796654578" lon="9.586819203169895"><ele>61.2</ele><time>2026-04-24T07:54:28Z</time></trkpt><trkpt lat="45.050221851787704" lon="9.58672938358098"><ele>60.8</ele><time>2026-04-24T07:54:30Z</time></trkpt><trkpt lat="45.05015755316478" lon="9.586644379999106"><ele>60.4</ele><time>2026-04-24T07:54:32Z</time></trkpt><trkpt lat="45.05009044915964" lon="9.58655440337661"><ele>60.0</ele><time>2026-04-24T07:54:34Z</time></trkpt><trkpt lat="45.05002236236147" lon="9.58646787769007"><ele>60.166666666666664</ele><time>2026-04-24T07:54:36Z</time></trkpt><trkpt lat="45.04995456601161" lon="9.586385171793216"><ele>60.33333333333333</ele><time>2026-04-24T07:54:38Z</time></trkpt><trkpt lat="45.049891006946744" lon="9.586300915907461"><ele>60.5</ele><time>2026-04-24T07:54:40Z</time></trkpt><trkpt lat="45.04982434068895" lon="9.586217894154904"><ele>60.666666666666664</ele><time>2026-04-24T07:54:42Z</time></trkpt><trkpt lat="45.04975805153077" lon="9.586137173477647"><ele>60.83333333333333</ele><time>2026-04-24T07:54:44Z</time></trkpt><trkpt lat="45.04969968598928" lon="9.586054087248653"><ele>61.0</ele><time>2026-04-24T07:54:46Z</time></trkpt><trkpt lat="45.04964523390375" lon="9.585966581446984"><ele>61.166666666666664</ele><time>2026-04-24T07:54:48Z</time></trkpt><trkpt lat="45.04959743169395" lon="9.585874980812358"><ele>61.33333333333333</ele><time>2026-04-24T07:54:50Z</time></trkpt><trkpt lat="45.04955310660613" lon="9.585779130129552"><ele>61.5</ele><time>2026-04-24T07:54:52Z</time></trkpt><trkpt lat="45.04951716052001" lon="9.585671751936284"><ele>61.66666666666667</ele><time>2026-04-24T07:54:54Z</time></trkpt><trkpt lat="45.04947168553051" lon="9.585562016355501"><ele>61.833333333333336</ele><time>2026-04-24T07:54:56Z</time></trkpt><trkpt lat="45.049423619157025" lon="9.585459131627799"><ele>62.0</ele><time>2026-04-24T07:54:58Z</time></trkpt><trkpt lat="45.04937176478343" lon="9.58536340666009"><ele>62.16666666666667</ele><time>2026-04-24T07:55:00Z</time></trkpt><trkpt lat="45.049334850993894" lon="9.585249509947692"><ele>62.333333333333336</ele><time>2026-04-24T07:55:02Z</time></trkpt><trkpt lat="45.04928487556302" lon="9.585138753575926"><ele>62.5</ele><time>2026-04-24T07:55:04Z</time></trkpt><trkpt lat="45.04923648877248" lon="9.585031425094042"><ele>62.66666666666667</ele><time>2026-04-24T07:55:06Z</time></trkpt><trkpt lat="45.04919280586654" lon="9.584929989229346"><ele>62.833333333333336</ele><time>2026-04-24T07:55:08Z</time></trkpt><trkpt lat="45.04915753879562" lon="9.584828330291549"><ele>63.0</ele><time>2026-04-24T07:55:10Z</time></trkpt><trkpt lat="45.04911404660313" lon="9.584718496160376"><ele>63.0</ele><time>2026-04-24T07:55:12Z</time></trkpt><trkpt lat="45.04906560971583" lon="9.584612698095835"><ele>63.0</ele><time>2026-04-24T07:55:14Z</time></trkpt><trkpt lat="45.04901218939478" lon="9.5845010902787"><ele>63.0</ele><time>2026-04-24T07:55:16Z</time></trkpt><trkpt lat="45.04896288059052" lon="9.584373418885715"><ele>63.0</ele><time>2026-04-24T07:55:18Z</time></trkpt><trkpt lat="45.04891468324941" lon="9.584264461725768"><ele>63.0</ele><time>2026-04-24T07:55:20Z</time></trkpt><trkpt lat="45.04886704968143" lon="9.5841653157785"><ele>62.8</ele><time>2026-04-24T07:55:22Z</time></trkpt><trkpt lat="45.048820805234804" lon="9.584052882484501"><ele>62.599999999999994</ele><time>2026-04-24T07:55:24Z</time></trkpt><trkpt lat="45.0487686498186" lon="9.583935392701617"><ele>62.400000000000006</ele><time>2026-04-24T07:55:26Z</time></trkpt><trkpt lat="45.04871618821958" lon="9.58381178136123"><ele>62.2</ele><time>2026-04-24T07:55:28Z</time></trkpt><trkpt lat="45.048668589753106" lon="9.583692799997253"><ele>62.0</ele><time>2026-04-24T07:55:30Z</time></trkpt><trkpt lat="45.04861530670504" lon="9.583581034819396"><ele>62.0</ele><time>2026-04-24T07:55:32Z</time></trkpt><trkpt lat="45.04857003361366" lon="9.583466058623737"><ele>62.0</ele><time>2026-04-24T07:55:34Z</time></trkpt><trkpt lat="45.048517818262034" lon="9.583342221561272"><ele>62.0</ele><time>2026-04-24T07:55:36Z</time></trkpt><trkpt lat="45.0484687309071" lon="9.58322280680936"><ele>62.0</ele><time>2026-04-24T07:55:38Z</time></trkpt><trkpt lat="45.04842325628493" lon="9.583112815335511"><ele>62.0</ele><time>2026-04-24T07:55:40Z</time></trkpt><trkpt lat="45.0483828768237" lon="9.58300598368684"><ele>62.0</ele><time>2026-04-24T07:55:42Z</time></trkpt><trkpt lat="45.04833915495223" lon="9.582896237349921"><ele>62.0</ele><time>2026-04-24T07:55:44Z</time></trkpt><trkpt lat="45.04829075080297" lon="9.58278303257914"><ele>62.0</ele><time>2026-04-24T07:55:46Z</time></trkpt><trkpt lat="45.04824313463627" lon="9.582667692060317"><ele>62.0</ele><time>2026-04-24T07:55:47.999Z</time></trkpt><trkpt lat="45.048191299011044" lon="9.582551773055016"><ele>62.0</ele><time>2026-04-24T07:55:49.999Z</time></trkpt><trkpt lat="45.04813768900016" lon="9.582447214712486"><ele>62.2</ele><time>2026-04-24T07:55:51.999Z</time></trkpt><trkpt lat="45.04808838175503" lon="9.582337189489774"><ele>62.400000000000006</ele><time>2026-04-24T07:55:53.999Z</time></trkpt><trkpt lat="45.04803313263121" lon="9.582226474308694"><ele>62.599999999999994</ele><time>2026-04-24T07:55:55.999Z</time></trkpt><trkpt lat="45.04798761610357" lon="9.582104031907045"><ele>62.8</ele><time>2026-04-24T07:55:57.999Z</time></trkpt><trkpt lat="45.04794445750353" lon="9.581985458043372"><ele>63.0</ele><time>2026-04-24T07:55:59.999Z</time></trkpt><trkpt lat="45.04789561357868" lon="9.581871270028703"><ele>63.0</ele><time>2026-04-24T07:56:01.999Z</time></trkpt><trkpt lat="45.04784369321509" lon="9.581752374400834"><ele>63.0</ele><time>2026-04-24T07:56:03.999Z</time></trkpt><trkpt lat="45.04779004901128" lon="9.581634691091564"><ele>63.0</ele><time>2026-04-24T07:56:05.999Z</time></trkpt><trkpt lat="45.047741327706596" lon="9.581516380100686"><ele>63.0</ele><time>2026-04-24T07:56:07.999Z</time></trkpt><trkpt lat="45.04769245608597" lon="9.58140118118806"><ele>63.0</ele><time>2026-04-24T07:56:09.999Z</time></trkpt><trkpt lat="45.04764413709399" lon="9.581278032466582"><ele>63.0</ele><time>2026-04-24T07:56:11.999Z</time></trkpt><trkpt lat="45.04759828128654" lon="9.581165549618259"><ele>63.0</ele><time>2026-04-24T07:56:13.999Z</time></trkpt><trkpt lat="45.04755035696725" lon="9.581052396514215"><ele>63.0</ele><time>2026-04-24T07:56:15.999Z</time></trkpt><trkpt lat="45.04750745732661" lon="9.580936880141264"><ele>63.0</ele><time>2026-04-24T07:56:17.999Z</time></trkpt><trkpt lat="45.0474599184715" lon="9.58081033333986"><ele>63.0</ele><time>2026-04-24T07:56:19.999Z</time></trkpt><trkpt lat="45.04740802910166" lon="9.580691361915836"><ele>63.0</ele><time>2026-04-24T07:56:21.999Z</time></trkpt><trkpt lat="45.04736015278716" lon="9.580567375465765"><ele>63.0</ele><time>2026-04-24T07:56:24Z</time></trkpt><trkpt lat="45.04731177318785" lon="9.580449865624825"><ele>63.0</ele><time>2026-04-24T07:56:26Z</time></trkpt><trkpt lat="45.047261271392706" lon="9.580329938839892"><ele>63.0</ele><time>2026-04-24T07:56:28Z</time></trkpt><trkpt lat="45.04721094691035" lon="9.580211242218391"><ele>63.0</ele><time>2026-04-24T07:56:30Z</time></trkpt><trkpt lat="45.04716178079763" lon="9.580095056675939"><ele>62.8</ele><time>2026-04-24T07:56:32Z</time></trkpt><trkpt lat="45.04711185104679" lon="9.579970998823528"><ele>62.599999999999994</ele><time>2026-04-24T07:56:34Z</time></trkpt><trkpt lat="45.047060625496975" lon="9.579852965748902"><ele>62.400000000000006</ele><time>2026-04-24T07:56:36Z</time></trkpt><trkpt lat="45.047011980263015" lon="9.579729951918791"><ele>62.2</ele><time>2026-04-24T07:56:38Z</time></trkpt><trkpt lat="45.04696212085345" lon="9.579610618917393"><ele>62.0</ele><time>2026-04-24T07:56:40Z</time></trkpt><trkpt lat="45.04691418527403" lon="9.579491550520572"><ele>61.8</ele><time>2026-04-24T07:56:42Z</time></trkpt><trkpt lat="45.04686281851" lon="9.579370548139801"><ele>61.6</ele><time>2026-04-24T07:56:44Z</time></trkpt><trkpt lat="45.046814456813294" lon="9.579251453989034"><ele>61.39999999999999</ele><time>2026-04-24T07:56:46Z</time></trkpt><trkpt lat="45.04676871614938" lon="9.579135601846328"><ele>61.199999999999996</ele><time>2026-04-24T07:56:48Z</time></trkpt><trkpt lat="45.04672245377028" lon="9.579011958541596"><ele>61.0</ele><time>2026-04-24T07:56:50Z</time></trkpt><trkpt lat="45.04668051174986" lon="9.578891025865552"><ele>61.0</ele><time>2026-04-24T07:56:52Z</time></trkpt><trkpt lat="45.04664089156541" lon="9.578768093990325"><ele>60.99999999999999</ele><time>2026-04-24T07:56:54Z</time></trkpt><trkpt lat="45.046603836825966" lon="9.578635653725758"><ele>60.99999999999999</ele><time>2026-04-24T07:56:56Z</time></trkpt><trkpt lat="45.046562720223854" lon="9.578504784000184"><ele>61.0</ele><time>2026-04-24T07:56:58Z</time></trkpt><trkpt lat="45.046522105390366" lon="9.578376044239583"><ele>61.0</ele><time>2026-04-24T07:57:00Z</time></trkpt><trkpt lat="45.04647934092358" lon="9.578249141800088"><ele>61.0</ele><time>2026-04-24T07:57:02Z</time></trkpt><trkpt lat="45.046439270565344" lon="9.578120000574279"><ele>60.99999999999999</ele><time>2026-04-24T07:57:04Z</time></trkpt><trkpt lat="45.046400442961676" lon="9.577995484955787"><ele>60.99999999999999</ele><time>2026-04-24T07:57:06Z</time></trkpt><trkpt lat="45.046362529097095" lon="9.577873620941645"><ele>61.0</ele><time>2026-04-24T07:57:08Z</time></trkpt><trkpt lat="45.0463192359123" lon="9.577754834885187"><ele>61.0</ele><time>2026-04-24T07:57:10Z</time></trkpt><trkpt lat="45.046276154471336" lon="9.57764410346741"><ele>61.0</ele><time>2026-04-24T07:57:12Z</time></trkpt><trkpt lat="45.04624211566097" lon="9.577524355901529"><ele>60.99999999999999</ele><time>2026-04-24T07:57:14Z</time></trkpt><trkpt lat="45.04620258837939" lon="9.577403827102609"><ele>60.99999999999999</ele><time>2026-04-24T07:57:16Z</time></trkpt><trkpt lat="45.04616202571118" lon="9.577280014315884"><ele>61.0</ele><time>2026-04-24T07:57:18Z</time></trkpt><trkpt lat="45.04612422482623" lon="9.57715813480094"><ele>61.0</ele><time>2026-04-24T07:57:20Z</time></trkpt><trkpt lat="45.046083201996126" lon="9.577035977452892"><ele>61.199999999999996</ele><time>2026-04-24T07:57:22Z</time></trkpt><trkpt lat="45.04604414890289" lon="9.576914367043845"><ele>61.39999999999999</ele><time>2026-04-24T07:57:24Z</time></trkpt><trkpt lat="45.04600601433917" lon="9.576795559629847"><ele>61.6</ele><time>2026-04-24T07:57:26Z</time></trkpt><trkpt lat="45.045966126197364" lon="9.576675308318848"><ele>61.8</ele><time>2026-04-24T07:57:28Z</time></trkpt><trkpt lat="45.04592016876694" lon="9.576558007529409"><ele>62.0</ele><time>2026-04-24T07:57:30Z</time></trkpt><trkpt lat="45.045882230649255" lon="9.576430670686639"><ele>62.0</ele><time>2026-04-24T07:57:32Z</time></trkpt><trkpt lat="45.04584143031475" lon="9.576307805500583"><ele>62.0</ele><time>2026-04-24T07:57:34Z</time></trkpt><trkpt lat="45.045800367867756" lon="9.576184377154918"><ele>62.0</ele><time>2026-04-24T07:57:36Z</time></trkpt><trkpt lat="45.04575827261001" lon="9.576059973348764"><ele>62.0</ele><time>2026-04-24T07:57:38Z</time></trkpt><trkpt lat="45.04572043000583" lon="9.575936705411591"><ele>62.0</ele><time>2026-04-24T07:57:40Z</time></trkpt><trkpt lat="45.045677977818656" lon="9.575811569699841"><ele>62.2</ele><time>2026-04-24T07:57:42Z</time></trkpt><trkpt lat="45.04563794768156" lon="9.575691965462624"><ele>62.400000000000006</ele><time>2026-04-24T07:57:44Z</time></trkpt><trkpt lat="45.04559850979687" lon="9.575571132108394"><ele>62.599999999999994</ele><time>2026-04-24T07:57:46Z</time></trkpt><trkpt lat="45.045561203631976" lon="9.57543899209833"><ele>62.8</ele><time>2026-04-24T07:57:48Z</time></trkpt><trkpt lat="45.04551764890457" lon="9.575322207352812"><ele>63.0</ele><time>2026-04-24T07:57:50Z</time></trkpt><trkpt lat="45.04547788212933" lon="9.575204131610452"><ele>63.2</ele><time>2026-04-24T07:57:52Z</time></trkpt><trkpt lat="45.04544008645284" lon="9.57508039762714"><ele>63.4</ele><time>2026-04-24T07:57:54Z</time></trkpt><trkpt lat="45.045410366472105" lon="9.574941122144482"><ele>63.60000000000001</ele><time>2026-04-24T07:57:56Z</time></trkpt><trkpt lat="45.04537099559804" lon="9.574811846598427"><ele>63.800000000000004</ele><time>2026-04-24T07:57:58Z</time></trkpt><trkpt lat="45.04532438308953" lon="9.574693405269004"><ele>64.0</ele><time>2026-04-24T07:58:00Z</time></trkpt><trkpt lat="45.045287656727666" lon="9.574564410552089"><ele>64.4</ele><time>2026-04-24T07:58:02Z</time></trkpt><trkpt lat="45.04524765822706" lon="9.574440065534892"><ele>64.80000000000001</ele><time>2026-04-24T07:58:04Z</time></trkpt><trkpt lat="45.04520803075132" lon="9.574315338257879"><ele>65.19999999999999</ele><time>2026-04-24T07:58:06Z</time></trkpt><trkpt lat="45.04515964582795" lon="9.574190231413208"><ele>65.6</ele><time>2026-04-24T07:58:08Z</time></trkpt><trkpt lat="45.0451103429575" lon="9.574072613647079"><ele>66.0</ele><time>2026-04-24T07:58:10Z</time></trkpt><trkpt lat="45.04507752692508" lon="9.573951922851942"><ele>66.0</ele><time>2026-04-24T07:58:12Z</time></trkpt><trkpt lat="45.04503634697742" lon="9.573832970858621"><ele>66.0</ele><time>2026-04-24T07:58:14Z</time></trkpt><trkpt lat="45.04499623604504" lon="9.57370649784951"><ele>66.0</ele><time>2026-04-24T07:58:16Z</time></trkpt><trkpt lat="45.04495652537968" lon="9.57358319850292"><ele>66.0</ele><time>2026-04-24T07:58:18Z</time></trkpt><trkpt lat="45.044912851738914" lon="9.57346215315691"><ele>66.0</ele><time>2026-04-24T07:58:20Z</time></trkpt><trkpt lat="45.044870608109875" lon="9.573338208065172"><ele>65.39999999999999</ele><time>2026-04-24T07:58:22Z</time></trkpt><trkpt lat="45.044829102191855" lon="9.573209974746762"><ele>64.8</ele><time>2026-04-24T07:58:23.999Z</time></trkpt><trkpt lat="45.044792202092204" lon="9.573088675967176"><ele>64.19999999999999</ele><time>2026-04-24T07:58:25.999Z</time></trkpt><trkpt lat="45.0447540826048" lon="9.572966830988072"><ele>63.599999999999994</ele><time>2026-04-24T07:58:27.999Z</time></trkpt><trkpt lat="45.04471983831164" lon="9.572840987561161"><ele>63.0</ele><time>2026-04-24T07:58:30Z</time></trkpt><trkpt lat="45.04469888579687" lon="9.572701122733928"><ele>63.0</ele><time>2026-04-24T07:58:32Z</time></trkpt><trkpt lat="45.04469966195049" lon="9.572568903049651"><ele>63.0</ele><time>2026-04-24T07:58:34Z</time></trkpt><trkpt lat="45.04471334052518" lon="9.57243867693131"><ele>63.0</ele><time>2026-04-24T07:58:36Z</time></trkpt><trkpt lat="45.044732024471735" lon="9.572307311045844"><ele>63.0</ele><time>2026-04-24T07:58:38Z</time></trkpt><trkpt lat="45.04474274265952" lon="9.572178224049122"><ele>63.0</ele><time>2026-04-24T07:58:40Z</time></trkpt><trkpt lat="45.04476040739773" lon="9.572046960070399"><ele>63.0</ele><time>2026-04-24T07:58:42Z</time></trkpt><trkpt lat="45.0447695144721" lon="9.571920320005113"><ele>63.0</ele><time>2026-04-24T07:58:44Z</time></trkpt><trkpt lat="45.04478315771613" lon="9.571796557181337"><ele>63.0</ele><time>2026-04-24T07:58:46Z</time></trkpt><trkpt lat="45.04479757992515" lon="9.571664570292109"><ele>63.0</ele><time>2026-04-24T07:58:48Z</time></trkpt><trkpt lat="45.044807469129466" lon="9.571536715057603"><ele>63.0</ele><time>2026-04-24T07:58:50Z</time></trkpt><trkpt lat="45.04480670201924" lon="9.571418428884606"><ele>63.0</ele><time>2026-04-24T07:58:52Z</time></trkpt><trkpt lat="45.04479940408928" lon="9.571297398572991"><ele>63.2</ele><time>2026-04-24T07:58:54Z</time></trkpt><trkpt lat="45.044760548523826" lon="9.571180371715526"><ele>63.4</ele><time>2026-04-24T07:58:56Z</time></trkpt><trkpt lat="45.04472237254009" lon="9.571055639980319"><ele>63.60000000000001</ele><time>2026-04-24T07:58:58Z</time></trkpt><trkpt lat="45.04466760332034" lon="9.570947383847125"><ele>63.800000000000004</ele><time>2026-04-24T07:59:00Z</time></trkpt><trkpt lat="45.04460215170112" lon="9.570857367065285"><ele>64.0</ele><time>2026-04-24T07:59:02Z</time></trkpt><trkpt lat="45.04454966153196" lon="9.5707547086736"><ele>63.99999999999999</ele><time>2026-04-24T07:59:04Z</time></trkpt><trkpt lat="45.04449960046951" lon="9.570647067863161"><ele>64.0</ele><time>2026-04-24T07:59:06Z</time></trkpt><trkpt lat="45.0444471362993" lon="9.570554684661278"><ele>64.0</ele><time>2026-04-24T07:59:08Z</time></trkpt><trkpt lat="45.04439918027711" lon="9.570463833287935"><ele>64.0</ele><time>2026-04-24T07:59:10Z</time></trkpt><trkpt lat="45.04434969773694" lon="9.570373525208582"><ele>63.99999999999999</ele><time>2026-04-24T07:59:12Z</time></trkpt><trkpt lat="45.044308141388846" lon="9.570285003166385"><ele>64.0</ele><time>2026-04-24T07:59:14Z</time></trkpt><trkpt lat="45.04426210839526" lon="9.57019646469452"><ele>63.99999999999999</ele><time>2026-04-24T07:59:16Z</time></trkpt><trkpt lat="45.04421805824512" lon="9.570110549507879"><ele>64.0</ele><time>2026-04-24T07:59:18Z</time></trkpt><trkpt lat="45.044167021443606" lon="9.570023063715743"><ele>64.0</ele><time>2026-04-24T07:59:20Z</time></trkpt><trkpt lat="45.04411585972504" lon="9.569927778092156"><ele>64.0</ele><time>2026-04-24T07:59:22Z</time></trkpt><trkpt lat="45.04407711159581" lon="9.569818016419061"><ele>63.99999999999999</ele><time>2026-04-24T07:59:24Z</time></trkpt><trkpt lat="45.04401900854828" lon="9.569726167013714"><ele>64.0</ele><time>2026-04-24T07:59:26Z</time></trkpt><trkpt lat="45.043972749153305" lon="9.569623227816114"><ele>63.83333333333333</ele><time>2026-04-24T07:59:28Z</time></trkpt><trkpt lat="45.043922574076916" lon="9.569521226771615"><ele>63.666666666666664</ele><time>2026-04-24T07:59:30Z</time></trkpt><trkpt lat="45.0438783173552" lon="9.569420100351397"><ele>63.5</ele><time>2026-04-24T07:59:32Z</time></trkpt><trkpt lat="45.04383099327704" lon="9.569320139774392"><ele>63.33333333333333</ele><time>2026-04-24T07:59:34Z</time></trkpt><trkpt lat="45.04378343669446" lon="9.569222802543226"><ele>63.166666666666664</ele><time>2026-04-24T07:59:36Z</time></trkpt><trkpt lat="45.04372938719738" lon="9.56912167614868"><ele>63.0</ele><time>2026-04-24T07:59:38Z</time></trkpt><trkpt lat="45.04367701266282" lon="9.569019512630456"><ele>63.0</ele><time>2026-04-24T07:59:40Z</time></trkpt><trkpt lat="45.04363406028662" lon="9.568917404615089"><ele>63.0</ele><time>2026-04-24T07:59:42Z</time></trkpt><trkpt lat="45.04358821228451" lon="9.56881062291014"><ele>63.0</ele><time>2026-04-24T07:59:44Z</time></trkpt><trkpt lat="45.04353494819079" lon="9.568710371252092"><ele>63.0</ele><time>2026-04-24T07:59:46Z</time></trkpt><trkpt lat="45.04348430251148" lon="9.568607796671806"><ele>63.0</ele><time>2026-04-24T07:59:48Z</time></trkpt><trkpt lat="45.043437047194296" lon="9.568507224229274"><ele>63.0</ele><time>2026-04-24T07:59:50Z</time></trkpt><trkpt lat="45.04338344242473" lon="9.568407650315123"><ele>63.166666666666664</ele><time>2026-04-24T07:59:52Z</time></trkpt><trkpt lat="45.04333858182423" lon="9.568306510596168"><ele>63.33333333333333</ele><time>2026-04-24T07:59:54Z</time></trkpt><trkpt lat="45.04329197698692" lon="9.56821408408927"><ele>63.5</ele><time>2026-04-24T07:59:56Z</time></trkpt><trkpt lat="45.04324726419749" lon="9.568127621879931"><ele>63.666666666666664</ele><time>2026-04-24T07:59:58Z</time></trkpt><trkpt lat="45.04321603068528" lon="9.568050199553033"><ele>63.83333333333333</ele><time>2026-04-24T08:00:01Z</time></trkpt><trkpt lat="45.04310413081707" lon="9.568148927123147"><ele>64.0</ele><time>2026-04-24T08:00:02Z</time></trkpt><trkpt lat="45.043042010394174" lon="9.568202920896734"><ele>63.99999999999999</ele><time>2026-04-24T08:00:04Z</time></trkpt><trkpt lat="45.04297706066654" lon="9.568273871993952"><ele>64.0</ele><time>2026-04-24T08:00:06Z</time></trkpt><trkpt lat="45.042904137288126" lon="9.56834881935963"><ele>64.0</ele><time>2026-04-24T08:00:08Z</time></trkpt><trkpt lat="45.04282999069358" lon="9.568425951591733"><ele>64.0</ele><time>2026-04-24T08:00:10Z</time></trkpt><trkpt lat="45.04275748558763" lon="9.56849873109149"><ele>63.99999999999999</ele><time>2026-04-24T08:00:12Z</time></trkpt><trkpt lat="45.04269318121731" lon="9.568578065523303"><ele>64.0</ele><time>2026-04-24T08:00:14Z</time></trkpt><trkpt lat="45.04262064571054" lon="9.568631970791136"><ele>64.0</ele><time>2026-04-24T08:00:16Z</time></trkpt><trkpt lat="45.0425493520211" lon="9.568704328389481"><ele>64.0</ele><time>2026-04-24T08:00:18Z</time></trkpt><trkpt lat="45.042479501547234" lon="9.568782639617963"><ele>64.0</ele><time>2026-04-24T08:00:20Z</time></trkpt><trkpt lat="45.04240342783219" lon="9.568863512889623"><ele>64.0</ele><time>2026-04-24T08:00:22Z</time></trkpt><trkpt lat="45.04232755911325" lon="9.568941677197556"><ele>64.0</ele><time>2026-04-24T08:00:24Z</time></trkpt><trkpt lat="45.042253942210785" lon="9.569018887431346"><ele>63.99999999999999</ele><time>2026-04-24T08:00:26Z</time></trkpt><trkpt lat="45.0421779794696" lon="9.569098615910187"><ele>64.0</ele><time>2026-04-24T08:00:28Z</time></trkpt><trkpt lat="45.04210285220226" lon="9.569177620230377"><ele>64.0</ele><time>2026-04-24T08:00:29.999Z</time></trkpt><trkpt lat="45.042037742574415" lon="9.569243604806562"><ele>64.0</ele><time>2026-04-24T08:00:31.999Z</time></trkpt><trkpt lat="45.04197063137846" lon="9.569313137849392"><ele>63.99999999999999</ele><time>2026-04-24T08:00:33.999Z</time></trkpt><trkpt lat="45.04189638715178" lon="9.569380964623017"><ele>64.0</ele><time>2026-04-24T08:00:36Z</time></trkpt><trkpt lat="45.04181682058886" lon="9.569460735432145"><ele>63.800000000000004</ele><time>2026-04-24T08:00:38Z</time></trkpt><trkpt lat="45.04174984558761" lon="9.56954013541221"><ele>63.60000000000001</ele><time>2026-04-24T08:00:40Z</time></trkpt><trkpt lat="45.041682367956156" lon="9.569612101230998"><ele>63.4</ele><time>2026-04-24T08:00:42Z</time></trkpt><trkpt lat="45.04160875933417" lon="9.569690279310551"><ele>63.2</ele><time>2026-04-24T08:00:44Z</time></trkpt><trkpt lat="45.041533227566916" lon="9.56977180445264"><ele>63.0</ele><time>2026-04-24T08:00:46Z</time></trkpt><trkpt lat="45.041462662464134" lon="9.569854324642142"><ele>63.599999999999994</ele><time>2026-04-24T08:00:48Z</time></trkpt><trkpt lat="45.04139178360704" lon="9.569935641591343"><ele>64.19999999999999</ele><time>2026-04-24T08:00:50Z</time></trkpt><trkpt lat="45.041316891812585" lon="9.570018417964643"><ele>64.8</ele><time>2026-04-24T08:00:52Z</time></trkpt><trkpt lat="45.04124314218527" lon="9.570103467137937"><ele>65.39999999999999</ele><time>2026-04-24T08:00:54Z</time></trkpt><trkpt lat="45.04117029192789" lon="9.570183422581222"><ele>66.0</ele><time>2026-04-24T08:00:56Z</time></trkpt><trkpt lat="45.04109308806328" lon="9.570260535039955"><ele>66.0</ele><time>2026-04-24T08:00:58Z</time></trkpt><trkpt lat="45.04101694696873" lon="9.570347773701634"><ele>66.0</ele><time>2026-04-24T08:01:00Z</time></trkpt><trkpt lat="45.04095055319682" lon="9.570418708949616"><ele>66.0</ele><time>2026-04-24T08:01:02Z</time></trkpt><trkpt lat="45.04087551998405" lon="9.570501694500217"><ele>66.0</ele><time>2026-04-24T08:01:04Z</time></trkpt><trkpt lat="45.040803812764516" lon="9.570583769479219"><ele>66.0</ele><time>2026-04-24T08:01:06Z</time></trkpt><trkpt lat="45.04073932233765" lon="9.570665537169132"><ele>65.83333333333333</ele><time>2026-04-24T08:01:08Z</time></trkpt><trkpt lat="45.040667713000616" lon="9.570738286833349"><ele>65.66666666666667</ele><time>2026-04-24T08:01:10Z</time></trkpt><trkpt lat="45.04059976749995" lon="9.570810357119166"><ele>65.5</ele><time>2026-04-24T08:01:12Z</time></trkpt><trkpt lat="45.040540040147626" lon="9.570877587012491"><ele>65.33333333333334</ele><time>2026-04-24T08:01:14Z</time></trkpt><trkpt lat="45.040481362056916" lon="9.570943111977595"><ele>65.16666666666667</ele><time>2026-04-24T08:01:16Z</time></trkpt><trkpt lat="45.04041672313322" lon="9.571013863985382"><ele>65.0</ele><time>2026-04-24T08:01:18Z</time></trkpt><trkpt lat="45.04034736469415" lon="9.571087013048688"><ele>65.0</ele><time>2026-04-24T08:01:20Z</time></trkpt><trkpt lat="45.04027708059944" lon="9.571162157443997"><ele>65.0</ele><time>2026-04-24T08:01:22Z</time></trkpt><trkpt lat="45.040203591448794" lon="9.571241228493545"><ele>65.0</ele><time>2026-04-24T08:01:24Z</time></trkpt><trkpt lat="45.040139304704105" lon="9.571319683894904"><ele>65.0</ele><time>2026-04-24T08:01:26Z</time></trkpt><trkpt lat="45.040072463391695" lon="9.571398200860777"><ele>65.0</ele><time>2026-04-24T08:01:28Z</time></trkpt><trkpt lat="45.0400019422213" lon="9.571480451756898"><ele>65.0</ele><time>2026-04-24T08:01:30Z</time></trkpt><trkpt lat="45.03993389385106" lon="9.571558073194607"><ele>64.83333333333334</ele><time>2026-04-24T08:01:32Z</time></trkpt><trkpt lat="45.039864674766605" lon="9.571633099020934"><ele>64.66666666666667</ele><time>2026-04-24T08:01:34Z</time></trkpt><trkpt lat="45.03979344707668" lon="9.571710808989058"><ele>64.5</ele><time>2026-04-24T08:01:36Z</time></trkpt><trkpt lat="45.039724700236114" lon="9.571789691615486"><ele>64.33333333333333</ele><time>2026-04-24T08:01:38Z</time></trkpt><trkpt lat="45.03965516039152" lon="9.571872879351474"><ele>64.16666666666666</ele><time>2026-04-24T08:01:40Z</time></trkpt><trkpt lat="45.03958444838636" lon="9.571953193530641"><ele>64.0</ele><time>2026-04-24T08:01:42Z</time></trkpt><trkpt lat="45.03951457237848" lon="9.572029224825503"><ele>63.99999999999999</ele><time>2026-04-24T08:01:44Z</time></trkpt><trkpt lat="45.03944774057226" lon="9.572097514980147"><ele>64.0</ele><time>2026-04-24T08:01:46Z</time></trkpt><trkpt lat="45.03937998848273" lon="9.572176608804977"><ele>64.0</ele><time>2026-04-24T08:01:48Z</time></trkpt><trkpt lat="45.03931142409247" lon="9.5722508397842"><ele>64.0</ele><time>2026-04-24T08:01:50Z</time></trkpt><trkpt lat="45.039247317842296" lon="9.572327703754672"><ele>63.99999999999999</ele><time>2026-04-24T08:01:52Z</time></trkpt><trkpt lat="45.03917807242607" lon="9.572409415959397"><ele>64.0</ele><time>2026-04-24T08:01:54Z</time></trkpt><trkpt lat="45.03910863939421" lon="9.57248701936729"><ele>64.16666666666666</ele><time>2026-04-24T08:01:56Z</time></trkpt><trkpt lat="45.03904341597581" lon="9.572564704945156"><ele>64.33333333333333</ele><time>2026-04-24T08:01:58Z</time></trkpt><trkpt lat="45.038976130458465" lon="9.572640261730308"><ele>64.5</ele><time>2026-04-24T08:02:00Z</time></trkpt><trkpt lat="45.0389107032516" lon="9.57271360148909"><ele>64.66666666666667</ele><time>2026-04-24T08:02:02Z</time></trkpt><trkpt lat="45.03884553897224" lon="9.572788667505689"><ele>64.83333333333334</ele><time>2026-04-24T08:02:04Z</time></trkpt><trkpt lat="45.038776522626" lon="9.572867406345223"><ele>65.0</ele><time>2026-04-24T08:02:06Z</time></trkpt><trkpt lat="45.03870538547633" lon="9.57294834469156"><ele>65.0</ele><time>2026-04-24T08:02:08Z</time></trkpt><trkpt lat="45.03863435236548" lon="9.573025955092833"><ele>65.0</ele><time>2026-04-24T08:02:10Z</time></trkpt><trkpt lat="45.038567689036924" lon="9.573101741495975"><ele>65.0</ele><time>2026-04-24T08:02:12Z</time></trkpt><trkpt lat="45.03849788203308" lon="9.573179502111763"><ele>65.0</ele><time>2026-04-24T08:02:14Z</time></trkpt><trkpt lat="45.03842543164416" lon="9.573260773141785"><ele>65.0</ele><time>2026-04-24T08:02:16Z</time></trkpt><trkpt lat="45.03835708420169" lon="9.573334137352697"><ele>65.0</ele><time>2026-04-24T08:02:18Z</time></trkpt><trkpt lat="45.03828898054291" lon="9.573410879270234"><ele>65.33333333333334</ele><time>2026-04-24T08:02:20Z</time></trkpt><trkpt lat="45.038221031212096" lon="9.573489703309022"><ele>65.66666666666667</ele><time>2026-04-24T08:02:22Z</time></trkpt><trkpt lat="45.038156006890844" lon="9.573562583280381"><ele>66.0</ele><time>2026-04-24T08:02:24Z</time></trkpt><trkpt lat="45.038088785277544" lon="9.573640499963476"><ele>66.33333333333333</ele><time>2026-04-24T08:02:26Z</time></trkpt><trkpt lat="45.0380227280012" lon="9.573725594298937"><ele>66.66666666666666</ele><time>2026-04-24T08:02:28Z</time></trkpt><trkpt lat="45.037961454176646" lon="9.573800705359641"><ele>67.0</ele><time>2026-04-24T08:02:30Z</time></trkpt><trkpt lat="45.037889599950965" lon="9.573874403168618"><ele>67.16666666666666</ele><time>2026-04-24T08:02:32Z</time></trkpt><trkpt lat="45.03782233430477" lon="9.573950985531319"><ele>67.33333333333333</ele><time>2026-04-24T08:02:34Z</time></trkpt><trkpt lat="45.0377535607333" lon="9.574024021695063"><ele>67.5</ele><time>2026-04-24T08:02:36Z</time></trkpt><trkpt lat="45.03768808928711" lon="9.574098660966847"><ele>67.66666666666667</ele><time>2026-04-24T08:02:38Z</time></trkpt><trkpt lat="45.037622903256114" lon="9.574173375784094"><ele>67.83333333333334</ele><time>2026-04-24T08:02:39.999Z</time></trkpt><trkpt lat="45.037556737997626" lon="9.574244764282287"><ele>68.0</ele><time>2026-04-24T08:02:42Z</time></trkpt><trkpt lat="45.037491701729614" lon="9.574321507407276"><ele>68.16666666666667</ele><time>2026-04-24T08:02:44Z</time></trkpt><trkpt lat="45.03742458743542" lon="9.574394368505017"><ele>68.33333333333334</ele><time>2026-04-24T08:02:46Z</time></trkpt><trkpt lat="45.037353723851446" lon="9.57447274994198"><ele>68.5</ele><time>2026-04-24T08:02:48Z</time></trkpt><trkpt lat="45.03728398680612" lon="9.574550206266954"><ele>68.66666666666667</ele><time>2026-04-24T08:02:50Z</time></trkpt><trkpt lat="45.03721438248433" lon="9.574626146774953"><ele>68.83333333333333</ele><time>2026-04-24T08:02:52Z</time></trkpt><trkpt lat="45.037143861019175" lon="9.574704492486758"><ele>69.0</ele><time>2026-04-24T08:02:54Z</time></trkpt><trkpt lat="45.037069484284906" lon="9.574783352032801"><ele>69.0</ele><time>2026-04-24T08:02:56Z</time></trkpt><trkpt lat="45.037004160166866" lon="9.574863760196981"><ele>69.0</ele><time>2026-04-24T08:02:58Z</time></trkpt><trkpt lat="45.03693668489769" lon="9.574940973474128"><ele>69.0</ele><time>2026-04-24T08:03:00Z</time></trkpt><trkpt lat="45.036862903429665" lon="9.575012826721116"><ele>69.0</ele><time>2026-04-24T08:03:02Z</time></trkpt><trkpt lat="45.036795747618555" lon="9.575100058622803"><ele>69.0</ele><time>2026-04-24T08:03:04Z</time></trkpt><trkpt lat="45.03672313154856" lon="9.575171423744605"><ele>69.0</ele><time>2026-04-24T08:03:06Z</time></trkpt><trkpt lat="45.03666133570951" lon="9.57524957413041"><ele>69.5</ele><time>2026-04-24T08:03:08Z</time></trkpt><trkpt lat="45.0365920471666" lon="9.575329123208816"><ele>70.0</ele><time>2026-04-24T08:03:10Z</time></trkpt><trkpt lat="45.03653779370123" lon="9.575386376051252"><ele>70.5</ele><time>2026-04-24T08:03:12Z</time></trkpt><trkpt lat="45.03647290054067" lon="9.5754499689752"><ele>71.0</ele><time>2026-04-24T08:03:14Z</time></trkpt><trkpt lat="45.036408511811814" lon="9.575524500620775"><ele>71.5</ele><time>2026-04-24T08:03:16Z</time></trkpt><trkpt lat="45.03634333819214" lon="9.575579689874848"><ele>72.0</ele><time>2026-04-24T08:03:18Z</time></trkpt><trkpt lat="45.03627785394295" lon="9.575653255873211"><ele>72.2</ele><time>2026-04-24T08:03:20Z</time></trkpt><trkpt lat="45.03619804040797" lon="9.575695955603296"><ele>72.4</ele><time>2026-04-24T08:03:22Z</time></trkpt><trkpt lat="45.03613620507299" lon="9.575732393182767"><ele>72.6</ele><time>2026-04-24T08:03:24Z</time></trkpt><trkpt lat="45.03604918397954" lon="9.575812076518172"><ele>72.8</ele><time>2026-04-24T08:03:26Z</time></trkpt><trkpt lat="45.03595510843733" lon="9.575868157220102"><ele>73.0</ele><time>2026-04-24T08:03:28Z</time></trkpt><trkpt lat="45.03588041063497" lon="9.575949674491065"><ele>72.5</ele><time>2026-04-24T08:03:30Z</time></trkpt><trkpt lat="45.03579286874412" lon="9.575997092345219"><ele>72.0</ele><time>2026-04-24T08:03:32Z</time></trkpt><trkpt lat="45.03572166327142" lon="9.576050702102085"><ele>71.5</ele><time>2026-04-24T08:03:34Z</time></trkpt><trkpt lat="45.03565777886101" lon="9.576097135158069"><ele>71.0</ele><time>2026-04-24T08:03:36Z</time></trkpt><trkpt lat="45.035581966522734" lon="9.576149242185345"><ele>70.5</ele><time>2026-04-24T08:03:38Z</time></trkpt><trkpt lat="45.035491771353946" lon="9.576193497838727"><ele>70.0</ele><time>2026-04-24T08:03:41Z</time></trkpt><trkpt lat="45.03540461350167" lon="9.57623603546733"><ele>70.0</ele><time>2026-04-24T08:03:43Z</time></trkpt><trkpt lat="45.035326522155586" lon="9.576279759870774"><ele>70.0</ele><time>2026-04-24T08:03:45Z</time></trkpt><trkpt lat="45.03524252829538" lon="9.5763131225363"><ele>70.0</ele><time>2026-04-24T08:03:47Z</time></trkpt><trkpt lat="45.0351461631105" lon="9.576347250115983"><ele>70.0</ele><time>2026-04-24T08:03:49Z</time></trkpt><trkpt lat="45.03506369603029" lon="9.57638310640486"><ele>70.0</ele><time>2026-04-24T08:03:51Z</time></trkpt><trkpt lat="45.034992481989704" lon="9.576427453099768"><ele>70.0</ele><time>2026-04-24T08:03:53Z</time></trkpt><trkpt lat="45.034911330366754" lon="9.576452679569202"><ele>70.33333333333333</ele><time>2026-04-24T08:03:55Z</time></trkpt><trkpt lat="45.03482849822643" lon="9.576495352918567"><ele>70.66666666666666</ele><time>2026-04-24T08:03:57Z</time></trkpt><trkpt lat="45.03474934444692" lon="9.576525436625715"><ele>71.0</ele><time>2026-04-24T08:03:59Z</time></trkpt><trkpt lat="45.034659210810204" lon="9.576560705249678"><ele>71.33333333333333</ele><time>2026-04-24T08:04:01Z</time></trkpt><trkpt lat="45.03457343946402" lon="9.576590315994618"><ele>71.66666666666667</ele><time>2026-04-24T08:04:03Z</time></trkpt><trkpt lat="45.03448242714424" lon="9.576626999572682"><ele>72.0</ele><time>2026-04-24T08:04:05Z</time></trkpt><trkpt lat="45.034391720801366" lon="9.576664406039292"><ele>72.0</ele><time>2026-04-24T08:04:07Z</time></trkpt><trkpt lat="45.03431117798875" lon="9.576697880625405"><ele>72.0</ele><time>2026-04-24T08:04:09Z</time></trkpt><trkpt lat="45.03422143787482" lon="9.576744199412328"><ele>72.0</ele><time>2026-04-24T08:04:11Z</time></trkpt><trkpt lat="45.03413618930148" lon="9.576780565926123"><ele>72.0</ele><time>2026-04-24T08:04:13Z</time></trkpt><trkpt lat="45.03405274858688" lon="9.57681405334723"><ele>72.0</ele><time>2026-04-24T08:04:15Z</time></trkpt><trkpt lat="45.033968313478496" lon="9.576851323964686"><ele>72.0</ele><time>2026-04-24T08:04:17Z</time></trkpt><trkpt lat="45.03388594637486" lon="9.576888576124459"><ele>71.66666666666667</ele><time>2026-04-24T08:04:19Z</time></trkpt><trkpt lat="45.033799740487055" lon="9.576925774642259"><ele>71.33333333333333</ele><time>2026-04-24T08:04:21Z</time></trkpt><trkpt lat="45.03371462563441" lon="9.576960155571948"><ele>71.0</ele><time>2026-04-24T08:04:23Z</time></trkpt><trkpt lat="45.033633374215455" lon="9.57699270751988"><ele>70.66666666666666</ele><time>2026-04-24T08:04:25Z</time></trkpt><trkpt lat="45.03354849155356" lon="9.57702120043925"><ele>70.33333333333333</ele><time>2026-04-24T08:04:27Z</time></trkpt><trkpt lat="45.033456391423506" lon="9.577055791462001"><ele>70.0</ele><time>2026-04-24T08:04:29Z</time></trkpt><trkpt lat="45.03336883499905" lon="9.577090578389994"><ele>70.0</ele><time>2026-04-24T08:04:31Z</time></trkpt><trkpt lat="45.03328077509244" lon="9.577124395643924"><ele>70.0</ele><time>2026-04-24T08:04:32.999Z</time></trkpt><trkpt lat="45.033192068566976" lon="9.577160343006167"><ele>70.0</ele><time>2026-04-24T08:04:34.999Z</time></trkpt><trkpt lat="45.03310677861944" lon="9.577195012923594"><ele>70.0</ele><time>2026-04-24T08:04:36.999Z</time></trkpt><trkpt lat="45.033015914782304" lon="9.577221987467656"><ele>70.0</ele><time>2026-04-24T08:04:38.999Z</time></trkpt><trkpt lat="45.03293407921074" lon="9.577265170545823"><ele>70.0</ele><time>2026-04-24T08:04:40.999Z</time></trkpt><trkpt lat="45.03284708668333" lon="9.577294524358045"><ele>70.0</ele><time>2026-04-24T08:04:42.999Z</time></trkpt><trkpt lat="45.03275912676982" lon="9.577331308648155"><ele>70.0</ele><time>2026-04-24T08:04:44.999Z</time></trkpt><trkpt lat="45.032680737545306" lon="9.57737214924734"><ele>70.0</ele><time>2026-04-24T08:04:47Z</time></trkpt><trkpt lat="45.03259734990386" lon="9.577389588914832"><ele>70.0</ele><time>2026-04-24T08:04:49Z</time></trkpt><trkpt lat="45.03251788809937" lon="9.577420129064231"><ele>70.0</ele><time>2026-04-24T08:04:51Z</time></trkpt><trkpt lat="45.03245480880242" lon="9.577444495797565"><ele>70.0</ele><time>2026-04-24T08:04:53Z</time></trkpt><trkpt lat="45.03238495892028" lon="9.577471477947002"><ele>70.0</ele><time>2026-04-24T08:04:55Z</time></trkpt><trkpt lat="45.032298809485" lon="9.57750475634686"><ele>70.0</ele><time>2026-04-24T08:04:58Z</time></trkpt><trkpt lat="45.0322451403221" lon="9.5775583549115"><ele>70.0</ele><time>2026-04-24T08:05:02Z</time></trkpt><trkpt lat="45.03214894078552" lon="9.577932885709561"><ele>70.0</ele><time>2026-04-24T08:05:03Z</time></trkpt><trkpt lat="45.032172945962344" lon="9.578064829996228"><ele>70.0</ele><time>2026-04-24T08:05:06Z</time></trkpt><trkpt lat="45.03219532405604" lon="9.578182691364308"><ele>70.0</ele><time>2026-04-24T08:05:09Z</time></trkpt><trkpt lat="45.03221472181772" lon="9.578284279254405"><ele>70.0</ele><time>2026-04-24T08:05:12Z</time></trkpt><trkpt lat="45.032195061012594" lon="9.578397851926393"><ele>70.0</ele><time>2026-04-24T08:05:28Z</time></trkpt><trkpt lat="45.032212368395996" lon="9.57849663754325"><ele>70.0</ele><time>2026-04-24T08:05:30Z</time></trkpt><trkpt lat="45.0322341983491" lon="9.578610506303628"><ele>69.5</ele><time>2026-04-24T08:05:32Z</time></trkpt><trkpt lat="45.03222017862964" lon="9.578734173684587"><ele>69.0</ele><time>2026-04-24T08:05:34Z</time></trkpt><trkpt lat="45.0322424581687" lon="9.57883551509941"><ele>68.5</ele><time>2026-04-24T08:05:36Z</time></trkpt><trkpt lat="45.032265749233495" lon="9.578938687861749"><ele>68.0</ele><time>2026-04-24T08:05:38Z</time></trkpt><trkpt lat="45.032287766512574" lon="9.57903454588289"><ele>67.5</ele><time>2026-04-24T08:05:40Z</time></trkpt><trkpt lat="45.03231244425493" lon="9.579135337816211"><ele>67.0</ele><time>2026-04-24T08:05:42Z</time></trkpt><trkpt lat="45.03233927589915" lon="9.579233066974517"><ele>67.0</ele><time>2026-04-24T08:05:44Z</time></trkpt><trkpt lat="45.032360789040276" lon="9.579336340973057"><ele>67.0</ele><time>2026-04-24T08:05:46Z</time></trkpt><trkpt lat="45.032382512216785" lon="9.579439655346343"><ele>67.0</ele><time>2026-04-24T08:05:48Z</time></trkpt><trkpt lat="45.032409135917874" lon="9.579537573157237"><ele>67.0</ele><time>2026-04-24T08:05:50Z</time></trkpt><trkpt lat="45.03242861526174" lon="9.579637850111752"><ele>67.0</ele><time>2026-04-24T08:05:52Z</time></trkpt><trkpt lat="45.03245390841331" lon="9.579735432430612"><ele>67.0</ele><time>2026-04-24T08:05:54Z</time></trkpt><trkpt lat="45.03248162378797" lon="9.579834597255516"><ele>67.0</ele><time>2026-04-24T08:05:56Z</time></trkpt><trkpt lat="45.0325213311581" lon="9.579934197866242"><ele>67.0</ele><time>2026-04-24T08:05:58Z</time></trkpt><trkpt lat="45.03253360071945" lon="9.5800487076198"><ele>67.0</ele><time>2026-04-24T08:06:00Z</time></trkpt><trkpt lat="45.03256515015883" lon="9.580153364234599"><ele>67.0</ele><time>2026-04-24T08:06:02Z</time></trkpt><trkpt lat="45.032589520336145" lon="9.58026865441078"><ele>67.0</ele><time>2026-04-24T08:06:04Z</time></trkpt><trkpt lat="45.032616151220466" lon="9.580380963984759"><ele>67.0</ele><time>2026-04-24T08:06:06Z</time></trkpt><trkpt lat="45.03264383460724" lon="9.580490395911255"><ele>67.0</ele><time>2026-04-24T08:06:08Z</time></trkpt><trkpt lat="45.03266428515195" lon="9.580595337737712"><ele>67.0</ele><time>2026-04-24T08:06:10Z</time></trkpt><trkpt lat="45.03268762376286" lon="9.580696396808948"><ele>67.0</ele><time>2026-04-24T08:06:12Z</time></trkpt><trkpt lat="45.032707162334944" lon="9.58079382721925"><ele>67.0</ele><time>2026-04-24T08:06:14Z</time></trkpt><trkpt lat="45.03272750290846" lon="9.58089534760388"><ele>67.0</ele><time>2026-04-24T08:06:16Z</time></trkpt><trkpt lat="45.032750906451625" lon="9.581007647985418"><ele>67.0</ele><time>2026-04-24T08:06:18Z</time></trkpt><trkpt lat="45.03277159449302" lon="9.581123452949605"><ele>67.0</ele><time>2026-04-24T08:06:20Z</time></trkpt><trkpt lat="45.03279630265772" lon="9.581241137538397"><ele>67.16666666666666</ele><time>2026-04-24T08:06:22Z</time></trkpt><trkpt lat="45.03282227466806" lon="9.581353578077575"><ele>67.33333333333333</ele><time>2026-04-24T08:06:24Z</time></trkpt><trkpt lat="45.03284533086399" lon="9.58146045321946"><ele>67.5</ele><time>2026-04-24T08:06:26Z</time></trkpt><trkpt lat="45.03286973104321" lon="9.581563242289658"><ele>67.66666666666667</ele><time>2026-04-24T08:06:27.999Z</time></trkpt><trkpt lat="45.03289265386874" lon="9.581658002876443"><ele>67.83333333333334</ele><time>2026-04-24T08:06:29.999Z</time></trkpt><trkpt lat="45.03291411926415" lon="9.581763948537825"><ele>68.0</ele><time>2026-04-24T08:06:31.999Z</time></trkpt><trkpt lat="45.032938215959305" lon="9.581872026783914"><ele>68.0</ele><time>2026-04-24T08:06:33.999Z</time></trkpt><trkpt lat="45.0329685110159" lon="9.581986341081416"><ele>68.0</ele><time>2026-04-24T08:06:35.999Z</time></trkpt><trkpt lat="45.032991975574696" lon="9.582101604345404"><ele>68.0</ele><time>2026-04-24T08:06:37.999Z</time></trkpt><trkpt lat="45.03301406977381" lon="9.582212944949204"><ele>68.0</ele><time>2026-04-24T08:06:39.999Z</time></trkpt><trkpt lat="45.03303912756224" lon="9.58232093571124"><ele>68.0</ele><time>2026-04-24T08:06:41.999Z</time></trkpt><trkpt lat="45.03306090904853" lon="9.582425305429416"><ele>68.0</ele><time>2026-04-24T08:06:43.999Z</time></trkpt><trkpt lat="45.03307989151323" lon="9.582528818223848"><ele>68.0</ele><time>2026-04-24T08:06:45.999Z</time></trkpt><trkpt lat="45.03309560950747" lon="9.58262898296959"><ele>68.0</ele><time>2026-04-24T08:06:47.999Z</time></trkpt><trkpt lat="45.03312746397978" lon="9.582721108890155"><ele>68.0</ele><time>2026-04-24T08:06:49.999Z</time></trkpt><trkpt lat="45.033150852221475" lon="9.582833048581541"><ele>68.0</ele><time>2026-04-24T08:06:51.999Z</time></trkpt><trkpt lat="45.03317507942948" lon="9.58294900361988"><ele>68.0</ele><time>2026-04-24T08:06:54Z</time></trkpt><trkpt lat="45.03319923771022" lon="9.583064628745827"><ele>68.0</ele><time>2026-04-24T08:06:56Z</time></trkpt><trkpt lat="45.03322229953992" lon="9.583175006096328"><ele>68.0</ele><time>2026-04-24T08:06:58Z</time></trkpt><trkpt lat="45.03324538057431" lon="9.583285475350117"><ele>68.0</ele><time>2026-04-24T08:07:00Z</time></trkpt><trkpt lat="45.033267043478915" lon="9.58338915725389"><ele>68.0</ele><time>2026-04-24T08:07:02Z</time></trkpt><trkpt lat="45.03328768148769" lon="9.583487933895555"><ele>68.0</ele><time>2026-04-24T08:07:04Z</time></trkpt><trkpt lat="45.03330643579242" lon="9.583577694652085"><ele>68.0</ele><time>2026-04-24T08:07:06Z</time></trkpt><trkpt lat="45.033331463595644" lon="9.583697481489828"><ele>68.0</ele><time>2026-04-24T08:07:09Z</time></trkpt><trkpt lat="45.033185828026994" lon="9.583899762666965"><ele>68.2</ele><time>2026-04-24T08:07:12Z</time></trkpt><trkpt lat="45.033191836947175" lon="9.584021127223366"><ele>68.4</ele><time>2026-04-24T08:07:14Z</time></trkpt><trkpt lat="45.03314499829665" lon="9.58418357842743"><ele>68.60000000000001</ele><time>2026-04-24T08:07:16Z</time></trkpt><trkpt lat="45.033179962796986" lon="9.584285502080556"><ele>68.8</ele><time>2026-04-24T08:07:18Z</time></trkpt><trkpt lat="45.033214325719825" lon="9.584385672466329"><ele>69.0</ele><time>2026-04-24T08:07:20Z</time></trkpt><trkpt lat="45.03325144549456" lon="9.584493879079439"><ele>69.0</ele><time>2026-04-24T08:07:22Z</time></trkpt><trkpt lat="45.03338339713519" lon="9.584469582440082"><ele>69.0</ele><time>2026-04-24T08:07:23Z</time></trkpt><trkpt lat="45.0334121786606" lon="9.58459315914726"><ele>69.0</ele><time>2026-04-24T08:07:25Z</time></trkpt><trkpt lat="45.03343543913925" lon="9.584706921120256"><ele>69.0</ele><time>2026-04-24T08:07:27Z</time></trkpt><trkpt lat="45.03346267613333" lon="9.584813635509601"><ele>69.0</ele><time>2026-04-24T08:07:29Z</time></trkpt><trkpt lat="45.03349959792217" lon="9.584907278222884"><ele>69.0</ele><time>2026-04-24T08:07:31Z</time></trkpt><trkpt lat="45.033530646786204" lon="9.585004829020129"><ele>69.0</ele><time>2026-04-24T08:07:33Z</time></trkpt><trkpt lat="45.033563059983095" lon="9.585095749178311"><ele>69.0</ele><time>2026-04-24T08:07:35Z</time></trkpt><trkpt lat="45.03359169679647" lon="9.585188686842585"><ele>69.0</ele><time>2026-04-24T08:07:37Z</time></trkpt><trkpt lat="45.03362108963155" lon="9.585286480688607"><ele>69.0</ele><time>2026-04-24T08:07:39Z</time></trkpt><trkpt lat="45.03365483939636" lon="9.585378985438153"><ele>69.0</ele><time>2026-04-24T08:07:41Z</time></trkpt><trkpt lat="45.0337669302194" lon="9.585432904824835"><ele>68.83333333333333</ele><time>2026-04-24T08:07:43Z</time></trkpt><trkpt lat="45.03380444099555" lon="9.585532661598952"><ele>68.66666666666667</ele><time>2026-04-24T08:07:45Z</time></trkpt><trkpt lat="45.03384632274225" lon="9.585638025258119"><ele>68.5</ele><time>2026-04-24T08:07:47Z</time></trkpt><trkpt lat="45.03388870478631" lon="9.585740787112979"><ele>68.33333333333334</ele><time>2026-04-24T08:07:49Z</time></trkpt><trkpt lat="45.03393128123418" lon="9.585838776051755"><ele>68.16666666666667</ele><time>2026-04-24T08:07:51Z</time></trkpt><trkpt lat="45.03397719135908" lon="9.58594150411622"><ele>68.0</ele><time>2026-04-24T08:07:53Z</time></trkpt><trkpt lat="45.03402303861518" lon="9.586043487413695"><ele>68.0</ele><time>2026-04-24T08:07:55Z</time></trkpt><trkpt lat="45.03407012596146" lon="9.586143148960112"><ele>68.0</ele><time>2026-04-24T08:07:57Z</time></trkpt><trkpt lat="45.03411805896184" lon="9.58624617920799"><ele>68.0</ele><time>2026-04-24T08:07:59Z</time></trkpt><trkpt lat="45.03416551684972" lon="9.586347701671865"><ele>68.0</ele><time>2026-04-24T08:08:01Z</time></trkpt><trkpt lat="45.034212670984374" lon="9.586448364939246"><ele>68.0</ele><time>2026-04-24T08:08:03Z</time></trkpt><trkpt lat="45.034259843736" lon="9.586549067594342"><ele>68.0</ele><time>2026-04-24T08:08:05Z</time></trkpt><trkpt lat="45.03431099711341" lon="9.586658268207673"><ele>68.0</ele><time>2026-04-24T08:08:07Z</time></trkpt><trkpt lat="45.03435982386936" lon="9.586760963089038"><ele>68.0</ele><time>2026-04-24T08:08:09Z</time></trkpt><trkpt lat="45.0344088537754" lon="9.586862245347469"><ele>68.0</ele><time>2026-04-24T08:08:11Z</time></trkpt><trkpt lat="45.03445651833891" lon="9.586949269410729"><ele>68.0</ele><time>2026-04-24T08:08:12Z</time></trkpt><trkpt lat="45.03448643906313" lon="9.587047162625518"><ele>68.0</ele><time>2026-04-24T08:08:14Z</time></trkpt><trkpt lat="45.034525925573405" lon="9.587188614225575"><ele>68.0</ele><time>2026-04-24T08:08:16Z</time></trkpt><trkpt lat="45.03453080990269" lon="9.587423412487686"><ele>68.0</ele><time>2026-04-24T08:08:17Z</time></trkpt><trkpt lat="45.03450569600438" lon="9.587556981441217"><ele>68.0</ele><time>2026-04-24T08:08:20Z</time></trkpt><trkpt lat="45.0342933393746" lon="9.58754828480459"><ele>68.0</ele><time>2026-04-24T08:08:21Z</time></trkpt><trkpt lat="45.034272127027926" lon="9.58765496540637"><ele>68.0</ele><time>2026-04-24T08:08:23Z</time></trkpt><trkpt lat="45.034242905462875" lon="9.587760879749398"><ele>68.0</ele><time>2026-04-24T08:08:25Z</time></trkpt><trkpt lat="45.03436309978244" lon="9.588042972316373"><ele>68.0</ele><time>2026-04-24T08:08:27Z</time></trkpt><trkpt lat="45.034167021191074" lon="9.58820066699464"><ele>67.83333333333334</ele><time>2026-04-24T08:08:31Z</time></trkpt><trkpt lat="45.03409831629423" lon="9.58826331651089"><ele>67.66666666666667</ele><time>2026-04-24T08:08:32.999Z</time></trkpt><trkpt lat="45.03403586273022" lon="9.588322470317303"><ele>67.5</ele><time>2026-04-24T08:08:34.999Z</time></trkpt><trkpt lat="45.033966288723775" lon="9.588389065024074"><ele>67.33333333333333</ele><time>2026-04-24T08:08:36.999Z</time></trkpt><trkpt lat="45.0339006292085" lon="9.588454408910449"><ele>67.16666666666666</ele><time>2026-04-24T08:08:38.999Z</time></trkpt><trkpt lat="45.03383519981968" lon="9.588519914543156"><ele>67.0</ele><time>2026-04-24T08:08:40.999Z</time></trkpt><trkpt lat="45.033773615622785" lon="9.588582143238204"><ele>67.0</ele><time>2026-04-24T08:08:42.999Z</time></trkpt><trkpt lat="45.033714292023156" lon="9.58864457065666"><ele>67.0</ele><time>2026-04-24T08:08:44.999Z</time></trkpt><trkpt lat="45.0336610259228" lon="9.588700868689521"><ele>67.0</ele><time>2026-04-24T08:08:46.999Z</time></trkpt><trkpt lat="45.03360501079391" lon="9.58876315466115"><ele>67.0</ele><time>2026-04-24T08:08:48.999Z</time></trkpt><trkpt lat="45.03353771876072" lon="9.58883928844937"><ele>67.0</ele><time>2026-04-24T08:08:50.999Z</time></trkpt><trkpt lat="45.03344618747736" lon="9.588945987834737"><ele>67.0</ele><time>2026-04-24T08:08:53.999Z</time></trkpt><trkpt lat="45.03338697183946" lon="9.58901704651863"><ele>67.0</ele><time>2026-04-24T08:08:55.999Z</time></trkpt><trkpt lat="45.033311958301425" lon="9.589109354234294"><ele>67.0</ele><time>2026-04-24T08:08:59Z</time></trkpt><trkpt lat="45.03324949575571" lon="9.589187540304522"><ele>67.0</ele><time>2026-04-24T08:09:01Z</time></trkpt><trkpt lat="45.03319781498879" lon="9.589254238902518"><ele>67.0</ele><time>2026-04-24T08:09:03Z</time></trkpt><trkpt lat="45.0331437149169" lon="9.589325201811837"><ele>67.0</ele><time>2026-04-24T08:09:05Z</time></trkpt><trkpt lat="45.03309481777756" lon="9.589392252466753"><ele>67.0</ele><time>2026-04-24T08:09:07Z</time></trkpt><trkpt lat="45.03303715282053" lon="9.58947427052529"><ele>67.14285714285714</ele><time>2026-04-24T08:09:09Z</time></trkpt><trkpt lat="45.03299148059455" lon="9.589540483962914"><ele>67.28571428571428</ele><time>2026-04-24T08:09:11Z</time></trkpt><trkpt lat="45.03293877470931" lon="9.589616894096828"><ele>67.42857142857142</ele><time>2026-04-24T08:09:13Z</time></trkpt><trkpt lat="45.032882765144116" lon="9.589700538837304"><ele>67.57142857142857</ele><time>2026-04-24T08:09:15Z</time></trkpt><trkpt lat="45.032828624693806" lon="9.589782868578865"><ele>67.71428571428571</ele><time>2026-04-24T08:09:17Z</time></trkpt><trkpt lat="45.03277784167886" lon="9.589863274890867"><ele>67.85714285714285</ele><time>2026-04-24T08:09:19Z</time></trkpt><trkpt lat="45.03273154088665" lon="9.589939130629263"><ele>68.0</ele><time>2026-04-24T08:09:21Z</time></trkpt><trkpt lat="45.032688442409885" lon="9.590011266664659"><ele>68.0</ele><time>2026-04-24T08:09:23Z</time></trkpt><trkpt lat="45.03264150198381" lon="9.59009088777581"><ele>68.0</ele><time>2026-04-24T08:09:25Z</time></trkpt><trkpt lat="45.03259097718984" lon="9.590178806758255"><ele>68.0</ele><time>2026-04-24T08:09:27Z</time></trkpt><trkpt lat="45.032541148721016" lon="9.590268687931772"><ele>68.0</ele><time>2026-04-24T08:09:29Z</time></trkpt><trkpt lat="45.03249246074817" lon="9.590357977029019"><ele>68.0</ele><time>2026-04-24T08:09:31Z</time></trkpt><trkpt lat="45.032448768174504" lon="9.590441914542616"><ele>68.0</ele><time>2026-04-24T08:09:33Z</time></trkpt><trkpt lat="45.032406766942465" lon="9.590522801852943"><ele>68.0</ele><time>2026-04-24T08:09:35Z</time></trkpt><trkpt lat="45.03236746686489" lon="9.59060030812003"><ele>68.0</ele><time>2026-04-24T08:09:37Z</time></trkpt><trkpt lat="45.03231800343552" lon="9.590703174050597"><ele>68.0</ele><time>2026-04-24T08:09:40Z</time></trkpt><trkpt lat="45.032277977488675" lon="9.590786878605568"><ele>68.0</ele><time>2026-04-24T08:09:42Z</time></trkpt><trkpt lat="45.032237748009024" lon="9.590873523006897"><ele>68.0</ele><time>2026-04-24T08:09:44Z</time></trkpt><trkpt lat="45.03219622841199" lon="9.590965909224696"><ele>68.0</ele><time>2026-04-24T08:09:46Z</time></trkpt><trkpt lat="45.032155544708104" lon="9.591057836077411"><ele>67.99999999999999</ele><time>2026-04-24T08:09:48Z</time></trkpt><trkpt lat="45.032117159139915" lon="9.591146636547784"><ele>68.0</ele><time>2026-04-24T08:09:50Z</time></trkpt><trkpt lat="45.03208273547896" lon="9.591230640112931"><ele>68.0</ele><time>2026-04-24T08:09:52Z</time></trkpt><trkpt lat="45.03204975979804" lon="9.591312899940464"><ele>68.0</ele><time>2026-04-24T08:09:54Z</time></trkpt><trkpt lat="45.03201419899368" lon="9.59140378698819"><ele>68.0</ele><time>2026-04-24T08:09:56Z</time></trkpt><trkpt lat="45.031982180129965" lon="9.59148562173489"><ele>67.99999999999999</ele><time>2026-04-24T08:09:58Z</time></trkpt><trkpt lat="45.03194670046323" lon="9.59158255600242"><ele>68.0</ele><time>2026-04-24T08:10:00Z</time></trkpt><trkpt lat="45.03191314721785" lon="9.591676675414801"><ele>67.85714285714285</ele><time>2026-04-24T08:10:02Z</time></trkpt><trkpt lat="45.031877200694794" lon="9.59178023349647"><ele>67.71428571428571</ele><time>2026-04-24T08:10:04Z</time></trkpt><trkpt lat="45.03184683246008" lon="9.591871817199069"><ele>67.57142857142857</ele><time>2026-04-24T08:10:06Z</time></trkpt><trkpt lat="45.03181869254777" lon="9.591956681256315"><ele>67.42857142857142</ele><time>2026-04-24T08:10:08Z</time></trkpt><trkpt lat="45.031789993474355" lon="9.59204323132366"><ele>67.28571428571428</ele><time>2026-04-24T08:10:10Z</time></trkpt><trkpt lat="45.031761548149866" lon="9.592134929847937"><ele>67.14285714285714</ele><time>2026-04-24T08:10:12Z</time></trkpt><trkpt lat="45.03173074661384" lon="9.592237659639052"><ele>67.0</ele><time>2026-04-24T08:10:14Z</time></trkpt><trkpt lat="45.0316608911716" lon="9.59230767053725"><ele>67.16666666666666</ele><time>2026-04-24T08:10:16Z</time></trkpt><trkpt lat="45.03162204703874" lon="9.592387405182258"><ele>67.33333333333333</ele><time>2026-04-24T08:10:18Z</time></trkpt><trkpt lat="45.03158573586072" lon="9.592482532733657"><ele>67.5</ele><time>2026-04-24T08:10:19.999Z</time></trkpt><trkpt lat="45.03154664530238" lon="9.592585157124024"><ele>67.66666666666667</ele><time>2026-04-24T08:10:21.999Z</time></trkpt><trkpt lat="45.03149900945284" lon="9.592676698372415"><ele>67.83333333333334</ele><time>2026-04-24T08:10:23.999Z</time></trkpt><trkpt lat="45.03142701406001" lon="9.592757451277567"><ele>68.0</ele><time>2026-04-24T08:10:25.999Z</time></trkpt><trkpt lat="45.0313587082708" lon="9.592790854434808"><ele>67.83333333333334</ele><time>2026-04-24T08:10:27.999Z</time></trkpt><trkpt lat="45.031310033033" lon="9.592853110237375"><ele>67.66666666666667</ele><time>2026-04-24T08:10:29.999Z</time></trkpt><trkpt lat="45.03126659968208" lon="9.5929377684205"><ele>67.5</ele><time>2026-04-24T08:10:31.999Z</time></trkpt><trkpt lat="45.03128997260618" lon="9.593048341014526"><ele>67.33333333333333</ele><time>2026-04-24T08:10:33.999Z</time></trkpt><trkpt lat="45.03130301537378" lon="9.593156315126084"><ele>67.16666666666666</ele><time>2026-04-24T08:10:35.999Z</time></trkpt><trkpt lat="45.03129400905833" lon="9.59326791950822"><ele>67.0</ele><time>2026-04-24T08:10:37.999Z</time></trkpt><trkpt lat="45.031280857161505" lon="9.593393063552941"><ele>67.0</ele><time>2026-04-24T08:10:39.999Z</time></trkpt><trkpt lat="45.031275452939504" lon="9.593508799167449"><ele>67.0</ele><time>2026-04-24T08:10:41.999Z</time></trkpt><trkpt lat="45.03126207908911" lon="9.593615189232365"><ele>67.0</ele><time>2026-04-24T08:10:43.999Z</time></trkpt><trkpt lat="45.03124410325804" lon="9.593721996833887"><ele>67.0</ele><time>2026-04-24T08:10:45.999Z</time></trkpt><trkpt lat="45.03123283136619" lon="9.593838804005276"><ele>67.0</ele><time>2026-04-24T08:10:47.999Z</time></trkpt><trkpt lat="45.031374473875495" lon="9.59393938110304"><ele>67.0</ele><time>2026-04-24T08:10:48.999Z</time></trkpt><trkpt lat="45.03135939002046" lon="9.594052463252883"><ele>67.0</ele><time>2026-04-24T08:10:50.999Z</time></trkpt><trkpt lat="45.03134522930148" lon="9.59417354522986"><ele>67.0</ele><time>2026-04-24T08:10:52.999Z</time></trkpt><trkpt lat="45.03133249937534" lon="9.59429361593465"><ele>67.0</ele><time>2026-04-24T08:10:54.999Z</time></trkpt><trkpt lat="45.03132055114669" lon="9.594422857144526"><ele>67.0</ele><time>2026-04-24T08:10:56.999Z</time></trkpt><trkpt lat="45.03131047851835" lon="9.594540747066265"><ele>67.0</ele><time>2026-04-24T08:10:58.999Z</time></trkpt><trkpt lat="45.031302116451855" lon="9.594656873836751"><ele>67.16666666666666</ele><time>2026-04-24T08:11:00.999Z</time></trkpt><trkpt lat="45.031294421576874" lon="9.59476899158973"><ele>67.33333333333333</ele><time>2026-04-24T08:11:02.999Z</time></trkpt><trkpt lat="45.031286413676774" lon="9.594893862622246"><ele>67.5</ele><time>2026-04-24T08:11:05Z</time></trkpt><trkpt lat="45.031280498689235" lon="9.59501504839174"><ele>67.66666666666667</ele><time>2026-04-24T08:11:07Z</time></trkpt><trkpt lat="45.03127577097279" lon="9.595139903396037"><ele>67.83333333333334</ele><time>2026-04-24T08:11:09Z</time></trkpt><trkpt lat="45.031271249235076" lon="9.595274211843126"><ele>68.0</ele><time>2026-04-24T08:11:11Z</time></trkpt><trkpt lat="45.0312685671853" lon="9.595399797609616"><ele>68.0</ele><time>2026-04-24T08:11:13Z</time></trkpt><trkpt lat="45.03126586225403" lon="9.595529576649222"><ele>68.0</ele><time>2026-04-24T08:11:15Z</time></trkpt><trkpt lat="45.03126418971032" lon="9.59566608480221"><ele>68.0</ele><time>2026-04-24T08:11:17Z</time></trkpt><trkpt lat="45.031262443161715" lon="9.595808633093103"><ele>68.0</ele><time>2026-04-24T08:11:19Z</time></trkpt><trkpt lat="45.031261309799426" lon="9.595936326231605"><ele>68.0</ele><time>2026-04-24T08:11:21Z</time></trkpt><trkpt lat="45.03126166236948" lon="9.596073437520005"><ele>67.5</ele><time>2026-04-24T08:11:23Z</time></trkpt><trkpt lat="45.03126201449349" lon="9.59621037477795"><ele>67.0</ele><time>2026-04-24T08:11:25Z</time></trkpt><trkpt lat="45.031262582164565" lon="9.596349510366354"><ele>66.5</ele><time>2026-04-24T08:11:27Z</time></trkpt><trkpt lat="45.03126327098524" lon="9.596486450093183"><ele>66.0</ele><time>2026-04-24T08:11:29Z</time></trkpt><trkpt lat="45.0312639259956" lon="9.596598801500956"><ele>65.5</ele><time>2026-04-24T08:11:31Z</time></trkpt><trkpt lat="45.0312607995876" lon="9.59670463325141"><ele>65.0</ele><time>2026-04-24T08:11:34Z</time></trkpt><trkpt lat="45.03130926213419" lon="9.596796211666668"><ele>65.0</ele><time>2026-04-24T08:11:37Z</time></trkpt><trkpt lat="45.031319352301026" lon="9.59689806487576"><ele>65.0</ele><time>2026-04-24T08:11:40Z</time></trkpt><trkpt lat="45.031331454195154" lon="9.597016517750058"><ele>65.0</ele><time>2026-04-24T08:11:43Z</time></trkpt><trkpt lat="45.03165652598233" lon="9.59707266005743"><ele>64.83333333333334</ele><time>2026-04-24T08:11:46Z</time></trkpt><trkpt lat="45.03171896860668" lon="9.597039472857093"><ele>64.66666666666667</ele><time>2026-04-24T08:11:48Z</time></trkpt><trkpt lat="45.03176126000183" lon="9.596972305198111"><ele>64.5</ele><time>2026-04-24T08:11:51Z</time></trkpt><trkpt lat="45.03173925617471" lon="9.596844949098664"><ele>64.33333333333333</ele><time>2026-04-24T08:11:54Z</time></trkpt><trkpt lat="45.03170538535173" lon="9.596723615982494"><ele>64.16666666666666</ele><time>2026-04-24T08:11:57Z</time></trkpt><trkpt lat="45.03168019639359" lon="9.596605364221974"><ele>64.0</ele><time>2026-04-24T08:12:00Z</time></trkpt><trkpt lat="45.03166535802895" lon="9.596477123694328"><ele>64.16666666666666</ele><time>2026-04-24T08:12:03Z</time></trkpt><trkpt lat="45.03164209599252" lon="9.596358454930925"><ele>64.33333333333333</ele><time>2026-04-24T08:12:06Z</time></trkpt><trkpt lat="45.03162504527017" lon="9.596238575861875"><ele>64.5</ele><time>2026-04-24T08:12:09Z</time></trkpt><trkpt lat="45.03160232599566" lon="9.596124141426719"><ele>64.66666666666667</ele><time>2026-04-24T08:12:12Z</time></trkpt><trkpt lat="45.03158071201369" lon="9.59601743005794"><ele>64.83333333333334</ele><time>2026-04-24T08:12:14.999Z</time></trkpt><trkpt lat="45.031522350516575" lon="9.595934732065599"><ele>65.0</ele><time>2026-04-24T08:12:17.999Z</time></trkpt><trkpt lat="45.031448953442116" lon="9.595972107242032"><ele>65.0</ele><time>2026-04-24T08:12:19.999Z</time></trkpt><trkpt lat="45.031436937973105" lon="9.596091150587068"><ele>65.0</ele><time>2026-04-24T08:12:21.999Z</time></trkpt><trkpt lat="45.03144184737797" lon="9.596221883899378"><ele>65.0</ele><time>2026-04-24T08:12:24.999Z</time></trkpt><trkpt lat="45.03142915269209" lon="9.596343094251772"><ele>65.0</ele><time>2026-04-24T08:12:27.999Z</time></trkpt><trkpt lat="45.03137121683072" lon="9.596422315552815"><ele>65.0</ele><time>2026-04-24T08:12:29.999Z</time></trkpt><trkpt lat="45.03134382885637" lon="9.596545843683664"><ele>65.0</ele><time>2026-04-24T08:12:32.999Z</time></trkpt><trkpt lat="45.031354126606914" lon="9.59664531132225"><ele>65.0</ele><time>2026-04-24T08:12:34.999Z</time></trkpt><trkpt lat="45.03136292701427" lon="9.596750307651165"><ele>65.0</ele><time>2026-04-24T08:12:36.999Z</time></trkpt><trkpt lat="45.031374963052635" lon="9.596862206278233"><ele>65.0</ele><time>2026-04-24T08:12:38.999Z</time></trkpt><trkpt lat="45.031386209879045" lon="9.59698973495673"><ele>65.0</ele><time>2026-04-24T08:12:40.999Z</time></trkpt><trkpt lat="45.031398392056396" lon="9.597116422807643"><ele>65.0</ele><time>2026-04-24T08:12:42.999Z</time></trkpt><trkpt lat="45.03138943940582" lon="9.59725902420739"><ele>65.0</ele><time>2026-04-24T08:12:44.999Z</time></trkpt><trkpt lat="45.03137582453415" lon="9.59739037294657"><ele>64.5</ele><time>2026-04-24T08:12:46.999Z</time></trkpt><trkpt lat="45.03138632143738" lon="9.597514094212766"><ele>64.0</ele><time>2026-04-24T08:12:48.999Z</time></trkpt><trkpt lat="45.03138946097393" lon="9.597627994581371"><ele>63.5</ele><time>2026-04-24T08:12:50.999Z</time></trkpt><trkpt lat="45.031398595965086" lon="9.59773830789461"><ele>63.0</ele><time>2026-04-24T08:12:52.999Z</time></trkpt><trkpt lat="45.03140473064684" lon="9.597855392342412"><ele>62.50000000000001</ele><time>2026-04-24T08:12:54.999Z</time></trkpt><trkpt lat="45.03142786695558" lon="9.597980320493656"><ele>62.0</ele><time>2026-04-24T08:12:56.999Z</time></trkpt><trkpt lat="45.03140605183229" lon="9.59812262643653"><ele>62.00000000000001</ele><time>2026-04-24T08:12:58.999Z</time></trkpt><trkpt lat="45.031412877332805" lon="9.598232917799008"><ele>62.0</ele><time>2026-04-24T08:13:00.999Z</time></trkpt><trkpt lat="45.031410730135725" lon="9.598342671814034"><ele>62.0</ele><time>2026-04-24T08:13:02.999Z</time></trkpt><trkpt lat="45.0314139971748" lon="9.598449547136116"><ele>62.0</ele><time>2026-04-24T08:13:04.999Z</time></trkpt><trkpt lat="45.031413290559385" lon="9.598561561074586"><ele>62.00000000000001</ele><time>2026-04-24T08:13:06.999Z</time></trkpt><trkpt lat="45.0314434427545" lon="9.598691207438753"><ele>62.0</ele><time>2026-04-24T08:13:08.999Z</time></trkpt><trkpt lat="45.03131521902828" lon="9.598813025068578"><ele>62.2</ele><time>2026-04-24T08:13:11Z</time></trkpt><trkpt lat="45.031315796490894" lon="9.59893384088114"><ele>62.400000000000006</ele><time>2026-04-24T08:13:13Z</time></trkpt><trkpt lat="45.03131647181826" lon="9.599075131433649"><ele>62.599999999999994</ele><time>2026-04-24T08:13:15Z</time></trkpt><trkpt lat="45.03131713267108" lon="9.599213393914557"><ele>62.8</ele><time>2026-04-24T08:13:17Z</time></trkpt><trkpt lat="45.031317734179154" lon="9.599339240490115"><ele>63.0</ele><time>2026-04-24T08:13:19Z</time></trkpt><trkpt lat="45.0313183387664" lon="9.599465731335346"><ele>63.166666666666664</ele><time>2026-04-24T08:13:21Z</time></trkpt><trkpt lat="45.031318969580646" lon="9.599597709242703"><ele>63.33333333333333</ele><time>2026-04-24T08:13:23Z</time></trkpt><trkpt lat="45.03131956197734" lon="9.599721649685227"><ele>63.5</ele><time>2026-04-24T08:13:25Z</time></trkpt><trkpt lat="45.03132017139365" lon="9.599849150824047"><ele>63.666666666666664</ele><time>2026-04-24T08:13:27Z</time></trkpt><trkpt lat="45.03132073074117" lon="9.599966176511423"><ele>63.83333333333333</ele><time>2026-04-24T08:13:29Z</time></trkpt><trkpt lat="45.031321304206195" lon="9.600086155758717"><ele>64.0</ele><time>2026-04-24T08:13:31Z</time></trkpt><trkpt lat="45.0313218558949" lon="9.600201578786605"><ele>64.0</ele><time>2026-04-24T08:13:33Z</time></trkpt><trkpt lat="45.03132239095633" lon="9.600313522877977"><ele>64.0</ele><time>2026-04-24T08:13:35Z</time></trkpt><trkpt lat="45.03132300166474" lon="9.600441293374171"><ele>64.0</ele><time>2026-04-24T08:13:37Z</time></trkpt><trkpt lat="45.03132364789331" lon="9.60057649593699"><ele>64.0</ele><time>2026-04-24T08:13:39Z</time></trkpt><trkpt lat="45.0313243200864" lon="9.600717130695342"><ele>64.0</ele><time>2026-04-24T08:13:41Z</time></trkpt><trkpt lat="45.03132494231781" lon="9.600847313721657"><ele>64.2</ele><time>2026-04-24T08:13:43Z</time></trkpt><trkpt lat="45.0313255465735" lon="9.600973736194995"><ele>64.4</ele><time>2026-04-24T08:13:45Z</time></trkpt><trkpt lat="45.031326121723374" lon="9.6010940687699"><ele>64.6</ele><time>2026-04-24T08:13:47Z</time></trkpt><trkpt lat="45.03132666431111" lon="9.601218684056283"><ele>64.8</ele><time>2026-04-24T08:13:49Z</time></trkpt><trkpt lat="45.03132711136016" lon="9.601357033068332"><ele>65.0</ele><time>2026-04-24T08:13:51Z</time></trkpt><trkpt lat="45.031314918610825" lon="9.601504905926888"><ele>65.0</ele><time>2026-04-24T08:13:53Z</time></trkpt><trkpt lat="45.031285796732675" lon="9.601659369107374"><ele>65.0</ele><time>2026-04-24T08:13:55Z</time></trkpt><trkpt lat="45.03127540692334" lon="9.601803171902281"><ele>65.0</ele><time>2026-04-24T08:13:57Z</time></trkpt><trkpt lat="45.031290584339835" lon="9.601954394248366"><ele>65.0</ele><time>2026-04-24T08:13:59Z</time></trkpt><trkpt lat="45.0312906657585" lon="9.602101252155697"><ele>65.0</ele><time>2026-04-24T08:14:01Z</time></trkpt><trkpt lat="45.03130463837877" lon="9.602229351678801"><ele>65.2</ele><time>2026-04-24T08:14:03Z</time></trkpt><trkpt lat="45.03132603333926" lon="9.60234438201439"><ele>65.4</ele><time>2026-04-24T08:14:05Z</time></trkpt><trkpt lat="45.031345018112425" lon="9.602480832111041"><ele>65.6</ele><time>2026-04-24T08:14:07Z</time></trkpt><trkpt lat="45.0313447440786" lon="9.602633573499432"><ele>65.8</ele><time>2026-04-24T08:14:09Z</time></trkpt><trkpt lat="45.03132790230862" lon="9.602785097011283"><ele>66.0</ele><time>2026-04-24T08:14:11Z</time></trkpt><trkpt lat="45.03134686793674" lon="9.60293643017444"><ele>66.0</ele><time>2026-04-24T08:14:13Z</time></trkpt><trkpt lat="45.03132618539702" lon="9.603081195514958"><ele>66.0</ele><time>2026-04-24T08:14:15Z</time></trkpt><trkpt lat="45.03133150569596" lon="9.603209457955938"><ele>66.0</ele><time>2026-04-24T08:14:17Z</time></trkpt><trkpt lat="45.03134311832331" lon="9.603344897009672"><ele>66.0</ele><time>2026-04-24T08:14:19Z</time></trkpt><trkpt lat="45.03133390412054" lon="9.603474935606412"><ele>66.0</ele><time>2026-04-24T08:14:21Z</time></trkpt><trkpt lat="45.031334354720094" lon="9.603609705485335"><ele>66.2</ele><time>2026-04-24T08:14:23Z</time></trkpt><trkpt lat="45.031334874724244" lon="9.60376523255251"><ele>66.39999999999999</ele><time>2026-04-24T08:14:25Z</time></trkpt><trkpt lat="45.03133531525756" lon="9.603896991388083"><ele>66.6</ele><time>2026-04-24T08:14:27Z</time></trkpt><trkpt lat="45.03133576075996" lon="9.604030236630738"><ele>66.8</ele><time>2026-04-24T08:14:29Z</time></trkpt><trkpt lat="45.03133625695205" lon="9.604165159925477"><ele>67.0</ele><time>2026-04-24T08:14:31Z</time></trkpt><trkpt lat="45.03134064784315" lon="9.60429159435654"><ele>67.0</ele><time>2026-04-24T08:14:33Z</time></trkpt><trkpt lat="45.03133243954602" lon="9.604422816251116"><ele>67.0</ele><time>2026-04-24T08:14:35Z</time></trkpt><trkpt lat="45.031323271411104" lon="9.60455916313896"><ele>67.0</ele><time>2026-04-24T08:14:37Z</time></trkpt><trkpt lat="45.03132636927583" lon="9.604660090094134"><ele>67.0</ele><time>2026-04-24T08:14:39Z</time></trkpt><trkpt lat="45.031316185466785" lon="9.604767443558606"><ele>67.0</ele><time>2026-04-24T08:14:40.999Z</time></trkpt><trkpt lat="45.0313255131176" lon="9.604869788949651"><ele>67.0</ele><time>2026-04-24T08:14:42.999Z</time></trkpt><trkpt lat="45.0313400139861" lon="9.605005962177943"><ele>67.0</ele><time>2026-04-24T08:14:45.999Z</time></trkpt><trkpt lat="45.03134022923206" lon="9.605117914235736"><ele>67.0</ele><time>2026-04-24T08:14:47.999Z</time></trkpt><trkpt lat="45.031340463849396" lon="9.605239941828827"><ele>67.0</ele><time>2026-04-24T08:14:49.999Z</time></trkpt><trkpt lat="45.031340702033894" lon="9.605363824804801"><ele>67.0</ele><time>2026-04-24T08:14:51.999Z</time></trkpt><trkpt lat="45.03134097550393" lon="9.605494348211902"><ele>67.0</ele><time>2026-04-24T08:14:53.999Z</time></trkpt><trkpt lat="45.03134127911334" lon="9.605636246407546"><ele>67.0</ele><time>2026-04-24T08:14:55.999Z</time></trkpt><trkpt lat="45.03134157821456" lon="9.605776037219592"><ele>67.2</ele><time>2026-04-24T08:14:57.999Z</time></trkpt><trkpt lat="45.03134186530521" lon="9.605910215291532"><ele>67.4</ele><time>2026-04-24T08:14:59.999Z</time></trkpt><trkpt lat="45.03134214473728" lon="9.606040812377199"><ele>67.6</ele><time>2026-04-24T08:15:01.999Z</time></trkpt><trkpt lat="45.03134240232904" lon="9.606161204106785"><ele>67.8</ele><time>2026-04-24T08:15:03.999Z</time></trkpt><trkpt lat="45.03134279848022" lon="9.606310805122156"><ele>68.0</ele><time>2026-04-24T08:15:05.999Z</time></trkpt><trkpt lat="45.03134329157191" lon="9.606420331770932"><ele>67.83333333333334</ele><time>2026-04-24T08:15:07.999Z</time></trkpt><trkpt lat="45.03134381637489" lon="9.606536902763464"><ele>67.66666666666667</ele><time>2026-04-24T08:15:09.999Z</time></trkpt><trkpt lat="45.0313443482143" lon="9.606655036585542"><ele>67.5</ele><time>2026-04-24T08:15:11.999Z</time></trkpt><trkpt lat="45.03134493074641" lon="9.60678443023286"><ele>67.33333333333333</ele><time>2026-04-24T08:15:13.999Z</time></trkpt><trkpt lat="45.03134540998828" lon="9.60689088063065"><ele>67.16666666666666</ele><time>2026-04-24T08:15:15.999Z</time></trkpt><trkpt lat="45.03134594194668" lon="9.60700904061254"><ele>67.0</ele><time>2026-04-24T08:15:18Z</time></trkpt><trkpt lat="45.031346458350086" lon="9.607123745251297"><ele>67.0</ele><time>2026-04-24T08:15:20Z</time></trkpt><trkpt lat="45.0313469904387" lon="9.607241934344975"><ele>67.0</ele><time>2026-04-24T08:15:22Z</time></trkpt><trkpt lat="45.03134750889653" lon="9.607357095529174"><ele>67.0</ele><time>2026-04-24T08:15:24Z</time></trkpt><trkpt lat="45.031348003389716" lon="9.607466934042366"><ele>67.0</ele><time>2026-04-24T08:15:26Z</time></trkpt><trkpt lat="45.031348425797695" lon="9.60757636464313"><ele>67.0</ele><time>2026-04-24T08:15:28Z</time></trkpt><trkpt lat="45.03134866446414" lon="9.607680927193917"><ele>67.0</ele><time>2026-04-24T08:15:30Z</time></trkpt><trkpt lat="45.031348910300416" lon="9.607788630666645"><ele>67.16666666666666</ele><time>2026-04-24T08:15:32Z</time></trkpt><trkpt lat="45.03134912881099" lon="9.607884362675774"><ele>67.33333333333333</ele><time>2026-04-24T08:15:34Z</time></trkpt><trkpt lat="45.031349414562804" lon="9.607984358803542"><ele>67.5</ele><time>2026-04-24T08:15:36Z</time></trkpt><trkpt lat="45.03134981603699" lon="9.60809744092285"><ele>67.66666666666667</ele><time>2026-04-24T08:15:38Z</time></trkpt><trkpt lat="45.03135027576257" lon="9.608226930413101"><ele>67.83333333333334</ele><time>2026-04-24T08:15:40Z</time></trkpt><trkpt lat="45.031350743408055" lon="9.608358650072693"><ele>68.0</ele><time>2026-04-24T08:15:42Z</time></trkpt><trkpt lat="45.0313512089413" lon="9.608489775208602"><ele>68.0</ele><time>2026-04-24T08:15:44Z</time></trkpt><trkpt lat="45.0313516331081" lon="9.608609248969953"><ele>68.0</ele><time>2026-04-24T08:15:46Z</time></trkpt><trkpt lat="45.031352060597115" lon="9.608729658648231"><ele>68.0</ele><time>2026-04-24T08:15:48Z</time></trkpt><trkpt lat="45.03135246982991" lon="9.60884492597709"><ele>68.0</ele><time>2026-04-24T08:15:50Z</time></trkpt><trkpt lat="45.03135286471132" lon="9.608956150535583"><ele>68.0</ele><time>2026-04-24T08:15:52Z</time></trkpt><trkpt lat="45.031353303657546" lon="9.609079787165577"><ele>68.0</ele><time>2026-04-24T08:15:54Z</time></trkpt><trkpt lat="45.031353767231046" lon="9.609210360785159"><ele>67.83333333333334</ele><time>2026-04-24T08:15:56Z</time></trkpt><trkpt lat="45.03135422304136" lon="9.609338746844815"><ele>67.66666666666667</ele><time>2026-04-24T08:15:58Z</time></trkpt><trkpt lat="45.03135464688105" lon="9.609458128360982"><ele>67.5</ele><time>2026-04-24T08:16:00Z</time></trkpt><trkpt lat="45.03135508055033" lon="9.609584494064196"><ele>67.33333333333333</ele><time>2026-04-24T08:16:02Z</time></trkpt><trkpt lat="45.03135549497822" lon="9.609714980934719"><ele>67.16666666666666</ele><time>2026-04-24T08:16:04Z</time></trkpt><trkpt lat="45.031355897591034" lon="9.609841747771538"><ele>67.0</ele><time>2026-04-24T08:16:06Z</time></trkpt><trkpt lat="45.03135635260806" lon="9.609985014144804"><ele>66.8</ele><time>2026-04-24T08:16:08Z</time></trkpt><trkpt lat="45.03135677591562" lon="9.610118296546078"><ele>66.6</ele><time>2026-04-24T08:16:10Z</time></trkpt><trkpt lat="45.03135723464205" lon="9.610262731455595"><ele>66.39999999999999</ele><time>2026-04-24T08:16:12Z</time></trkpt><trkpt lat="45.031357726363886" lon="9.610417554713033"><ele>66.2</ele><time>2026-04-24T08:16:14Z</time></trkpt><trkpt lat="45.03135819934912" lon="9.610566478488662"><ele>66.0</ele><time>2026-04-24T08:16:16Z</time></trkpt><trkpt lat="45.03135868939822" lon="9.610720775800225"><ele>66.0</ele><time>2026-04-24T08:16:18Z</time></trkpt><trkpt lat="45.03135914880545" lon="9.610865422940186"><ele>66.0</ele><time>2026-04-24T08:16:20Z</time></trkpt><trkpt lat="45.03135964988692" lon="9.611023194301456"><ele>66.0</ele><time>2026-04-24T08:16:22Z</time></trkpt><trkpt lat="45.03136012219845" lon="9.611171906038786"><ele>66.0</ele><time>2026-04-24T08:16:24Z</time></trkpt><trkpt lat="45.03136061422942" lon="9.61132682764177"><ele>66.0</ele><time>2026-04-24T08:16:26Z</time></trkpt><trkpt lat="45.03136123094946" lon="9.611485541912687"><ele>66.0</ele><time>2026-04-24T08:16:28Z</time></trkpt><trkpt lat="45.03136183074821" lon="9.611637550353535"><ele>66.0</ele><time>2026-04-24T08:16:30Z</time></trkpt><trkpt lat="45.031362419086875" lon="9.61178665453806"><ele>66.0</ele><time>2026-04-24T08:16:32Z</time></trkpt><trkpt lat="45.031363011288356" lon="9.611936738074599"><ele>66.0</ele><time>2026-04-24T08:16:34Z</time></trkpt><trkpt lat="45.03136359710267" lon="9.612085203035265"><ele>66.0</ele><time>2026-04-24T08:16:36Z</time></trkpt><trkpt lat="45.03136416000287" lon="9.61222786070049"><ele>66.2</ele><time>2026-04-24T08:16:38Z</time></trkpt><trkpt lat="45.03136476593835" lon="9.612381424393138"><ele>66.39999999999999</ele><time>2026-04-24T08:16:40Z</time></trkpt><trkpt lat="45.03136535469634" lon="9.612530634837272"><ele>66.6</ele><time>2026-04-24T08:16:42Z</time></trkpt><trkpt lat="45.03136594094593" lon="9.612679210025322"><ele>66.8</ele><time>2026-04-24T08:16:44Z</time></trkpt><trkpt lat="45.03136653183147" lon="9.612828960109818"><ele>67.0</ele><time>2026-04-24T08:16:46Z</time></trkpt><trkpt lat="45.03136711857689" lon="9.612977660261427"><ele>67.0</ele><time>2026-04-24T08:16:48Z</time></trkpt><trkpt lat="45.0313676629604" lon="9.613114911717172"><ele>67.0</ele><time>2026-04-24T08:16:50Z</time></trkpt><trkpt lat="45.031368243765876" lon="9.613260768074543"><ele>67.0</ele><time>2026-04-24T08:16:51.999Z</time></trkpt><trkpt lat="45.0313688249193" lon="9.613406711399413"><ele>67.0</ele><time>2026-04-24T08:16:53.999Z</time></trkpt><trkpt lat="45.031369415515414" lon="9.613555026686281"><ele>67.0</ele><time>2026-04-24T08:16:55.999Z</time></trkpt><trkpt lat="45.03137001467645" lon="9.61370549237783"><ele>67.0</ele><time>2026-04-24T08:16:57.999Z</time></trkpt><trkpt lat="45.031370609219394" lon="9.613854798456956"><ele>67.0</ele><time>2026-04-24T08:16:59.999Z</time></trkpt><trkpt lat="45.03137123012755" lon="9.614010725905581"><ele>67.0</ele><time>2026-04-24T08:17:01.999Z</time></trkpt><trkpt lat="45.031371862237116" lon="9.614169466010084"><ele>67.0</ele><time>2026-04-24T08:17:03.999Z</time></trkpt><trkpt lat="45.03137245021752" lon="9.614317124063533"><ele>67.0</ele><time>2026-04-24T08:17:05.999Z</time></trkpt><trkpt lat="45.03137305765171" lon="9.614469667904954"><ele>66.8</ele><time>2026-04-24T08:17:07.999Z</time></trkpt><trkpt lat="45.03137365174587" lon="9.614618861499684"><ele>66.6</ele><time>2026-04-24T08:17:09.999Z</time></trkpt><trkpt lat="45.03137423789385" lon="9.614766059365824"><ele>66.39999999999999</ele><time>2026-04-24T08:17:11.999Z</time></trkpt><trkpt lat="45.03137484012185" lon="9.614917295264762"><ele>66.2</ele><time>2026-04-24T08:17:13.999Z</time></trkpt><trkpt lat="45.031375427349765" lon="9.61506476442638"><ele>66.0</ele><time>2026-04-24T08:17:15.999Z</time></trkpt><trkpt lat="45.03137601783351" lon="9.61521305149019"><ele>66.0</ele><time>2026-04-24T08:17:17.999Z</time></trkpt><trkpt lat="45.03137660684381" lon="9.615360967841738"><ele>66.0</ele><time>2026-04-24T08:17:19.999Z</time></trkpt><trkpt lat="45.03137716879811" lon="9.615514143609648"><ele>66.0</ele><time>2026-04-24T08:17:21.999Z</time></trkpt><trkpt lat="45.031377726176935" lon="9.615670297522792"><ele>66.0</ele><time>2026-04-24T08:17:24Z</time></trkpt><trkpt lat="45.03137827056611" lon="9.615822812562168"><ele>66.0</ele><time>2026-04-24T08:17:26Z</time></trkpt><trkpt lat="45.03137882164991" lon="9.615977203121211"><ele>66.0</ele><time>2026-04-24T08:17:28Z</time></trkpt><trkpt lat="45.03137936097375" lon="9.616128298812791"><ele>66.0</ele><time>2026-04-24T08:17:30Z</time></trkpt><trkpt lat="45.031379894573725" lon="9.616277791145885"><ele>66.0</ele><time>2026-04-24T08:17:32Z</time></trkpt><trkpt lat="45.03138044040659" lon="9.616430710298207"><ele>66.0</ele><time>2026-04-24T08:17:34Z</time></trkpt><trkpt lat="45.03138096472315" lon="9.61657760154979"><ele>66.0</ele><time>2026-04-24T08:17:36Z</time></trkpt><trkpt lat="45.03138150181651" lon="9.6167280721291"><ele>66.0</ele><time>2026-04-24T08:17:38Z</time></trkpt><trkpt lat="45.031382034726455" lon="9.616877371303925"><ele>66.0</ele><time>2026-04-24T08:17:40Z</time></trkpt><trkpt lat="45.03138256570016" lon="9.617026127971519"><ele>66.0</ele><time>2026-04-24T08:17:42Z</time></trkpt><trkpt lat="45.03138308657025" lon="9.61717205368903"><ele>66.0</ele><time>2026-04-24T08:17:44Z</time></trkpt><trkpt lat="45.03138361871239" lon="9.617321137522447"><ele>66.0</ele><time>2026-04-24T08:17:46Z</time></trkpt><trkpt lat="45.031384159506224" lon="9.617472645429261"><ele>66.0</ele><time>2026-04-24T08:17:48Z</time></trkpt><trkpt lat="45.03138471638304" lon="9.617628658811526"><ele>66.0</ele><time>2026-04-24T08:17:50Z</time></trkpt><trkpt lat="45.0313852427838" lon="9.617776133889791"><ele>66.0</ele><time>2026-04-24T08:17:52Z</time></trkpt><trkpt lat="45.03138578068995" lon="9.61792683240882"><ele>66.0</ele><time>2026-04-24T08:17:54Z</time></trkpt><trkpt lat="45.0313863192179" lon="9.618077704953812"><ele>66.0</ele><time>2026-04-24T08:17:56Z</time></trkpt><trkpt lat="45.03138685262327" lon="9.618227142839205"><ele>66.0</ele><time>2026-04-24T08:17:58Z</time></trkpt><trkpt lat="45.03138738394723" lon="9.618375997359795"><ele>66.0</ele><time>2026-04-24T08:18:00Z</time></trkpt><trkpt lat="45.03138791145724" lon="9.618523783256652"><ele>66.0</ele><time>2026-04-24T08:18:02Z</time></trkpt><trkpt lat="45.03138843796859" lon="9.618671289320721"><ele>66.0</ele><time>2026-04-24T08:18:04Z</time></trkpt><trkpt lat="45.03138899271404" lon="9.61882670586091"><ele>66.0</ele><time>2026-04-24T08:18:06Z</time></trkpt><trkpt lat="45.031389533191785" lon="9.618978125021501"><ele>66.0</ele><time>2026-04-24T08:18:08Z</time></trkpt><trkpt lat="45.0313900513392" lon="9.619123287924305"><ele>66.0</ele><time>2026-04-24T08:18:10Z</time></trkpt><trkpt lat="45.03139031131406" lon="9.619265491100919"><ele>66.0</ele><time>2026-04-24T08:18:12Z</time></trkpt><trkpt lat="45.03139056967105" lon="9.619407383437306"><ele>66.0</ele><time>2026-04-24T08:18:14Z</time></trkpt><trkpt lat="45.031390858068335" lon="9.619565773920922"><ele>66.0</ele><time>2026-04-24T08:18:16Z</time></trkpt><trkpt lat="45.03139111798628" lon="9.619708524178405"><ele>66.0</ele><time>2026-04-24T08:18:18Z</time></trkpt><trkpt lat="45.03139138070094" lon="9.61985280950406"><ele>66.0</ele><time>2026-04-24T08:18:20Z</time></trkpt><trkpt lat="45.03139164981567" lon="9.620000610625072"><ele>66.0</ele><time>2026-04-24T08:18:22Z</time></trkpt><trkpt lat="45.0313919159735" lon="9.62014678717293"><ele>66.0</ele><time>2026-04-24T08:18:24Z</time></trkpt><trkpt lat="45.0313905971958" lon="9.620291245641132"><ele>66.0</ele><time>2026-04-24T08:18:26Z</time></trkpt><trkpt lat="45.03138899516961" lon="9.620437873059347"><ele>66.6</ele><time>2026-04-24T08:18:28Z</time></trkpt><trkpt lat="45.03138738093615" lon="9.62058561781201"><ele>67.19999999999999</ele><time>2026-04-24T08:18:30Z</time></trkpt><trkpt lat="45.031385833579385" lon="9.620723488315813"><ele>67.80000000000001</ele><time>2026-04-24T08:18:32Z</time></trkpt><trkpt lat="45.03138402621251" lon="9.620859227259542"><ele>68.4</ele><time>2026-04-24T08:18:34Z</time></trkpt><trkpt lat="45.03138056302622" lon="9.621003450795202"><ele>69.0</ele><time>2026-04-24T08:18:36Z</time></trkpt><trkpt lat="45.03137709393043" lon="9.62114792028939"><ele>69.0</ele><time>2026-04-24T08:18:38Z</time></trkpt><trkpt lat="45.031373980815665" lon="9.621290757449042"><ele>69.0</ele><time>2026-04-24T08:18:40Z</time></trkpt><trkpt lat="45.03137099073494" lon="9.621429462028466"><ele>69.0</ele><time>2026-04-24T08:18:42Z</time></trkpt><trkpt lat="45.031368083341484" lon="9.621575254139854"><ele>69.0</ele><time>2026-04-24T08:18:44Z</time></trkpt><trkpt lat="45.03136674717399" lon="9.621721458934957"><ele>69.0</ele><time>2026-04-24T08:18:45.999Z</time></trkpt><trkpt lat="45.031367074544235" lon="9.621880709059598"><ele>68.8</ele><time>2026-04-24T08:18:47.999Z</time></trkpt><trkpt lat="45.03136802606454" lon="9.622033636662303"><ele>68.60000000000001</ele><time>2026-04-24T08:18:49.999Z</time></trkpt><trkpt lat="45.031369013107295" lon="9.622192273368004"><ele>68.4</ele><time>2026-04-24T08:18:51.999Z</time></trkpt><trkpt lat="45.03136995655646" lon="9.622343903945842"><ele>68.2</ele><time>2026-04-24T08:18:53.999Z</time></trkpt><trkpt lat="45.03137087654519" lon="9.622491763897209"><ele>68.0</ele><time>2026-04-24T08:18:55.999Z</time></trkpt><trkpt lat="45.0313717592677" lon="9.62263363427752"><ele>68.0</ele><time>2026-04-24T08:18:57.999Z</time></trkpt><trkpt lat="45.031372618477" lon="9.622771722641374"><ele>68.0</ele><time>2026-04-24T08:18:59.999Z</time></trkpt><trkpt lat="45.03137400505268" lon="9.622906292412694"><ele>68.0</ele><time>2026-04-24T08:19:01.999Z</time></trkpt><trkpt lat="45.031375362208394" lon="9.62303721615195"><ele>68.0</ele><time>2026-04-24T08:19:03.999Z</time></trkpt><trkpt lat="45.031377241406126" lon="9.62315857286564"><ele>68.0</ele><time>2026-04-24T08:19:05.999Z</time></trkpt><trkpt lat="45.0313791177929" lon="9.623279746449537"><ele>68.0</ele><time>2026-04-24T08:19:07.999Z</time></trkpt><trkpt lat="45.03138240257579" lon="9.623403424173134"><ele>68.0</ele><time>2026-04-24T08:19:09.999Z</time></trkpt><trkpt lat="45.0313856391437" lon="9.623535953054477"><ele>68.0</ele><time>2026-04-24T08:19:11.999Z</time></trkpt><trkpt lat="45.03139043193812" lon="9.623678564184617"><ele>68.0</ele><time>2026-04-24T08:19:13.999Z</time></trkpt><trkpt lat="45.03139600040858" lon="9.6238261772465"><ele>68.0</ele><time>2026-04-24T08:19:15.999Z</time></trkpt><trkpt lat="45.031401656674824" lon="9.62396181891305"><ele>68.0</ele><time>2026-04-24T08:19:17.999Z</time></trkpt><trkpt lat="45.031407872010035" lon="9.624097027718573"><ele>68.0</ele><time>2026-04-24T08:19:19.999Z</time></trkpt><trkpt lat="45.03141405691821" lon="9.624221466372278"><ele>68.0</ele><time>2026-04-24T08:19:21.999Z</time></trkpt><trkpt lat="45.03142016770841" lon="9.624335635586169"><ele>68.0</ele><time>2026-04-24T08:19:23.999Z</time></trkpt><trkpt lat="45.03142851551746" lon="9.624459424769995"><ele>68.0</ele><time>2026-04-24T08:19:25.999Z</time></trkpt><trkpt lat="45.03143768301412" lon="9.624588324078637"><ele>68.0</ele><time>2026-04-24T08:19:27.999Z</time></trkpt><trkpt lat="45.03144807201277" lon="9.624723827425832"><ele>68.0</ele><time>2026-04-24T08:19:30Z</time></trkpt><trkpt lat="45.03145854623157" lon="9.62486044230385"><ele>68.0</ele><time>2026-04-24T08:19:32Z</time></trkpt><trkpt lat="45.03147768502003" lon="9.625025691675614"><ele>68.0</ele><time>2026-04-24T08:19:34Z</time></trkpt><trkpt lat="45.03149988949447" lon="9.625173699193748"><ele>68.0</ele><time>2026-04-24T08:19:36Z</time></trkpt><trkpt lat="45.03151502136516" lon="9.625304828070933"><ele>68.0</ele><time>2026-04-24T08:19:38Z</time></trkpt><trkpt lat="45.031530606139704" lon="9.625440307162874"><ele>68.0</ele><time>2026-04-24T08:19:40Z</time></trkpt><trkpt lat="45.031548170025154" lon="9.62557213362956"><ele>68.0</ele><time>2026-04-24T08:19:42Z</time></trkpt><trkpt lat="45.031566412159485" lon="9.625697249563448"><ele>68.0</ele><time>2026-04-24T08:19:44Z</time></trkpt><trkpt lat="45.03158375998243" lon="9.625815940551332"><ele>68.0</ele><time>2026-04-24T08:19:46Z</time></trkpt><trkpt lat="45.031600465190806" lon="9.625930234924263"><ele>68.0</ele><time>2026-04-24T08:19:48Z</time></trkpt><trkpt lat="45.031615444670315" lon="9.626030001443981"><ele>68.0</ele><time>2026-04-24T08:19:50Z</time></trkpt><trkpt lat="45.03163295878278" lon="9.626143822169954"><ele>67.6</ele><time>2026-04-24T08:19:52Z</time></trkpt><trkpt lat="45.031655150302804" lon="9.626284289264275"><ele>67.19999999999999</ele><time>2026-04-24T08:19:54Z</time></trkpt><trkpt lat="45.03167779170459" lon="9.626416983780453"><ele>66.8</ele><time>2026-04-24T08:19:56Z</time></trkpt><trkpt lat="45.03170154931509" lon="9.62655622011144"><ele>66.39999999999999</ele><time>2026-04-24T08:19:58Z</time></trkpt><trkpt lat="45.03172557643352" lon="9.626695567147545"><ele>66.0</ele><time>2026-04-24T08:20:00Z</time></trkpt><trkpt lat="45.03174935385888" lon="9.626830579021012"><ele>66.0</ele><time>2026-04-24T08:20:02Z</time></trkpt><trkpt lat="45.03177221813594" lon="9.6269604069759"><ele>66.0</ele><time>2026-04-24T08:20:04Z</time></trkpt><trkpt lat="45.03179720406423" lon="9.62709355930257"><ele>66.0</ele><time>2026-04-24T08:20:06Z</time></trkpt><trkpt lat="45.03181792419686" lon="9.627204624320722"><ele>66.0</ele><time>2026-04-24T08:20:08Z</time></trkpt><trkpt lat="45.03183925113191" lon="9.627312833412107"><ele>66.0</ele><time>2026-04-24T08:20:10Z</time></trkpt><trkpt lat="45.03186345668766" lon="9.627435580256833"><ele>66.0</ele><time>2026-04-24T08:20:12Z</time></trkpt><trkpt lat="45.03189055963662" lon="9.627566362279104"><ele>66.2</ele><time>2026-04-24T08:20:14Z</time></trkpt><trkpt lat="45.031919636315564" lon="9.627702484855378"><ele>66.39999999999999</ele><time>2026-04-24T08:20:16Z</time></trkpt><trkpt lat="45.031950963064574" lon="9.627841831753859"><ele>66.6</ele><time>2026-04-24T08:20:18Z</time></trkpt><trkpt lat="45.03198092553285" lon="9.627963039295933"><ele>66.8</ele><time>2026-04-24T08:20:20Z</time></trkpt><trkpt lat="45.03201039319198" lon="9.628082244811496"><ele>67.0</ele><time>2026-04-24T08:20:22Z</time></trkpt><trkpt lat="45.03204000451957" lon="9.628202031869522"><ele>67.0</ele><time>2026-04-24T08:20:24Z</time></trkpt><trkpt lat="45.03207242164309" lon="9.628333169356413"><ele>67.0</ele><time>2026-04-24T08:20:26Z</time></trkpt><trkpt lat="45.032106682869134" lon="9.628471024644249"><ele>67.0</ele><time>2026-04-24T08:20:28Z</time></trkpt><trkpt lat="45.03214318587773" lon="9.62860916656663"><ele>67.0</ele><time>2026-04-24T08:20:30Z</time></trkpt><trkpt lat="45.03218433862788" lon="9.628757022104772"><ele>67.0</ele><time>2026-04-24T08:20:32Z</time></trkpt><trkpt lat="45.03222405029643" lon="9.628897147003457"><ele>67.2</ele><time>2026-04-24T08:20:34Z</time></trkpt><trkpt lat="45.032260323233864" lon="9.629022005114214"><ele>67.4</ele><time>2026-04-24T08:20:36Z</time></trkpt><trkpt lat="45.032298274493286" lon="9.629151778938397"><ele>67.6</ele><time>2026-04-24T08:20:38Z</time></trkpt><trkpt lat="45.032333321174356" lon="9.629268798248548"><ele>67.8</ele><time>2026-04-24T08:20:40Z</time></trkpt><trkpt lat="45.03237059380017" lon="9.629391454009214"><ele>68.0</ele><time>2026-04-24T08:20:42Z</time></trkpt><trkpt lat="45.03241032426419" lon="9.629516568170054"><ele>68.2</ele><time>2026-04-24T08:20:44Z</time></trkpt><trkpt lat="45.032452566991566" lon="9.62964701261597"><ele>68.4</ele><time>2026-04-24T08:20:46Z</time></trkpt><trkpt lat="45.03249603687306" lon="9.62977665828764"><ele>68.60000000000001</ele><time>2026-04-24T08:20:48Z</time></trkpt><trkpt lat="45.032539541519334" lon="9.62990640755982"><ele>68.8</ele><time>2026-04-24T08:20:50Z</time></trkpt><trkpt lat="45.03257889888797" lon="9.630021281947753"><ele>69.0</ele><time>2026-04-24T08:20:52Z</time></trkpt><trkpt lat="45.03262116642365" lon="9.630143546337646"><ele>68.60000000000001</ele><time>2026-04-24T08:20:54Z</time></trkpt><trkpt lat="45.03266972188778" lon="9.630282992827878"><ele>68.2</ele><time>2026-04-24T08:20:56Z</time></trkpt><trkpt lat="45.03271119145633" lon="9.63039933462255"><ele>67.80000000000001</ele><time>2026-04-24T08:20:58Z</time></trkpt><trkpt lat="45.03274911573121" lon="9.630505729847961"><ele>67.4</ele><time>2026-04-24T08:20:59.999Z</time></trkpt><trkpt lat="45.03278708395163" lon="9.630612248264683"><ele>67.0</ele><time>2026-04-24T08:21:01.999Z</time></trkpt><trkpt lat="45.03282696626223" lon="9.63072363347457"><ele>67.0</ele><time>2026-04-24T08:21:03.999Z</time></trkpt><trkpt lat="45.03287198800534" lon="9.63084795497648"><ele>67.0</ele><time>2026-04-24T08:21:05.999Z</time></trkpt><trkpt lat="45.03291717833565" lon="9.630972741740646"><ele>67.0</ele><time>2026-04-24T08:21:07.999Z</time></trkpt><trkpt lat="45.03295734445091" lon="9.63108365523047"><ele>67.0</ele><time>2026-04-24T08:21:09.999Z</time></trkpt><trkpt lat="45.0330038387568" lon="9.631212042767036"><ele>67.0</ele><time>2026-04-24T08:21:11.999Z</time></trkpt><trkpt lat="45.033050201982284" lon="9.631340068478806"><ele>67.0</ele><time>2026-04-24T08:21:13.999Z</time></trkpt><trkpt lat="45.03309790781522" lon="9.631471801681169"><ele>67.0</ele><time>2026-04-24T08:21:15.999Z</time></trkpt><trkpt lat="45.03314403969488" lon="9.631599188450584"><ele>67.0</ele><time>2026-04-24T08:21:17.999Z</time></trkpt><trkpt lat="45.03319233287952" lon="9.631732543549198"><ele>67.0</ele><time>2026-04-24T08:21:19.999Z</time></trkpt><trkpt lat="45.03323584995246" lon="9.63185270999235"><ele>67.0</ele><time>2026-04-24T08:21:21.999Z</time></trkpt><trkpt lat="45.03327496456377" lon="9.63196071938308"><ele>66.8</ele><time>2026-04-24T08:21:23.999Z</time></trkpt><trkpt lat="45.033310932948865" lon="9.632060041407055"><ele>66.6</ele><time>2026-04-24T08:21:25.999Z</time></trkpt><trkpt lat="45.03335350000387" lon="9.632177793275677"><ele>66.39999999999999</ele><time>2026-04-24T08:21:27.999Z</time></trkpt><trkpt lat="45.03339673992035" lon="9.632298102187738"><ele>66.2</ele><time>2026-04-24T08:21:29.999Z</time></trkpt><trkpt lat="45.03344145865049" lon="9.632422525506207"><ele>66.0</ele><time>2026-04-24T08:21:31.999Z</time></trkpt><trkpt lat="45.033485406047426" lon="9.632544803057876"><ele>66.0</ele><time>2026-04-24T08:21:33.999Z</time></trkpt><trkpt lat="45.03352741195413" lon="9.632661678643403"><ele>66.0</ele><time>2026-04-24T08:21:36Z</time></trkpt><trkpt lat="45.033566829819115" lon="9.63277135330886"><ele>66.0</ele><time>2026-04-24T08:21:38Z</time></trkpt><trkpt lat="45.03360941833716" lon="9.632889849974255"><ele>66.0</ele><time>2026-04-24T08:21:40Z</time></trkpt><trkpt lat="45.033647985226395" lon="9.63299715660673"><ele>66.0</ele><time>2026-04-24T08:21:42Z</time></trkpt><trkpt lat="45.03368654335596" lon="9.633104439160471"><ele>66.0</ele><time>2026-04-24T08:21:44Z</time></trkpt><trkpt lat="45.03372637708112" lon="9.633215270736022"><ele>65.8</ele><time>2026-04-24T08:21:46Z</time></trkpt><trkpt lat="45.033770355739456" lon="9.63333763525727"><ele>65.6</ele><time>2026-04-24T08:21:48Z</time></trkpt><trkpt lat="45.03381545477844" lon="9.633464370161002"><ele>65.4</ele><time>2026-04-24T08:21:50Z</time></trkpt><trkpt lat="45.03385547991945" lon="9.63357815372789"><ele>65.2</ele><time>2026-04-24T08:21:52Z</time></trkpt><trkpt lat="45.03389744247842" lon="9.633697021058135"><ele>65.0</ele><time>2026-04-24T08:21:54Z</time></trkpt><trkpt lat="45.03393763886842" lon="9.633807117492374"><ele>65.0</ele><time>2026-04-24T08:21:56Z</time></trkpt><trkpt lat="45.03397440170284" lon="9.633907404476057"><ele>65.0</ele><time>2026-04-24T08:21:58Z</time></trkpt><trkpt lat="45.03402184550593" lon="9.634027411328267"><ele>65.0</ele><time>2026-04-24T08:22:00Z</time></trkpt><trkpt lat="45.03406971921849" lon="9.634147968538684"><ele>65.0</ele><time>2026-04-24T08:22:02Z</time></trkpt><trkpt lat="45.034118084420584" lon="9.634271159754784"><ele>65.0</ele><time>2026-04-24T08:22:04Z</time></trkpt><trkpt lat="45.03415813368672" lon="9.634376603149814"><ele>65.4</ele><time>2026-04-24T08:22:06Z</time></trkpt><trkpt lat="45.034195150118855" lon="9.634475424818012"><ele>65.8</ele><time>2026-04-24T08:22:08Z</time></trkpt><trkpt lat="45.034229847427895" lon="9.634570043843135"><ele>66.2</ele><time>2026-04-24T08:22:10Z</time></trkpt><trkpt lat="45.03426704497834" lon="9.634671480763712"><ele>66.6</ele><time>2026-04-24T08:22:12Z</time></trkpt><trkpt lat="45.03431048312658" lon="9.634789935991522"><ele>67.0</ele><time>2026-04-24T08:22:14Z</time></trkpt><trkpt lat="45.034515045435214" lon="9.634785709215329"><ele>67.0</ele><time>2026-04-24T08:22:16Z</time></trkpt><trkpt lat="45.0345649211487" lon="9.63490319117131"><ele>67.0</ele><time>2026-04-24T08:22:18Z</time></trkpt><trkpt lat="45.034598889731825" lon="9.63501777671214"><ele>67.0</ele><time>2026-04-24T08:22:20Z</time></trkpt><trkpt lat="45.03464445043571" lon="9.635155740089232"><ele>67.0</ele><time>2026-04-24T08:22:22Z</time></trkpt><trkpt lat="45.034510550669005" lon="9.635339326114787"><ele>67.0</ele><time>2026-04-24T08:22:23Z</time></trkpt><trkpt lat="45.034696979107004" lon="9.63528905208962"><ele>67.0</ele><time>2026-04-24T08:22:24Z</time></trkpt><trkpt lat="45.034743021268014" lon="9.635412805996673"><ele>67.0</ele><time>2026-04-24T08:22:26Z</time></trkpt><trkpt lat="45.03477760282958" lon="9.635532082627405"><ele>67.0</ele><time>2026-04-24T08:22:28Z</time></trkpt><trkpt lat="45.03481247083559" lon="9.63564070968723"><ele>67.0</ele><time>2026-04-24T08:22:30Z</time></trkpt><trkpt lat="45.034858807074656" lon="9.635748947475536"><ele>67.0</ele><time>2026-04-24T08:22:32Z</time></trkpt><trkpt lat="45.034895963909236" lon="9.635872180336122"><ele>67.0</ele><time>2026-04-24T08:22:34Z</time></trkpt><trkpt lat="45.03494488371471" lon="9.635994028275718"><ele>67.0</ele><time>2026-04-24T08:22:36Z</time></trkpt><trkpt lat="45.034995268102065" lon="9.636123328596648"><ele>67.0</ele><time>2026-04-24T08:22:38Z</time></trkpt><trkpt lat="45.03503979544397" lon="9.636259225340924"><ele>67.0</ele><time>2026-04-24T08:22:40Z</time></trkpt><trkpt lat="45.03508439866459" lon="9.636386542237345"><ele>67.0</ele><time>2026-04-24T08:22:42Z</time></trkpt><trkpt lat="45.035135519989886" lon="9.636510744567614"><ele>67.0</ele><time>2026-04-24T08:22:44Z</time></trkpt><trkpt lat="45.03518766601243" lon="9.636647498023377"><ele>67.0</ele><time>2026-04-24T08:22:46Z</time></trkpt><trkpt lat="45.03523536498854" lon="9.636771553696109"><ele>67.0</ele><time>2026-04-24T08:22:48Z</time></trkpt><trkpt lat="45.03528331953605" lon="9.63688775133179"><ele>67.0</ele><time>2026-04-24T08:22:50Z</time></trkpt><trkpt lat="45.03532354054855" lon="9.637008927036327"><ele>67.0</ele><time>2026-04-24T08:22:52Z</time></trkpt><trkpt lat="45.03536697546328" lon="9.63712879499065"><ele>67.0</ele><time>2026-04-24T08:22:53.999Z</time></trkpt><trkpt lat="45.03540470935715" lon="9.637236382841545"><ele>67.0</ele><time>2026-04-24T08:22:55.999Z</time></trkpt><trkpt lat="45.03544537957917" lon="9.637352679779575"><ele>67.0</ele><time>2026-04-24T08:22:57.999Z</time></trkpt><trkpt lat="45.03549930152937" lon="9.637488536166863"><ele>67.0</ele><time>2026-04-24T08:22:59.999Z</time></trkpt><trkpt lat="45.035551355576544" lon="9.637624679664262"><ele>67.0</ele><time>2026-04-24T08:23:01.999Z</time></trkpt><trkpt lat="45.03559786959418" lon="9.637756014300551"><ele>67.0</ele><time>2026-04-24T08:23:03.999Z</time></trkpt><trkpt lat="45.03564594621265" lon="9.637882435160758"><ele>67.0</ele><time>2026-04-24T08:23:05.999Z</time></trkpt><trkpt lat="45.03569195243879" lon="9.638008192609027"><ele>67.0</ele><time>2026-04-24T08:23:07.999Z</time></trkpt><trkpt lat="45.035733615530596" lon="9.638149451164526"><ele>67.0</ele><time>2026-04-24T08:23:09.999Z</time></trkpt><trkpt lat="45.03578753012299" lon="9.638282063523327"><ele>67.0</ele><time>2026-04-24T08:23:11.999Z</time></trkpt><trkpt lat="45.035839277554295" lon="9.63842316935754"><ele>67.0</ele><time>2026-04-24T08:23:13.999Z</time></trkpt><trkpt lat="45.03589149513342" lon="9.638559228135183"><ele>67.0</ele><time>2026-04-24T08:23:15.999Z</time></trkpt><trkpt lat="45.03593648055494" lon="9.638697402246775"><ele>67.0</ele><time>2026-04-24T08:23:17.999Z</time></trkpt><trkpt lat="45.035984061395474" lon="9.638835061516147"><ele>66.8</ele><time>2026-04-24T08:23:19.999Z</time></trkpt><trkpt lat="45.03603191390665" lon="9.638977468731797"><ele>66.6</ele><time>2026-04-24T08:23:21.999Z</time></trkpt><trkpt lat="45.036083969256694" lon="9.63912909854479"><ele>66.39999999999999</ele><time>2026-04-24T08:23:23.999Z</time></trkpt><trkpt lat="45.03613451895968" lon="9.639270476976717"><ele>66.2</ele><time>2026-04-24T08:23:25.999Z</time></trkpt><trkpt lat="45.03617530684444" lon="9.63939393160424"><ele>66.0</ele><time>2026-04-24T08:23:27.999Z</time></trkpt><trkpt lat="45.03621568614611" lon="9.639510707395177"><ele>65.8</ele><time>2026-04-24T08:23:29.999Z</time></trkpt><trkpt lat="45.03625792009149" lon="9.639633992346669"><ele>65.6</ele><time>2026-04-24T08:23:31.999Z</time></trkpt><trkpt lat="45.03630977003098" lon="9.639765675976054"><ele>65.4</ele><time>2026-04-24T08:23:33.999Z</time></trkpt><trkpt lat="45.036368728206924" lon="9.639907493403484"><ele>65.2</ele><time>2026-04-24T08:23:35.999Z</time></trkpt><trkpt lat="45.03642542604759" lon="9.640061232378438"><ele>65.0</ele><time>2026-04-24T08:23:37.999Z</time></trkpt><trkpt lat="45.03646763410671" lon="9.640203356664882"><ele>65.2</ele><time>2026-04-24T08:23:39.999Z</time></trkpt><trkpt lat="45.03651612662373" lon="9.640341450316864"><ele>65.4</ele><time>2026-04-24T08:23:42Z</time></trkpt><trkpt lat="45.03656302894315" lon="9.640480757380779"><ele>65.6</ele><time>2026-04-24T08:23:44Z</time></trkpt><trkpt lat="45.03660965697948" lon="9.640605826783865"><ele>65.8</ele><time>2026-04-24T08:23:46Z</time></trkpt><trkpt lat="45.0366444962326" lon="9.640706020946649"><ele>66.0</ele><time>2026-04-24T08:23:48Z</time></trkpt><trkpt lat="45.03668750325697" lon="9.640830350514905"><ele>66.39999999999999</ele><time>2026-04-24T08:23:51Z</time></trkpt><trkpt lat="45.03672020081858" lon="9.640927042946716"><ele>66.8</ele><time>2026-04-24T08:23:53Z</time></trkpt><trkpt lat="45.03678582710374" lon="9.64105900206614"><ele>67.19999999999999</ele><time>2026-04-24T08:23:55Z</time></trkpt><trkpt lat="45.03681485722998" lon="9.64114335272687"><ele>67.6</ele><time>2026-04-24T08:23:56Z</time></trkpt><trkpt lat="45.036859722144065" lon="9.641279633957957"><ele>68.0</ele><time>2026-04-24T08:23:58Z</time></trkpt><trkpt lat="45.036903594063396" lon="9.641394750986278"><ele>68.0</ele><time>2026-04-24T08:24:00Z</time></trkpt><trkpt lat="45.03694729535585" lon="9.641529580431799"><ele>68.0</ele><time>2026-04-24T08:24:02Z</time></trkpt><trkpt lat="45.03699020831461" lon="9.641655770377483"><ele>68.0</ele><time>2026-04-24T08:24:04Z</time></trkpt><trkpt lat="45.0370368612842" lon="9.641790613302623"><ele>68.0</ele><time>2026-04-24T08:24:06Z</time></trkpt><trkpt lat="45.0370874860986" lon="9.641926704410006"><ele>68.0</ele><time>2026-04-24T08:24:08Z</time></trkpt><trkpt lat="45.03712730190408" lon="9.642063757041313"><ele>67.6</ele><time>2026-04-24T08:24:10Z</time></trkpt><trkpt lat="45.03716640986293" lon="9.642178479836247"><ele>67.19999999999999</ele><time>2026-04-24T08:24:12Z</time></trkpt><trkpt lat="45.037193389188886" lon="9.642296011762813"><ele>66.8</ele><time>2026-04-24T08:24:14Z</time></trkpt><trkpt lat="45.037260202980875" lon="9.642401470146421"><ele>66.39999999999999</ele><time>2026-04-24T08:24:16Z</time></trkpt><trkpt lat="45.03729557898524" lon="9.64253445981519"><ele>66.0</ele><time>2026-04-24T08:24:18Z</time></trkpt><trkpt lat="45.03734224939965" lon="9.642659866553394"><ele>66.0</ele><time>2026-04-24T08:24:20Z</time></trkpt><trkpt lat="45.03738898990682" lon="9.642788290579643"><ele>66.0</ele><time>2026-04-24T08:24:22Z</time></trkpt><trkpt lat="45.03744104462761" lon="9.642933888923418"><ele>66.0</ele><time>2026-04-24T08:24:24Z</time></trkpt><trkpt lat="45.03748573572343" lon="9.643063280848407"><ele>66.0</ele><time>2026-04-24T08:24:26Z</time></trkpt><trkpt lat="45.03751496811538" lon="9.64317482846363"><ele>66.0</ele><time>2026-04-24T08:24:28Z</time></trkpt><trkpt lat="45.037567576484825" lon="9.643274826421774"><ele>66.2</ele><time>2026-04-24T08:24:30Z</time></trkpt><trkpt lat="45.03760427864409" lon="9.643379063255598"><ele>66.39999999999999</ele><time>2026-04-24T08:24:32Z</time></trkpt><trkpt lat="45.03764814733299" lon="9.64353717277454"><ele>66.6</ele><time>2026-04-24T08:24:34Z</time></trkpt><trkpt lat="45.03768694476553" lon="9.643658479628002"><ele>66.8</ele><time>2026-04-24T08:24:36Z</time></trkpt><trkpt lat="45.03773724997805" lon="9.643770411890772"><ele>67.0</ele><time>2026-04-24T08:24:38Z</time></trkpt><trkpt lat="45.03779937019026" lon="9.643925151128466"><ele>67.0</ele><time>2026-04-24T08:24:40Z</time></trkpt><trkpt lat="45.03784355127961" lon="9.64407563649947"><ele>67.0</ele><time>2026-04-24T08:24:42Z</time></trkpt><trkpt lat="45.03789556686205" lon="9.644218001096075"><ele>67.0</ele><time>2026-04-24T08:24:44Z</time></trkpt><trkpt lat="45.03794252747632" lon="9.644350473839236"><ele>67.0</ele><time>2026-04-24T08:24:46Z</time></trkpt><trkpt lat="45.03797680223226" lon="9.644489685674273"><ele>67.0</ele><time>2026-04-24T08:24:48Z</time></trkpt><trkpt lat="45.03803666924336" lon="9.644607088248469"><ele>67.0</ele><time>2026-04-24T08:24:50Z</time></trkpt><trkpt lat="45.038066156613894" lon="9.644740437017868"><ele>67.0</ele><time>2026-04-24T08:24:52Z</time></trkpt><trkpt lat="45.03813246157471" lon="9.6448811078809"><ele>67.0</ele><time>2026-04-24T08:24:54Z</time></trkpt><trkpt lat="45.038159330023355" lon="9.644982245332805"><ele>67.0</ele><time>2026-04-24T08:24:55.999Z</time></trkpt><trkpt lat="45.03819805642634" lon="9.645096074127474"><ele>67.0</ele><time>2026-04-24T08:24:57.999Z</time></trkpt><trkpt lat="45.03823091152459" lon="9.6452004684635"><ele>67.33333333333333</ele><time>2026-04-24T08:24:59.999Z</time></trkpt><trkpt lat="45.038271616644735" lon="9.645300122354502"><ele>67.66666666666666</ele><time>2026-04-24T08:25:01.999Z</time></trkpt><trkpt lat="45.03830563282306" lon="9.645398560681192"><ele>68.0</ele><time>2026-04-24T08:25:03.999Z</time></trkpt><trkpt lat="45.03834408500541" lon="9.645509300736167"><ele>68.33333333333333</ele><time>2026-04-24T08:25:05.999Z</time></trkpt><trkpt lat="45.03838366663324" lon="9.645609404222665"><ele>68.66666666666667</ele><time>2026-04-24T08:25:07.999Z</time></trkpt><trkpt lat="45.03841336110388" lon="9.645709437749789"><ele>69.0</ele><time>2026-04-24T08:25:09.999Z</time></trkpt><trkpt lat="45.03844408001082" lon="9.645805480925883"><ele>68.33333333333333</ele><time>2026-04-24T08:25:11.999Z</time></trkpt><trkpt lat="45.03847471740335" lon="9.645904890789488"><ele>67.66666666666667</ele><time>2026-04-24T08:25:13.999Z</time></trkpt><trkpt lat="45.03851244694128" lon="9.6460113049608"><ele>67.0</ele><time>2026-04-24T08:25:15.999Z</time></trkpt><trkpt lat="45.03855703169532" lon="9.646132415893577"><ele>66.33333333333334</ele><time>2026-04-24T08:25:17.999Z</time></trkpt><trkpt lat="45.03859126444031" lon="9.646245370398534"><ele>65.66666666666667</ele><time>2026-04-24T08:25:19.999Z</time></trkpt><trkpt lat="45.038633547788834" lon="9.646364411297467"><ele>65.0</ele><time>2026-04-24T08:25:21.999Z</time></trkpt><trkpt lat="45.03866445381134" lon="9.646459131624773"><ele>64.83333333333334</ele><time>2026-04-24T08:25:23.999Z</time></trkpt><trkpt lat="45.03869455234529" lon="9.646553647539866"><ele>64.66666666666667</ele><time>2026-04-24T08:25:25.999Z</time></trkpt><trkpt lat="45.038726923040045" lon="9.646650055728433"><ele>64.5</ele><time>2026-04-24T08:25:27.999Z</time></trkpt><trkpt lat="45.03876747614045" lon="9.646739524133803"><ele>64.33333333333333</ele><time>2026-04-24T08:25:29.999Z</time></trkpt><trkpt lat="45.03879534725861" lon="9.646834945409536"><ele>64.16666666666666</ele><time>2026-04-24T08:25:31.999Z</time></trkpt><trkpt lat="45.038833010524" lon="9.646934464358543"><ele>64.0</ele><time>2026-04-24T08:25:33.999Z</time></trkpt><trkpt lat="45.038870907493965" lon="9.647047158671166"><ele>64.33333333333333</ele><time>2026-04-24T08:25:35.999Z</time></trkpt><trkpt lat="45.038919225786096" lon="9.647161132687039"><ele>64.66666666666666</ele><time>2026-04-24T08:25:37.999Z</time></trkpt><trkpt lat="45.038961052709915" lon="9.647263286602612"><ele>65.0</ele><time>2026-04-24T08:25:39.999Z</time></trkpt><trkpt lat="45.038995396044214" lon="9.647373751424743"><ele>65.33333333333333</ele><time>2026-04-24T08:25:41.999Z</time></trkpt><trkpt lat="45.03902904021358" lon="9.64747595877194"><ele>65.66666666666667</ele><time>2026-04-24T08:25:43.999Z</time></trkpt><trkpt lat="45.03907343817724" lon="9.647596360783739"><ele>66.0</ele><time>2026-04-24T08:25:45.999Z</time></trkpt><trkpt lat="45.03911853539556" lon="9.64772736762433"><ele>65.0</ele><time>2026-04-24T08:25:48Z</time></trkpt><trkpt lat="45.0391675085077" lon="9.647864950636894"><ele>63.99999999999999</ele><time>2026-04-24T08:25:50Z</time></trkpt><trkpt lat="45.039215256539705" lon="9.647994669755393"><ele>62.99999999999999</ele><time>2026-04-24T08:25:52Z</time></trkpt><trkpt lat="45.03926011841813" lon="9.648117280517335"><ele>62.0</ele><time>2026-04-24T08:25:54Z</time></trkpt><trkpt lat="45.039302482704905" lon="9.64823373790486"><ele>61.0</ele><time>2026-04-24T08:25:56Z</time></trkpt><trkpt lat="45.03934193849124" lon="9.648348292724533"><ele>60.99999999999999</ele><time>2026-04-24T08:25:58Z</time></trkpt><trkpt lat="45.03937942674661" lon="9.64846099885499"><ele>61.0</ele><time>2026-04-24T08:26:00Z</time></trkpt><trkpt lat="45.039424911855434" lon="9.648554639486182"><ele>61.0</ele><time>2026-04-24T08:26:02Z</time></trkpt><trkpt lat="45.03946158432556" lon="9.648661763784323"><ele>61.0</ele><time>2026-04-24T08:26:04Z</time></trkpt><trkpt lat="45.03949499860647" lon="9.64875937049477"><ele>60.99999999999999</ele><time>2026-04-24T08:26:06Z</time></trkpt><trkpt lat="45.03953510439244" lon="9.648876523902253"><ele>61.0</ele><time>2026-04-24T08:26:08Z</time></trkpt><trkpt lat="45.03957719761907" lon="9.648999483124209"><ele>61.0</ele><time>2026-04-24T08:26:10Z</time></trkpt><trkpt lat="45.03961381139035" lon="9.649138179363296"><ele>60.99999999999999</ele><time>2026-04-24T08:26:12Z</time></trkpt><trkpt lat="45.03966415870752" lon="9.649261578907101"><ele>60.99999999999999</ele><time>2026-04-24T08:26:14Z</time></trkpt><trkpt lat="45.03970022546022" lon="9.649385043393105"><ele>61.0</ele><time>2026-04-24T08:26:16Z</time></trkpt><trkpt lat="45.03974767730788" lon="9.649507649299144"><ele>61.0</ele><time>2026-04-24T08:26:18Z</time></trkpt><trkpt lat="45.039799584818894" lon="9.649643644945801"><ele>61.199999999999996</ele><time>2026-04-24T08:26:20Z</time></trkpt><trkpt lat="45.03984271649863" lon="9.649770257907951"><ele>61.39999999999999</ele><time>2026-04-24T08:26:22Z</time></trkpt><trkpt lat="45.03988114889704" lon="9.64988944676773"><ele>61.6</ele><time>2026-04-24T08:26:24Z</time></trkpt><trkpt lat="45.03991286501995" lon="9.650020681840678"><ele>61.8</ele><time>2026-04-24T08:26:26Z</time></trkpt><trkpt lat="45.039964303733775" lon="9.650150312902333"><ele>62.0</ele><time>2026-04-24T08:26:28Z</time></trkpt><trkpt lat="45.040008662452735" lon="9.650269105524073"><ele>61.833333333333336</ele><time>2026-04-24T08:26:30Z</time></trkpt><trkpt lat="45.040062596334494" lon="9.65037915475902"><ele>61.66666666666667</ele><time>2026-04-24T08:26:32Z</time></trkpt><trkpt lat="45.0400917806749" lon="9.650505033654506"><ele>61.5</ele><time>2026-04-24T08:26:34Z</time></trkpt><trkpt lat="45.04013276710835" lon="9.65061223032612"><ele>61.33333333333333</ele><time>2026-04-24T08:26:36Z</time></trkpt><trkpt lat="45.040169638188225" lon="9.65072217451772"><ele>61.166666666666664</ele><time>2026-04-24T08:26:38Z</time></trkpt><trkpt lat="45.04021187543436" lon="9.6508314687339"><ele>61.0</ele><time>2026-04-24T08:26:40Z</time></trkpt><trkpt lat="45.04025520033114" lon="9.650922067519666"><ele>61.0</ele><time>2026-04-24T08:26:42Z</time></trkpt><trkpt lat="45.04028191166763" lon="9.65103249294829"><ele>60.99999999999999</ele><time>2026-04-24T08:26:44Z</time></trkpt><trkpt lat="45.04033063980906" lon="9.651129039936293"><ele>60.99999999999999</ele><time>2026-04-24T08:26:46Z</time></trkpt><trkpt lat="45.04037880528762" lon="9.651263733593979"><ele>61.0</ele><time>2026-04-24T08:26:48Z</time></trkpt><trkpt lat="45.040414484506584" lon="9.651413178967267"><ele>61.0</ele><time>2026-04-24T08:26:50Z</time></trkpt><trkpt lat="45.04046425261539" lon="9.651550303841418"><ele>61.0</ele><time>2026-04-24T08:26:52Z</time></trkpt><trkpt lat="45.04052598946399" lon="9.651671802822507"><ele>60.99999999999999</ele><time>2026-04-24T08:26:54Z</time></trkpt><trkpt lat="45.04057280005867" lon="9.651801585490421"><ele>60.99999999999999</ele><time>2026-04-24T08:26:56Z</time></trkpt><trkpt lat="45.040621771463" lon="9.6519360749258"><ele>61.0</ele><time>2026-04-24T08:26:57.999Z</time></trkpt><trkpt lat="45.040658745921895" lon="9.652084470244937"><ele>61.0</ele><time>2026-04-24T08:26:59.999Z</time></trkpt><trkpt lat="45.04071545775171" lon="9.65223265422964"><ele>61.0</ele><time>2026-04-24T08:27:01.999Z</time></trkpt><trkpt lat="45.04076536948589" lon="9.6523673694433"><ele>60.99999999999999</ele><time>2026-04-24T08:27:03.999Z</time></trkpt><trkpt lat="45.04081043030089" lon="9.65249221913414"><ele>60.99999999999999</ele><time>2026-04-24T08:27:05.999Z</time></trkpt><trkpt lat="45.04086289299535" lon="9.652628041752994"><ele>61.0</ele><time>2026-04-24T08:27:07.999Z</time></trkpt><trkpt lat="45.04090801736446" lon="9.652747279241478"><ele>61.0</ele><time>2026-04-24T08:27:09.999Z</time></trkpt><trkpt lat="45.0409456682227" lon="9.652864425035911"><ele>60.8</ele><time>2026-04-24T08:27:11.999Z</time></trkpt><trkpt lat="45.04099349037903" lon="9.652990436617756"><ele>60.599999999999994</ele><time>2026-04-24T08:27:13.999Z</time></trkpt><trkpt lat="45.041040675810706" lon="9.653130536370982"><ele>60.4</ele><time>2026-04-24T08:27:15.999Z</time></trkpt><trkpt lat="45.04110168165588" lon="9.653274943817483"><ele>60.2</ele><time>2026-04-24T08:27:17.999Z</time></trkpt><trkpt lat="45.041150425412035" lon="9.653407724163682"><ele>60.0</ele><time>2026-04-24T08:27:19.999Z</time></trkpt><trkpt lat="45.04119847797626" lon="9.653537015809485"><ele>59.8</ele><time>2026-04-24T08:27:21.999Z</time></trkpt><trkpt lat="45.041242231145944" lon="9.653653727998428"><ele>59.6</ele><time>2026-04-24T08:27:23.999Z</time></trkpt><trkpt lat="45.04128283826435" lon="9.653776178702273"><ele>59.400000000000006</ele><time>2026-04-24T08:27:25.999Z</time></trkpt><trkpt lat="45.04133224507534" lon="9.653908497406356"><ele>59.2</ele><time>2026-04-24T08:27:27.999Z</time></trkpt><trkpt lat="45.04138225086681" lon="9.654052479512101"><ele>59.0</ele><time>2026-04-24T08:27:29.999Z</time></trkpt><trkpt lat="45.04142883761036" lon="9.654191961032586"><ele>59.0</ele><time>2026-04-24T08:27:31.999Z</time></trkpt><trkpt lat="45.04147852571076" lon="9.65432630451182"><ele>59.00000000000001</ele><time>2026-04-24T08:27:33.999Z</time></trkpt><trkpt lat="45.0415238423004" lon="9.654456988993243"><ele>59.00000000000001</ele><time>2026-04-24T08:27:35.999Z</time></trkpt><trkpt lat="45.04157192912278" lon="9.654585627491196"><ele>59.0</ele><time>2026-04-24T08:27:37.999Z</time></trkpt><trkpt lat="45.04161430954447" lon="9.654711074208219"><ele>59.0</ele><time>2026-04-24T08:27:39.999Z</time></trkpt><trkpt lat="45.04165790016147" lon="9.65483595917923"><ele>59.800000000000004</ele><time>2026-04-24T08:27:41.999Z</time></trkpt><trkpt lat="45.041698510076905" lon="9.654950114558421"><ele>60.60000000000001</ele><time>2026-04-24T08:27:43.999Z</time></trkpt><trkpt lat="45.04174066736911" lon="9.65507026833712"><ele>61.4</ele><time>2026-04-24T08:27:45.999Z</time></trkpt><trkpt lat="45.04178625759263" lon="9.65520281398691"><ele>62.2</ele><time>2026-04-24T08:27:47.999Z</time></trkpt><trkpt lat="45.04183347402459" lon="9.655340184358293"><ele>63.0</ele><time>2026-04-24T08:27:49.999Z</time></trkpt><trkpt lat="45.04188513230756" lon="9.65548283446314"><ele>63.0</ele><time>2026-04-24T08:27:51.999Z</time></trkpt><trkpt lat="45.04193143387712" lon="9.655616599843329"><ele>63.0</ele><time>2026-04-24T08:27:54Z</time></trkpt><trkpt lat="45.04197451649161" lon="9.655747400808908"><ele>63.0</ele><time>2026-04-24T08:27:56Z</time></trkpt><trkpt lat="45.04203038722211" lon="9.655859085819545"><ele>63.0</ele><time>2026-04-24T08:27:58Z</time></trkpt><trkpt lat="45.0420660621493" lon="9.65599161606076"><ele>63.0</ele><time>2026-04-24T08:28:00Z</time></trkpt><trkpt lat="45.042104083575765" lon="9.656113461785118"><ele>63.2</ele><time>2026-04-24T08:28:02Z</time></trkpt><trkpt lat="45.04215396180054" lon="9.656237234478935"><ele>63.4</ele><time>2026-04-24T08:28:04Z</time></trkpt><trkpt lat="45.04220087536748" lon="9.656381173466373"><ele>63.60000000000001</ele><time>2026-04-24T08:28:06Z</time></trkpt><trkpt lat="45.04224940216998" lon="9.656524442212763"><ele>63.800000000000004</ele><time>2026-04-24T08:28:08Z</time></trkpt><trkpt lat="45.04229841455883" lon="9.656659317535805"><ele>64.0</ele><time>2026-04-24T08:28:10Z</time></trkpt><trkpt lat="45.04234526762468" lon="9.656788583423316"><ele>64.0</ele><time>2026-04-24T08:28:12Z</time></trkpt><trkpt lat="45.04238718404329" lon="9.65690993561348"><ele>64.0</ele><time>2026-04-24T08:28:14Z</time></trkpt><trkpt lat="45.04242820689018" lon="9.657032117839027"><ele>64.0</ele><time>2026-04-24T08:28:16Z</time></trkpt><trkpt lat="45.042467847956125" lon="9.657151433358072"><ele>64.0</ele><time>2026-04-24T08:28:18Z</time></trkpt><trkpt lat="45.04250484025979" lon="9.657269212034192"><ele>64.0</ele><time>2026-04-24T08:28:20Z</time></trkpt><trkpt lat="45.042554484552454" lon="9.657402614240743"><ele>63.400000000000006</ele><time>2026-04-24T08:28:22Z</time></trkpt><trkpt lat="45.04259722809873" lon="9.657536406258128"><ele>62.800000000000004</ele><time>2026-04-24T08:28:24Z</time></trkpt><trkpt lat="45.04264349756075" lon="9.65767549346818"><ele>62.199999999999996</ele><time>2026-04-24T08:28:26Z</time></trkpt><trkpt lat="45.04269380054458" lon="9.65781506950139"><ele>61.599999999999994</ele><time>2026-04-24T08:28:28Z</time></trkpt><trkpt lat="45.04274682570537" lon="9.65794833438787"><ele>61.0</ele><time>2026-04-24T08:28:30Z</time></trkpt><trkpt lat="45.0427887718357" lon="9.65808144057808"><ele>61.0</ele><time>2026-04-24T08:28:32Z</time></trkpt><trkpt lat="45.042832853009024" lon="9.658205234338382"><ele>60.99999999999999</ele><time>2026-04-24T08:28:34Z</time></trkpt><trkpt lat="45.04287641343979" lon="9.658319324744259"><ele>60.99999999999999</ele><time>2026-04-24T08:28:36Z</time></trkpt><trkpt lat="45.042920395344574" lon="9.658437919233759"><ele>61.0</ele><time>2026-04-24T08:28:38Z</time></trkpt><trkpt lat="45.04295841070054" lon="9.658546793177772"><ele>61.0</ele><time>2026-04-24T08:28:40Z</time></trkpt><trkpt lat="45.04300241195367" lon="9.658650531936837"><ele>61.4</ele><time>2026-04-24T08:28:42Z</time></trkpt><trkpt lat="45.04303954628677" lon="9.65876496442874"><ele>61.8</ele><time>2026-04-24T08:28:44Z</time></trkpt><trkpt lat="45.04307888359584" lon="9.658879904164422"><ele>62.199999999999996</ele><time>2026-04-24T08:28:46Z</time></trkpt><trkpt lat="45.04311536648313" lon="9.658989035941884"><ele>62.599999999999994</ele><time>2026-04-24T08:28:48Z</time></trkpt><trkpt lat="45.04316161372413" lon="9.659111537053422"><ele>63.0</ele><time>2026-04-24T08:28:50Z</time></trkpt><trkpt lat="45.04320885701119" lon="9.659239306418984"><ele>63.0</ele><time>2026-04-24T08:28:51.999Z</time></trkpt><trkpt lat="45.04325008033104" lon="9.659356235403965"><ele>63.0</ele><time>2026-04-24T08:28:53.999Z</time></trkpt><trkpt lat="45.04329021616984" lon="9.659467184813357"><ele>63.0</ele><time>2026-04-24T08:28:55.999Z</time></trkpt><trkpt lat="45.0433268300337" lon="9.659577533616607"><ele>63.0</ele><time>2026-04-24T08:28:57.999Z</time></trkpt><trkpt lat="45.04336832024178" lon="9.65968826603211"><ele>63.0</ele><time>2026-04-24T08:28:59.999Z</time></trkpt><trkpt lat="45.0434008294812" lon="9.659796834331488"><ele>63.0</ele><time>2026-04-24T08:29:01.999Z</time></trkpt><trkpt lat="45.04341858965779" lon="9.659920864920423"><ele>62.85714285714286</ele><time>2026-04-24T08:29:03.999Z</time></trkpt><trkpt lat="45.043423668779475" lon="9.660035738068544"><ele>62.714285714285715</ele><time>2026-04-24T08:29:05.999Z</time></trkpt><trkpt lat="45.04342520606946" lon="9.660148952924382"><ele>62.57142857142857</ele><time>2026-04-24T08:29:07.999Z</time></trkpt><trkpt lat="45.04341836334336" lon="9.660255305150052"><ele>62.42857142857143</ele><time>2026-04-24T08:29:09.999Z</time></trkpt><trkpt lat="45.04342468826233" lon="9.660355905312873"><ele>62.28571428571429</ele><time>2026-04-24T08:29:11.999Z</time></trkpt><trkpt lat="45.04344011612664" lon="9.660448534452534"><ele>62.142857142857146</ele><time>2026-04-24T08:29:13.999Z</time></trkpt><trkpt lat="45.0434437878755" lon="9.660552309672962"><ele>62.0</ele><time>2026-04-24T08:29:15.999Z</time></trkpt><trkpt lat="45.04349440268609" lon="9.660667228278713"><ele>62.0</ele><time>2026-04-24T08:29:17.999Z</time></trkpt><trkpt lat="45.04357699286622" lon="9.66072695065983"><ele>62.0</ele><time>2026-04-24T08:29:19.999Z</time></trkpt><trkpt lat="45.04365202878065" lon="9.6607598416874"><ele>62.0</ele><time>2026-04-24T08:29:22.999Z</time></trkpt><trkpt lat="45.04386884978675" lon="9.66025115958247"><ele>61.714285714285715</ele><time>2026-04-24T08:29:30.999Z</time></trkpt><trkpt lat="45.04396499006018" lon="9.660228489493932"><ele>61.42857142857143</ele><time>2026-04-24T08:29:33.999Z</time></trkpt><trkpt lat="45.04403842348587" lon="9.660223963436806"><ele>61.142857142857146</ele><time>2026-04-24T08:29:35.999Z</time></trkpt><trkpt lat="45.0441059953081" lon="9.660237518582646"><ele>60.85714285714286</ele><time>2026-04-24T08:29:37.999Z</time></trkpt><trkpt lat="45.04416465737288" lon="9.660293541559602"><ele>60.57142857142857</ele><time>2026-04-24T08:29:39.999Z</time></trkpt><trkpt lat="45.04421333364535" lon="9.660365996135853"><ele>60.28571428571429</ele><time>2026-04-24T08:29:41.999Z</time></trkpt><trkpt lat="45.04426334299523" lon="9.660426818459722"><ele>60.0</ele><time>2026-04-24T08:29:43.999Z</time></trkpt><trkpt lat="45.04432912783623" lon="9.660508480204607"><ele>59.666666666666664</ele><time>2026-04-24T08:29:46.999Z</time></trkpt><trkpt lat="45.04437892524575" lon="9.660598312204906"><ele>59.33333333333333</ele><time>2026-04-24T08:29:49.999Z</time></trkpt><trkpt lat="45.0443932920591" lon="9.660715884289779"><ele>59.0</ele><time>2026-04-24T08:29:51.999Z</time></trkpt><trkpt lat="45.04440630742728" lon="9.66083403012135"><ele>58.666666666666664</ele><time>2026-04-24T08:29:53.999Z</time></trkpt><trkpt lat="45.044506591440275" lon="9.660854987265475"><ele>58.33333333333333</ele><time>2026-04-24T08:29:54.999Z</time></trkpt><trkpt lat="45.044529747416846" lon="9.66098615626236"><ele>58.0</ele><time>2026-04-24T08:29:56.999Z</time></trkpt><trkpt lat="45.04455105309119" lon="9.661118564506207"><ele>58.666666666666664</ele><time>2026-04-24T08:29:59Z</time></trkpt><trkpt lat="45.044572692735166" lon="9.661255225197454"><ele>59.33333333333333</ele><time>2026-04-24T08:30:01Z</time></trkpt><trkpt lat="45.0445932123784" lon="9.661384812738829"><ele>60.0</ele><time>2026-04-24T08:30:03Z</time></trkpt><trkpt lat="45.04461211282961" lon="9.6615041752952"><ele>60.66666666666667</ele><time>2026-04-24T08:30:05Z</time></trkpt><trkpt lat="45.04462999641129" lon="9.661617119167156"><ele>61.333333333333336</ele><time>2026-04-24T08:30:07Z</time></trkpt><trkpt lat="45.04464942652372" lon="9.66172838898563"><ele>62.0</ele><time>2026-04-24T08:30:09Z</time></trkpt><trkpt lat="45.04466656493539" lon="9.66183174358194"><ele>62.00000000000001</ele><time>2026-04-24T08:30:11Z</time></trkpt><trkpt lat="45.04468250700658" lon="9.661927885198784"><ele>62.0</ele><time>2026-04-24T08:30:13Z</time></trkpt><trkpt lat="45.04469800839447" lon="9.662021370759643"><ele>62.0</ele><time>2026-04-24T08:30:15Z</time></trkpt><trkpt lat="45.04471228529855" lon="9.66211173197041"><ele>62.0</ele><time>2026-04-24T08:30:17Z</time></trkpt><trkpt lat="45.0447311106521" lon="9.662233568002213"><ele>62.00000000000001</ele><time>2026-04-24T08:30:20Z</time></trkpt><trkpt lat="45.04475161570477" lon="9.662372242211433"><ele>62.0</ele><time>2026-04-24T08:30:23Z</time></trkpt><trkpt lat="45.04476975834919" lon="9.662494783923105"><ele>62.0</ele><time>2026-04-24T08:30:25Z</time></trkpt><trkpt lat="45.044789500346546" lon="9.662626931168395"><ele>62.0</ele><time>2026-04-24T08:30:27Z</time></trkpt><trkpt lat="45.04481021886119" lon="9.662765614948247"><ele>62.0</ele><time>2026-04-24T08:30:29Z</time></trkpt><trkpt lat="45.04483243697479" lon="9.662910697723913"><ele>62.0</ele><time>2026-04-24T08:30:31Z</time></trkpt><trkpt lat="45.04485241281521" lon="9.663039754780913"><ele>62.0</ele><time>2026-04-24T08:30:33Z</time></trkpt><trkpt lat="45.04487157609107" lon="9.6631623590771"><ele>62.0</ele><time>2026-04-24T08:30:35Z</time></trkpt><trkpt lat="45.044891009158995" lon="9.663278957416674"><ele>62.0</ele><time>2026-04-24T08:30:37Z</time></trkpt><trkpt lat="45.044910201262574" lon="9.663387376021234"><ele>62.0</ele><time>2026-04-24T08:30:39Z</time></trkpt><trkpt lat="45.04490194616491" lon="9.663542157784207"><ele>62.0</ele><time>2026-04-24T08:30:41Z</time></trkpt><trkpt lat="45.044926521452616" lon="9.663687854690123"><ele>62.0</ele><time>2026-04-24T08:30:43Z</time></trkpt><trkpt lat="45.044978927995174" lon="9.663838188752731"><ele>62.0</ele><time>2026-04-24T08:30:45Z</time></trkpt><trkpt lat="45.04502802851484" lon="9.663984722391435"><ele>62.0</ele><time>2026-04-24T08:30:47Z</time></trkpt><trkpt lat="45.04507513399403" lon="9.664133294344206"><ele>62.0</ele><time>2026-04-24T08:30:49Z</time></trkpt><trkpt lat="45.04513073862816" lon="9.664180038984897"><ele>62.0</ele><time>2026-04-24T08:30:50Z</time></trkpt><trkpt lat="45.045176928056485" lon="9.664317857981628"><ele>62.0</ele><time>2026-04-24T08:30:52Z</time></trkpt><trkpt lat="45.045186909512026" lon="9.664465509374146"><ele>62.0</ele><time>2026-04-24T08:30:54Z</time></trkpt><trkpt lat="45.04523263300211" lon="9.664590004198713"><ele>62.0</ele><time>2026-04-24T08:30:56Z</time></trkpt><trkpt lat="45.04527969026351" lon="9.664711933001644"><ele>62.0</ele><time>2026-04-24T08:30:58Z</time></trkpt><trkpt lat="45.04536057283103" lon="9.664819087261394"><ele>62.0</ele><time>2026-04-24T08:31:00Z</time></trkpt><trkpt lat="45.04537609683485" lon="9.664962212835103"><ele>62.0</ele><time>2026-04-24T08:31:02Z</time></trkpt><trkpt lat="45.04541421677753" lon="9.66507012257134"><ele>62.0</ele><time>2026-04-24T08:31:04Z</time></trkpt><trkpt lat="45.045481962423466" lon="9.665120369172206"><ele>62.0</ele><time>2026-04-24T08:31:07Z</time></trkpt><trkpt lat="45.045545159856225" lon="9.665181897424299"><ele>62.0</ele><time>2026-04-24T08:31:13Z</time></trkpt><trkpt lat="45.04539739062655" lon="9.665337553271545"><ele>62.0</ele><time>2026-04-24T08:31:15Z</time></trkpt><trkpt lat="45.045439899741936" lon="9.665465073396442"><ele>62.0</ele><time>2026-04-24T08:31:18.999Z</time></trkpt><trkpt lat="45.04546947852383" lon="9.665568824130126"><ele>62.00000000000001</ele><time>2026-04-24T08:31:20.999Z</time></trkpt><trkpt lat="45.04549493934596" lon="9.665654348465658"><ele>62.0</ele><time>2026-04-24T08:31:22.999Z</time></trkpt><trkpt lat="45.04552086187648" lon="9.665738928478765"><ele>62.0</ele><time>2026-04-24T08:31:24.999Z</time></trkpt><trkpt lat="45.04555329180235" lon="9.665842142330252"><ele>62.0</ele><time>2026-04-24T08:31:27.999Z</time></trkpt><trkpt lat="45.04558612768026" lon="9.665942125654908"><ele>62.00000000000001</ele><time>2026-04-24T08:31:30.999Z</time></trkpt><trkpt lat="45.045621396496315" lon="9.666048041847807"><ele>62.0</ele><time>2026-04-24T08:31:33.999Z</time></trkpt><trkpt lat="45.04565583505873" lon="9.666148184172425"><ele>62.0</ele><time>2026-04-24T08:31:39.999Z</time></trkpt><trkpt lat="45.04568942448101" lon="9.666270703490264"><ele>62.0</ele><time>2026-04-24T08:31:48.999Z</time></trkpt><trkpt lat="45.04572609526997" lon="9.666394657038635"><ele>62.0</ele><time>2026-04-24T08:31:50.999Z</time></trkpt><trkpt lat="45.045783762221326" lon="9.666550551619668"><ele>62.0</ele><time>2026-04-24T08:31:52.999Z</time></trkpt><trkpt lat="45.04584599398521" lon="9.66669940708678"><ele>62.0</ele><time>2026-04-24T08:31:54.999Z</time></trkpt><trkpt lat="45.04590824185842" lon="9.666851221943475"><ele>61.75</ele><time>2026-04-24T08:31:56.999Z</time></trkpt><trkpt lat="45.04595504021921" lon="9.66700889662183"><ele>61.5</ele><time>2026-04-24T08:31:58.999Z</time></trkpt><trkpt lat="45.04600174501362" lon="9.667156348836453"><ele>61.25</ele><time>2026-04-24T08:32:00.999Z</time></trkpt><trkpt lat="45.04606123709289" lon="9.667293892153362"><ele>61.0</ele><time>2026-04-24T08:32:02.999Z</time></trkpt><trkpt lat="45.04610206577309" lon="9.667427280731918"><ele>60.99999999999999</ele><time>2026-04-24T08:32:05Z</time></trkpt><trkpt lat="45.04613632177101" lon="9.667502686104324"><ele>61.0</ele><time>2026-04-24T08:32:06Z</time></trkpt><trkpt lat="45.046199211717166" lon="9.667668108875816"><ele>61.0</ele><time>2026-04-24T08:32:08Z</time></trkpt><trkpt lat="45.04623382692179" lon="9.66774761395261"><ele>61.0</ele><time>2026-04-24T08:32:09Z</time></trkpt><trkpt lat="45.046261661867334" lon="9.667831484021084"><ele>60.99999999999999</ele><time>2026-04-24T08:32:10Z</time></trkpt><trkpt lat="45.04628912883964" lon="9.667918772977579"><ele>61.0</ele><time>2026-04-24T08:32:11Z</time></trkpt><trkpt lat="45.046312562958576" lon="9.668009546632465"><ele>61.166666666666664</ele><time>2026-04-24T08:32:12Z</time></trkpt><trkpt lat="45.046355512226256" lon="9.6681707458302"><ele>61.33333333333333</ele><time>2026-04-24T08:32:14Z</time></trkpt><trkpt lat="45.04639136199572" lon="9.668250411163115"><ele>61.5</ele><time>2026-04-24T08:32:15Z</time></trkpt><trkpt lat="45.04640662779664" lon="9.668339052418485"><ele>61.66666666666667</ele><time>2026-04-24T08:32:16Z</time></trkpt><trkpt lat="45.046452717462415" lon="9.66841725833037"><ele>61.833333333333336</ele><time>2026-04-24T08:32:17Z</time></trkpt><trkpt lat="45.04648505670704" lon="9.668507992953197"><ele>62.0</ele><time>2026-04-24T08:32:18Z</time></trkpt><trkpt lat="45.04651474814015" lon="9.66859129541139"><ele>62.0</ele><time>2026-04-24T08:32:19Z</time></trkpt><trkpt lat="45.04654287200155" lon="9.668767449740523"><ele>62.0</ele><time>2026-04-24T08:32:21Z</time></trkpt><trkpt lat="45.04660363620265" lon="9.668914027664675"><ele>62.0</ele><time>2026-04-24T08:32:23Z</time></trkpt><trkpt lat="45.04666856504749" lon="9.669071000663623"><ele>62.0</ele><time>2026-04-24T08:32:25Z</time></trkpt><trkpt lat="45.04670614942365" lon="9.66914726516252"><ele>62.0</ele><time>2026-04-24T08:32:26Z</time></trkpt><trkpt lat="45.04674042587664" lon="9.669225158030732"><ele>61.75</ele><time>2026-04-24T08:32:27Z</time></trkpt><trkpt lat="45.04679861708735" lon="9.669377659740418"><ele>61.5</ele><time>2026-04-24T08:32:29Z</time></trkpt><trkpt lat="45.04685141146869" lon="9.669531840096415"><ele>61.25</ele><time>2026-04-24T08:32:31Z</time></trkpt><trkpt lat="45.046904512055036" lon="9.66967532327634"><ele>61.0</ele><time>2026-04-24T08:32:33Z</time></trkpt><trkpt lat="45.04695886420542" lon="9.669817535045311"><ele>61.0</ele><time>2026-04-24T08:32:35Z</time></trkpt><trkpt lat="45.047015932162836" lon="9.669973463298515"><ele>60.99999999999999</ele><time>2026-04-24T08:32:37Z</time></trkpt><trkpt lat="45.04704833430878" lon="9.670056239260127"><ele>60.99999999999999</ele><time>2026-04-24T08:32:38Z</time></trkpt><trkpt lat="45.04708172718851" lon="9.670143776687306"><ele>61.0</ele><time>2026-04-24T08:32:39Z</time></trkpt><trkpt lat="45.04711318866764" lon="9.670226463585744"><ele>61.0</ele><time>2026-04-24T08:32:40Z</time></trkpt><trkpt lat="45.047170791848316" lon="9.670385254028906"><ele>61.0</ele><time>2026-04-24T08:32:42Z</time></trkpt><trkpt lat="45.047216224383284" lon="9.670531348101157"><ele>61.0</ele><time>2026-04-24T08:32:44Z</time></trkpt><trkpt lat="45.04726346048318" lon="9.670683034853598"><ele>61.0</ele><time>2026-04-24T08:32:46Z</time></trkpt><trkpt lat="45.04731859613986" lon="9.67082922150408"><ele>61.0</ele><time>2026-04-24T08:32:48Z</time></trkpt><trkpt lat="45.047363575070875" lon="9.670962331904212"><ele>61.0</ele><time>2026-04-24T08:32:50Z</time></trkpt><trkpt lat="45.047406279949406" lon="9.671090030912168"><ele>60.99999999999999</ele><time>2026-04-24T08:32:52Z</time></trkpt><trkpt lat="45.04745888654584" lon="9.67124587739001"><ele>60.99999999999999</ele><time>2026-04-24T08:32:54Z</time></trkpt><trkpt lat="45.04750534628986" lon="9.671392168680816"><ele>61.0</ele><time>2026-04-24T08:32:56Z</time></trkpt><trkpt lat="45.04755147517608" lon="9.67151661656776"><ele>61.0</ele><time>2026-04-24T08:32:58Z</time></trkpt><trkpt lat="45.04758404777903" lon="9.671645714415012"><ele>60.199999999999996</ele><time>2026-04-24T08:33:00Z</time></trkpt><trkpt lat="45.0476352180026" lon="9.671776405193537"><ele>59.39999999999999</ele><time>2026-04-24T08:33:02Z</time></trkpt><trkpt lat="45.04767003368464" lon="9.671865813945933"><ele>58.6</ele><time>2026-04-24T08:33:03Z</time></trkpt><trkpt lat="45.04772870302817" lon="9.672021486993197"><ele>57.8</ele><time>2026-04-24T08:33:05Z</time></trkpt><trkpt lat="45.0477840743989" lon="9.67217714416375"><ele>57.0</ele><time>2026-04-24T08:33:07Z</time></trkpt><trkpt lat="45.04782816989089" lon="9.672336854978726"><ele>57.0</ele><time>2026-04-24T08:33:09Z</time></trkpt><trkpt lat="45.04787681982256" lon="9.672482335886487"><ele>57.0</ele><time>2026-04-24T08:33:11Z</time></trkpt><trkpt lat="45.047926913425556" lon="9.672613333143866"><ele>57.0</ele><time>2026-04-24T08:33:13Z</time></trkpt><trkpt lat="45.04796754754078" lon="9.672751056625602"><ele>57.0</ele><time>2026-04-24T08:33:15Z</time></trkpt><trkpt lat="45.048002417362426" lon="9.672864209953941"><ele>57.0</ele><time>2026-04-24T08:33:17Z</time></trkpt><trkpt lat="45.04803500186417" lon="9.672975693455559"><ele>57.0</ele><time>2026-04-24T08:33:19Z</time></trkpt><trkpt lat="45.04807078427355" lon="9.673079427679335"><ele>57.0</ele><time>2026-04-24T08:33:20.999Z</time></trkpt><trkpt lat="45.04812253241996" lon="9.673190947923512"><ele>57.0</ele><time>2026-04-24T08:33:22.999Z</time></trkpt><trkpt lat="45.04814287016975" lon="9.673326236347116"><ele>57.0</ele><time>2026-04-24T08:33:24.999Z</time></trkpt><trkpt lat="45.04819848919028" lon="9.673439572273795"><ele>57.0</ele><time>2026-04-24T08:33:26.999Z</time></trkpt><trkpt lat="45.048172547860844" lon="9.673550454711691"><ele>57.0</ele><time>2026-04-24T08:33:27.999Z</time></trkpt><trkpt lat="45.04815158009156" lon="9.673678248263892"><ele>57.0</ele><time>2026-04-24T08:33:29.999Z</time></trkpt><trkpt lat="45.04826432534678" lon="9.673760491167227"><ele>57.0</ele><time>2026-04-24T08:33:30.999Z</time></trkpt><trkpt lat="45.048323840831884" lon="9.673887131778336"><ele>57.0</ele><time>2026-04-24T08:33:32.999Z</time></trkpt><trkpt lat="45.04837860724564" lon="9.674010129039768"><ele>57.0</ele><time>2026-04-24T08:33:34.999Z</time></trkpt><trkpt lat="45.04841981735342" lon="9.674148392704833"><ele>57.0</ele><time>2026-04-24T08:33:36.999Z</time></trkpt><trkpt lat="45.04846762492978" lon="9.674295279952739"><ele>57.0</ele><time>2026-04-24T08:33:38.999Z</time></trkpt><trkpt lat="45.04851933597794" lon="9.674446956244749"><ele>57.0</ele><time>2026-04-24T08:33:40.999Z</time></trkpt><trkpt lat="45.04855111073645" lon="9.674524584061432"><ele>57.0</ele><time>2026-04-24T08:33:41.999Z</time></trkpt><trkpt lat="45.04858269492158" lon="9.674607629338112"><ele>57.0</ele><time>2026-04-24T08:33:42.999Z</time></trkpt><trkpt lat="45.048634039128274" lon="9.674766414390485"><ele>56.8</ele><time>2026-04-24T08:33:44.999Z</time></trkpt><trkpt lat="45.04868121096264" lon="9.674914525556238"><ele>56.6</ele><time>2026-04-24T08:33:46.999Z</time></trkpt><trkpt lat="45.04872506813636" lon="9.67504631233063"><ele>56.39999999999999</ele><time>2026-04-24T08:33:48.999Z</time></trkpt><trkpt lat="45.04877345135207" lon="9.675194106324765"><ele>56.199999999999996</ele><time>2026-04-24T08:33:50.999Z</time></trkpt><trkpt lat="45.04881618350439" lon="9.675345822820947"><ele>56.0</ele><time>2026-04-24T08:33:52.999Z</time></trkpt><trkpt lat="45.048844798978465" lon="9.6754282383879"><ele>56.4</ele><time>2026-04-24T08:33:53.999Z</time></trkpt><trkpt lat="45.0488959619573" lon="9.67558863679221"><ele>56.8</ele><time>2026-04-24T08:33:55.999Z</time></trkpt><trkpt lat="45.04892550410621" lon="9.675670294259621"><ele>57.199999999999996</ele><time>2026-04-24T08:33:56.999Z</time></trkpt><trkpt lat="45.04897919482007" lon="9.675824146081514"><ele>57.599999999999994</ele><time>2026-04-24T08:33:58.999Z</time></trkpt><trkpt lat="45.04903103736528" lon="9.675958419346124"><ele>58.0</ele><time>2026-04-24T08:34:00.999Z</time></trkpt><trkpt lat="45.0490733683559" lon="9.676084148995471"><ele>58.0</ele><time>2026-04-24T08:34:02.999Z</time></trkpt><trkpt lat="45.049120875871694" lon="9.676219863246992"><ele>58.0</ele><time>2026-04-24T08:34:04.999Z</time></trkpt><trkpt lat="45.049171754211244" lon="9.676358674051517"><ele>58.0</ele><time>2026-04-24T08:34:06.999Z</time></trkpt><trkpt lat="45.0492232426242" lon="9.676508491890715"><ele>58.0</ele><time>2026-04-24T08:34:08.999Z</time></trkpt><trkpt lat="45.0492776690386" lon="9.676654738553475"><ele>58.2</ele><time>2026-04-24T08:34:11Z</time></trkpt><trkpt lat="45.0493373295143" lon="9.676804127531728"><ele>58.4</ele><time>2026-04-24T08:34:13Z</time></trkpt><trkpt lat="45.04937093168549" lon="9.676880832483956"><ele>58.60000000000001</ele><time>2026-04-24T08:34:14Z</time></trkpt><trkpt lat="45.04942972206661" lon="9.677009556140305"><ele>58.800000000000004</ele><time>2026-04-24T08:34:16Z</time></trkpt><trkpt lat="45.04947789433273" lon="9.677113854704343"><ele>59.0</ele><time>2026-04-24T08:34:18Z</time></trkpt><trkpt lat="45.04953496904007" lon="9.677231205437042"><ele>59.0</ele><time>2026-04-24T08:34:20Z</time></trkpt><trkpt lat="45.049589861141754" lon="9.677340321099283"><ele>59.00000000000001</ele><time>2026-04-24T08:34:22Z</time></trkpt><trkpt lat="45.049644522697314" lon="9.677472027592726"><ele>59.00000000000001</ele><time>2026-04-24T08:34:24Z</time></trkpt><trkpt lat="45.04969232355554" lon="9.677604929571665"><ele>59.0</ele><time>2026-04-24T08:34:26Z</time></trkpt><trkpt lat="45.04974082195735" lon="9.677715351493577"><ele>59.0</ele><time>2026-04-24T08:34:28Z</time></trkpt><trkpt lat="45.04978376216106" lon="9.67781872622611"><ele>58.800000000000004</ele><time>2026-04-24T08:34:30Z</time></trkpt><trkpt lat="45.04981986942783" lon="9.677903253380178"><ele>58.60000000000001</ele><time>2026-04-24T08:34:32Z</time></trkpt><trkpt lat="45.04985965275426" lon="9.677996386222146"><ele>58.4</ele><time>2026-04-24T08:34:35Z</time></trkpt><trkpt lat="45.049893479440655" lon="9.678075574287456"><ele>58.2</ele><time>2026-04-24T08:34:39Z</time></trkpt><trkpt lat="45.04974339083142" lon="9.678180014053488"><ele>58.0</ele><time>2026-04-24T08:34:41Z</time></trkpt><trkpt lat="45.04964891344119" lon="9.678259178635736"><ele>58.0</ele><time>2026-04-24T08:34:43Z</time></trkpt><trkpt lat="45.04957452527252" lon="9.678374107025503"><ele>58.0</ele><time>2026-04-24T08:34:45Z</time></trkpt><trkpt lat="45.04948203954907" lon="9.67845396336131"><ele>58.0</ele><time>2026-04-24T08:34:47Z</time></trkpt><trkpt lat="45.04938241211065" lon="9.678539986102713"><ele>58.0</ele><time>2026-04-24T08:34:49Z</time></trkpt><trkpt lat="45.04927821265146" lon="9.678564236456896"><ele>58.0</ele><time>2026-04-24T08:34:51Z</time></trkpt><trkpt lat="45.04919104940362" lon="9.678613970828673"><ele>57.666666666666664</ele><time>2026-04-24T08:34:53Z</time></trkpt><trkpt lat="45.04915205288808" lon="9.678728347959579"><ele>57.33333333333333</ele><time>2026-04-24T08:34:55Z</time></trkpt><trkpt lat="45.04908906479471" lon="9.678779162717793"><ele>57.0</ele><time>2026-04-24T08:34:57Z</time></trkpt><trkpt lat="45.04902381262042" lon="9.678738773095617"><ele>56.66666666666667</ele><time>2026-04-24T08:34:58Z</time></trkpt><trkpt lat="45.048954852697406" lon="9.678791006207518"><ele>56.333333333333336</ele><time>2026-04-24T08:35:00Z</time></trkpt><trkpt lat="45.048894639681244" lon="9.67883545829901"><ele>56.0</ele><time>2026-04-24T08:35:02Z</time></trkpt><trkpt lat="45.048862963495374" lon="9.678927819920428"><ele>57.333333333333336</ele><time>2026-04-24T08:35:07Z</time></trkpt><trkpt lat="45.04878752403475" lon="9.678981696396159"><ele>58.66666666666667</ele><time>2026-04-24T08:35:16Z</time></trkpt><trkpt lat="45.048602809260665" lon="9.679280095282188"><ele>60.0</ele><time>2026-04-24T08:35:18Z</time></trkpt><trkpt lat="45.048714640566125" lon="9.679339914238938"><ele>60.0</ele><time>2026-04-24T08:35:19Z</time></trkpt><trkpt lat="45.04859751594587" lon="9.679347782932108"><ele>60.0</ele><time>2026-04-24T08:35:20Z</time></trkpt><trkpt lat="45.04858977060919" lon="9.679462170626271"><ele>60.0</ele><time>2026-04-24T08:35:21.999Z</time></trkpt><trkpt lat="45.048596552463295" lon="9.67955962945353"><ele>60.0</ele><time>2026-04-24T08:35:23.999Z</time></trkpt><trkpt lat="45.04855736393818" lon="9.679664655497653"><ele>60.0</ele><time>2026-04-24T08:35:25.999Z</time></trkpt><trkpt lat="45.04847739854386" lon="9.679690154451949"><ele>60.0</ele><time>2026-04-24T08:35:26.999Z</time></trkpt><trkpt lat="45.04844415546465" lon="9.679807133424058"><ele>59.8</ele><time>2026-04-24T08:35:28.999Z</time></trkpt><trkpt lat="45.04840721231647" lon="9.679944077028892"><ele>59.6</ele><time>2026-04-24T08:35:30.999Z</time></trkpt><trkpt lat="45.04837206832484" lon="9.680077923541237"><ele>59.400000000000006</ele><time>2026-04-24T08:35:32.999Z</time></trkpt><trkpt lat="45.04834262791512" lon="9.680192687453633"><ele>59.2</ele><time>2026-04-24T08:35:34.999Z</time></trkpt><trkpt lat="45.04831325100919" lon="9.680308714971057"><ele>59.0</ele><time>2026-04-24T08:35:36.999Z</time></trkpt><trkpt lat="45.04828621180029" lon="9.680415509093017"><ele>59.400000000000006</ele><time>2026-04-24T08:35:38.999Z</time></trkpt><trkpt lat="45.04825373763181" lon="9.680543637358738"><ele>59.800000000000004</ele><time>2026-04-24T08:35:40.999Z</time></trkpt><trkpt lat="45.04822016081095" lon="9.68067609033064"><ele>60.199999999999996</ele><time>2026-04-24T08:35:42.999Z</time></trkpt><trkpt lat="45.04818405051865" lon="9.680818536808758"><ele>60.599999999999994</ele><time>2026-04-24T08:35:44.999Z</time></trkpt><trkpt lat="45.048154332713445" lon="9.680935767017987"><ele>61.0</ele><time>2026-04-24T08:35:46.999Z</time></trkpt><trkpt lat="45.048126489063065" lon="9.681045603847995"><ele>60.83333333333333</ele><time>2026-04-24T08:35:48.999Z</time></trkpt><trkpt lat="45.04810164523814" lon="9.68114360752875"><ele>60.666666666666664</ele><time>2026-04-24T08:35:50.999Z</time></trkpt><trkpt lat="45.04807327487857" lon="9.681255521538453"><ele>60.5</ele><time>2026-04-24T08:35:52.999Z</time></trkpt><trkpt lat="45.04804587874118" lon="9.681363593055318"><ele>60.33333333333333</ele><time>2026-04-24T08:35:54.999Z</time></trkpt><trkpt lat="45.048019988879695" lon="9.68146572276815"><ele>60.166666666666664</ele><time>2026-04-24T08:35:56.999Z</time></trkpt><trkpt lat="45.04799809049402" lon="9.681552106887821"><ele>60.0</ele><time>2026-04-24T08:35:58.999Z</time></trkpt><trkpt lat="45.04797052360833" lon="9.681660643866746"><ele>60.0</ele><time>2026-04-24T08:36:01.999Z</time></trkpt><trkpt lat="45.04794534607078" lon="9.68175880270427"><ele>60.0</ele><time>2026-04-24T08:36:05.999Z</time></trkpt><trkpt lat="45.04792019281772" lon="9.681856867013115"><ele>60.0</ele><time>2026-04-24T08:36:08.999Z</time></trkpt><trkpt lat="45.04789148059613" lon="9.681968806505738"><ele>60.0</ele><time>2026-04-24T08:36:11.999Z</time></trkpt><trkpt lat="45.04786289613174" lon="9.68208017657777"><ele>60.0</ele><time>2026-04-24T08:36:14.999Z</time></trkpt><trkpt lat="45.04783586508016" lon="9.682185428887513"><ele>60.0</ele><time>2026-04-24T08:36:18Z</time></trkpt><trkpt lat="45.04781393656089" lon="9.682270813038102"><ele>60.0</ele><time>2026-04-24T08:36:20Z</time></trkpt><trkpt lat="45.047789937026344" lon="9.682364261380856"><ele>60.0</ele><time>2026-04-24T08:36:22Z</time></trkpt><trkpt lat="45.047766318339264" lon="9.682456226459834"><ele>60.0</ele><time>2026-04-24T08:36:25Z</time></trkpt><trkpt lat="45.04774456755263" lon="9.682540918568534"><ele>60.0</ele><time>2026-04-24T08:36:28Z</time></trkpt><trkpt lat="45.04771891473071" lon="9.682641843445392"><ele>60.0</ele><time>2026-04-24T08:37:51.999Z</time></trkpt><trkpt lat="45.04757879367582" lon="9.682508142606785"><ele>60.0</ele><time>2026-04-24T08:38:20.999Z</time></trkpt><trkpt lat="45.04749168417633" lon="9.682550432812336"><ele>60.0</ele><time>2026-04-24T08:38:27Z</time></trkpt></trkseg><trkseg><trkpt lat="45.04761121926157" lon="9.682595018841585"><ele>60.0</ele><time>2026-04-24T08:59:10.993Z</time></trkpt><trkpt lat="45.047671337855405" lon="9.682565190829823"><ele>60.0</ele><time>2026-04-24T08:59:21Z</time></trkpt><trkpt lat="45.04773565331622" lon="9.682573980039635"><ele>60.0</ele><time>2026-04-24T08:59:29Z</time></trkpt><trkpt lat="45.04780912128675" lon="9.682568861344194"><ele>60.0</ele><time>2026-04-24T08:59:34Z</time></trkpt><trkpt lat="45.04788365471491" lon="9.682572935560785"><ele>60.0</ele><time>2026-04-24T08:59:48Z</time></trkpt><trkpt lat="45.04791653960547" lon="9.682486500689333"><ele>60.0</ele><time>2026-04-24T08:59:55Z</time></trkpt><trkpt lat="45.047941107445595" lon="9.682364559097687"><ele>60.0</ele><time>2026-04-24T08:59:58Z</time></trkpt><trkpt lat="45.04795859010204" lon="9.682251308880433"><ele>60.0</ele><time>2026-04-24T09:00:00Z</time></trkpt><trkpt lat="45.04799109751225" lon="9.682131561654575"><ele>60.0</ele><time>2026-04-24T09:00:03Z</time></trkpt><trkpt lat="45.04802875440871" lon="9.682026587023657"><ele>60.0</ele><time>2026-04-24T09:00:06Z</time></trkpt><trkpt lat="45.04804909857092" lon="9.681910953572261"><ele>60.0</ele><time>2026-04-24T09:00:09Z</time></trkpt><trkpt lat="45.048067306947466" lon="9.681812743258027"><ele>60.0</ele><time>2026-04-24T09:00:12Z</time></trkpt><trkpt lat="45.04808929242407" lon="9.681687031415205"><ele>60.0</ele><time>2026-04-24T09:00:15Z</time></trkpt><trkpt lat="45.04811199534189" lon="9.68158725179425"><ele>60.0</ele><time>2026-04-24T09:00:17Z</time></trkpt><trkpt lat="45.04812115272801" lon="9.68148388436244"><ele>60.0</ele><time>2026-04-24T09:00:19Z</time></trkpt><trkpt lat="45.048135744780474" lon="9.681396982854514"><ele>60.0</ele><time>2026-04-24T09:00:21Z</time></trkpt><trkpt lat="45.04814684764734" lon="9.681291317776822"><ele>60.0</ele><time>2026-04-24T09:00:23Z</time></trkpt><trkpt lat="45.04815718079451" lon="9.681180205307545"><ele>60.0</ele><time>2026-04-24T09:00:25Z</time></trkpt><trkpt lat="45.04817587578409" lon="9.681066353053268"><ele>60.0</ele><time>2026-04-24T09:00:27Z</time></trkpt><trkpt lat="45.04820799323106" lon="9.680978104506949"><ele>60.0</ele><time>2026-04-24T09:00:29Z</time></trkpt><trkpt lat="45.04823610924484" lon="9.68089332238166"><ele>60.166666666666664</ele><time>2026-04-24T09:00:31Z</time></trkpt><trkpt lat="45.04826657533337" lon="9.68080422295783"><ele>60.33333333333333</ele><time>2026-04-24T09:00:33Z</time></trkpt><trkpt lat="45.04828469379557" lon="9.680701973598593"><ele>60.5</ele><time>2026-04-24T09:00:35Z</time></trkpt><trkpt lat="45.04830838461212" lon="9.680613744063612"><ele>60.666666666666664</ele><time>2026-04-24T09:00:37Z</time></trkpt><trkpt lat="45.04833929349759" lon="9.68048873612932"><ele>60.83333333333333</ele><time>2026-04-24T09:00:39.999Z</time></trkpt><trkpt lat="45.04836831969412" lon="9.680387940820033"><ele>61.0</ele><time>2026-04-24T09:00:41.999Z</time></trkpt><trkpt lat="45.048387508215924" lon="9.680293917803388"><ele>60.666666666666664</ele><time>2026-04-24T09:00:43.999Z</time></trkpt><trkpt lat="45.04840650441319" lon="9.680172931722007"><ele>60.33333333333333</ele><time>2026-04-24T09:00:45.999Z</time></trkpt><trkpt lat="45.04843887766249" lon="9.68007684841123"><ele>60.0</ele><time>2026-04-24T09:00:47.999Z</time></trkpt><trkpt lat="45.04848273647072" lon="9.679954389475796"><ele>59.66666666666667</ele><time>2026-04-24T09:00:50.999Z</time></trkpt><trkpt lat="45.04851689540085" lon="9.679828264812674"><ele>59.333333333333336</ele><time>2026-04-24T09:00:53.999Z</time></trkpt><trkpt lat="45.04853804976153" lon="9.679741531800598"><ele>59.0</ele><time>2026-04-24T09:00:55.999Z</time></trkpt><trkpt lat="45.048551054518086" lon="9.679640867888144"><ele>59.00000000000001</ele><time>2026-04-24T09:00:57.999Z</time></trkpt><trkpt lat="45.04858018450698" lon="9.67954029559676"><ele>59.0</ele><time>2026-04-24T09:00:59.999Z</time></trkpt><trkpt lat="45.04862084200931" lon="9.67945162597247"><ele>59.0</ele><time>2026-04-24T09:01:01.999Z</time></trkpt><trkpt lat="45.04867096641666" lon="9.679363007549432"><ele>59.0</ele><time>2026-04-24T09:01:03.999Z</time></trkpt><trkpt lat="45.048715487616825" lon="9.679285207301447"><ele>59.00000000000001</ele><time>2026-04-24T09:01:05.999Z</time></trkpt><trkpt lat="45.04878285040149" lon="9.679240514339744"><ele>59.0</ele><time>2026-04-24T09:01:07.999Z</time></trkpt><trkpt lat="45.04884849491784" lon="9.679187499879662"><ele>59.16666666666667</ele><time>2026-04-24T09:01:09.999Z</time></trkpt><trkpt lat="45.04888772252262" lon="9.67911292330937"><ele>59.333333333333336</ele><time>2026-04-24T09:01:11.999Z</time></trkpt><trkpt lat="45.04893299585208" lon="9.67903658368163"><ele>59.5</ele><time>2026-04-24T09:01:13.999Z</time></trkpt><trkpt lat="45.04899230009699" lon="9.678995960913811"><ele>59.66666666666667</ele><time>2026-04-24T09:01:15.999Z</time></trkpt><trkpt lat="45.04906263068463" lon="9.678946861106015"><ele>59.833333333333336</ele><time>2026-04-24T09:01:17.999Z</time></trkpt><trkpt lat="45.049146730096396" lon="9.678914176423175"><ele>60.0</ele><time>2026-04-24T09:01:20Z</time></trkpt><trkpt lat="45.04925370595132" lon="9.678856340618886"><ele>59.666666666666664</ele><time>2026-04-24T09:01:23Z</time></trkpt><trkpt lat="45.049327784205346" lon="9.678769433610597"><ele>59.33333333333333</ele><time>2026-04-24T09:01:25Z</time></trkpt><trkpt lat="45.04938641751326" lon="9.678657590768946"><ele>59.0</ele><time>2026-04-24T09:01:27Z</time></trkpt><trkpt lat="45.04945596953343" lon="9.678589303148293"><ele>58.666666666666664</ele><time>2026-04-24T09:01:29Z</time></trkpt><trkpt lat="45.04952290803616" lon="9.678524899091233"><ele>58.33333333333333</ele><time>2026-04-24T09:01:31Z</time></trkpt><trkpt lat="45.049582992594715" lon="9.678460028039133"><ele>58.0</ele><time>2026-04-24T09:01:33Z</time></trkpt><trkpt lat="45.049640294475154" lon="9.67839755883273"><ele>57.99999999999999</ele><time>2026-04-24T09:01:35Z</time></trkpt><trkpt lat="45.04970164922001" lon="9.6783302826356"><ele>58.0</ele><time>2026-04-24T09:01:37Z</time></trkpt><trkpt lat="45.0497630878203" lon="9.67825148081007"><ele>58.0</ele><time>2026-04-24T09:01:39Z</time></trkpt><trkpt lat="45.0498429786552" lon="9.67820527313534"><ele>58.0</ele><time>2026-04-24T09:01:41Z</time></trkpt><trkpt lat="45.04991739505203" lon="9.678164249957204"><ele>57.99999999999999</ele><time>2026-04-24T09:01:43Z</time></trkpt><trkpt lat="45.04998990685048" lon="9.67811817955006"><ele>58.0</ele><time>2026-04-24T09:01:45Z</time></trkpt><trkpt lat="45.05004989202411" lon="9.678060198404902"><ele>57.99999999999999</ele><time>2026-04-24T09:01:47Z</time></trkpt><trkpt lat="45.05011904450846" lon="9.678005256344083"><ele>58.0</ele><time>2026-04-24T09:01:49Z</time></trkpt><trkpt lat="45.05018294722507" lon="9.677918637073958"><ele>58.0</ele><time>2026-04-24T09:01:51Z</time></trkpt><trkpt lat="45.05024139919796" lon="9.677845406671237"><ele>58.0</ele><time>2026-04-24T09:01:53Z</time></trkpt><trkpt lat="45.0503021528527" lon="9.677781281439062"><ele>57.99999999999999</ele><time>2026-04-24T09:01:55Z</time></trkpt><trkpt lat="45.05035791489078" lon="9.677692182011983"><ele>58.0</ele><time>2026-04-24T09:01:57Z</time></trkpt><trkpt lat="45.050438805108165" lon="9.677623569408384"><ele>57.99999999999999</ele><time>2026-04-24T09:01:59Z</time></trkpt><trkpt lat="45.050515254302766" lon="9.6775697577736"><ele>58.0</ele><time>2026-04-24T09:02:01Z</time></trkpt><trkpt lat="45.0505973025358" lon="9.677511354769473"><ele>58.0</ele><time>2026-04-24T09:02:03Z</time></trkpt><trkpt lat="45.05066985114671" lon="9.677437582923682"><ele>58.0</ele><time>2026-04-24T09:02:05Z</time></trkpt><trkpt lat="45.05074025527933" lon="9.677372574754214"><ele>57.99999999999999</ele><time>2026-04-24T09:02:07Z</time></trkpt><trkpt lat="45.05080851924367" lon="9.67731026621654"><ele>58.0</ele><time>2026-04-24T09:02:09Z</time></trkpt><trkpt lat="45.05087972704331" lon="9.677251113887069"><ele>57.666666666666664</ele><time>2026-04-24T09:02:11Z</time></trkpt><trkpt lat="45.05095008900914" lon="9.677191378426459"><ele>57.33333333333333</ele><time>2026-04-24T09:02:13Z</time></trkpt><trkpt lat="45.05102603079594" lon="9.67715997893259"><ele>57.0</ele><time>2026-04-24T09:02:15Z</time></trkpt><trkpt lat="45.051105207727204" lon="9.677123856263277"><ele>56.66666666666667</ele><time>2026-04-24T09:02:17Z</time></trkpt><trkpt lat="45.051195692535586" lon="9.677118338115577"><ele>56.333333333333336</ele><time>2026-04-24T09:02:19Z</time></trkpt><trkpt lat="45.05127708868971" lon="9.677102720536519"><ele>56.0</ele><time>2026-04-24T09:02:21Z</time></trkpt><trkpt lat="45.05136577094371" lon="9.677069136990815"><ele>56.00000000000001</ele><time>2026-04-24T09:02:23Z</time></trkpt><trkpt lat="45.05144802540951" lon="9.677078198858785"><ele>56.0</ele><time>2026-04-24T09:02:25Z</time></trkpt><trkpt lat="45.05153433602048" lon="9.67708993097773"><ele>56.0</ele><time>2026-04-24T09:02:27Z</time></trkpt><trkpt lat="45.05161781097963" lon="9.677079127548073"><ele>56.0</ele><time>2026-04-24T09:02:29Z</time></trkpt><trkpt lat="45.05170166540904" lon="9.677068366852051"><ele>56.00000000000001</ele><time>2026-04-24T09:02:31Z</time></trkpt><trkpt lat="45.05178236359788" lon="9.67705742246799"><ele>56.0</ele><time>2026-04-24T09:02:33Z</time></trkpt><trkpt lat="45.05185556128063" lon="9.677049577472786"><ele>56.16666666666667</ele><time>2026-04-24T09:02:35Z</time></trkpt><trkpt lat="45.05196437193492" lon="9.677034198300747"><ele>56.333333333333336</ele><time>2026-04-24T09:02:38Z</time></trkpt><trkpt lat="45.05203379479169" lon="9.677023146087384"><ele>56.5</ele><time>2026-04-24T09:02:40Z</time></trkpt><trkpt lat="45.05211914523486" lon="9.677003238332386"><ele>56.66666666666667</ele><time>2026-04-24T09:02:41.999Z</time></trkpt><trkpt lat="45.05221048485335" lon="9.676985289331384"><ele>56.833333333333336</ele><time>2026-04-24T09:02:43.999Z</time></trkpt><trkpt lat="45.052291572412514" lon="9.6769788924172"><ele>57.0</ele><time>2026-04-24T09:02:45.999Z</time></trkpt><trkpt lat="45.0523605012905" lon="9.676923491929953"><ele>57.0</ele><time>2026-04-24T09:02:47.999Z</time></trkpt><trkpt lat="45.05244567350718" lon="9.676754852151463"><ele>57.0</ele><time>2026-04-24T09:02:49.999Z</time></trkpt><trkpt lat="45.052511345534164" lon="9.676662885942534"><ele>57.0</ele><time>2026-04-24T09:02:51.999Z</time></trkpt><trkpt lat="45.052596332205184" lon="9.676653931659903"><ele>57.0</ele><time>2026-04-24T09:02:53.999Z</time></trkpt><trkpt lat="45.05267622932984" lon="9.676664186470683"><ele>57.0</ele><time>2026-04-24T09:02:55.999Z</time></trkpt><trkpt lat="45.0527378287506" lon="9.67662863901871"><ele>57.166666666666664</ele><time>2026-04-24T09:02:57.999Z</time></trkpt><trkpt lat="45.05281123707832" lon="9.676606595615146"><ele>57.33333333333333</ele><time>2026-04-24T09:02:59.999Z</time></trkpt><trkpt lat="45.05289427261506" lon="9.676652190773618"><ele>57.5</ele><time>2026-04-24T09:03:01.999Z</time></trkpt><trkpt lat="45.05296166540217" lon="9.676702189444283"><ele>57.666666666666664</ele><time>2026-04-24T09:03:03.999Z</time></trkpt><trkpt lat="45.05304393855116" lon="9.676706786001002"><ele>57.83333333333333</ele><time>2026-04-24T09:03:05.999Z</time></trkpt><trkpt lat="45.05312085116721" lon="9.67670934492995"><ele>58.0</ele><time>2026-04-24T09:03:07.999Z</time></trkpt><trkpt lat="45.053191480470666" lon="9.676713536258934"><ele>58.0</ele><time>2026-04-24T09:03:09.999Z</time></trkpt><trkpt lat="45.053276432553155" lon="9.676690695781542"><ele>58.0</ele><time>2026-04-24T09:03:11.999Z</time></trkpt><trkpt lat="45.05338662141891" lon="9.676673217685954"><ele>58.0</ele><time>2026-04-24T09:03:13.999Z</time></trkpt><trkpt lat="45.053463951472835" lon="9.676668461767964"><ele>58.0</ele><time>2026-04-24T09:03:15.999Z</time></trkpt><trkpt lat="45.053554270209666" lon="9.67670960787444"><ele>58.0</ele><time>2026-04-24T09:03:17.999Z</time></trkpt><trkpt lat="45.05363713837159" lon="9.676720570303225"><ele>58.166666666666664</ele><time>2026-04-24T09:03:19.999Z</time></trkpt><trkpt lat="45.05372682216036" lon="9.676756909054811"><ele>58.33333333333333</ele><time>2026-04-24T09:03:21.999Z</time></trkpt><trkpt lat="45.05381490387963" lon="9.676804294876852"><ele>58.5</ele><time>2026-04-24T09:03:23.999Z</time></trkpt><trkpt lat="45.0538914151075" lon="9.676834679291856"><ele>58.66666666666667</ele><time>2026-04-24T09:03:26Z</time></trkpt><trkpt lat="45.05395956112529" lon="9.67686456921525"><ele>58.833333333333336</ele><time>2026-04-24T09:03:28Z</time></trkpt><trkpt lat="45.054025314519045" lon="9.676890896379923"><ele>59.0</ele><time>2026-04-24T09:03:30Z</time></trkpt><trkpt lat="45.0541014595817" lon="9.676943124675319"><ele>58.50000000000001</ele><time>2026-04-24T09:03:33Z</time></trkpt><trkpt lat="45.054126590560806" lon="9.677053523366961"><ele>58.0</ele><time>2026-04-24T09:03:36Z</time></trkpt><trkpt lat="45.05419076903338" lon="9.677103895481132"><ele>57.5</ele><time>2026-04-24T09:03:39Z</time></trkpt><trkpt lat="45.05425721114675" lon="9.677129815726909"><ele>57.0</ele><time>2026-04-24T09:03:41Z</time></trkpt><trkpt lat="45.05432802373915" lon="9.677127632709439"><ele>56.50000000000001</ele><time>2026-04-24T09:03:43Z</time></trkpt><trkpt lat="45.05438373146593" lon="9.677001361254286"><ele>56.0</ele><time>2026-04-24T09:03:46Z</time></trkpt><trkpt lat="45.05441785140945" lon="9.676899545733294"><ele>56.00000000000001</ele><time>2026-04-24T09:03:49Z</time></trkpt><trkpt lat="45.054482438377086" lon="9.67691437477107"><ele>56.0</ele><time>2026-04-24T09:03:51Z</time></trkpt><trkpt lat="45.05454518201673" lon="9.676852178773382"><ele>56.0</ele><time>2026-04-24T09:03:55Z</time></trkpt><trkpt lat="45.05460928875306" lon="9.676741957358177"><ele>56.0</ele><time>2026-04-24T09:03:59Z</time></trkpt><trkpt lat="45.054615161057725" lon="9.676638786735406"><ele>56.00000000000001</ele><time>2026-04-24T09:04:03Z</time></trkpt><trkpt lat="45.054551627188545" lon="9.67655091519059"><ele>56.0</ele><time>2026-04-24T09:04:05Z</time></trkpt><trkpt lat="45.05448906948157" lon="9.676465624458942"><ele>56.0</ele><time>2026-04-24T09:04:08Z</time></trkpt><trkpt lat="45.05442714272621" lon="9.67638537758203"><ele>55.99999999999999</ele><time>2026-04-24T09:04:11Z</time></trkpt><trkpt lat="45.05436771309145" lon="9.676278354205134"><ele>55.99999999999999</ele><time>2026-04-24T09:04:14Z</time></trkpt><trkpt lat="45.05433958040678" lon="9.676117202745335"><ele>56.0</ele><time>2026-04-24T09:04:17Z</time></trkpt><trkpt lat="45.054346785829516" lon="9.675967019838355"><ele>56.0</ele><time>2026-04-24T09:04:19Z</time></trkpt><trkpt lat="45.05435360213595" lon="9.675808386532815"><ele>55.833333333333336</ele><time>2026-04-24T09:04:21Z</time></trkpt><trkpt lat="45.054356192834824" lon="9.675684937014404"><ele>55.66666666666667</ele><time>2026-04-24T09:04:23Z</time></trkpt><trkpt lat="45.05434089286348" lon="9.67556195363383"><ele>55.5</ele><time>2026-04-24T09:04:25Z</time></trkpt><trkpt lat="45.05434739379522" lon="9.675434299406838"><ele>55.33333333333333</ele><time>2026-04-24T09:04:27Z</time></trkpt><trkpt lat="45.05434568811291" lon="9.675319026157476"><ele>55.166666666666664</ele><time>2026-04-24T09:04:29Z</time></trkpt><trkpt lat="45.054345181596965" lon="9.675191312406016"><ele>55.0</ele><time>2026-04-24T09:04:31Z</time></trkpt><trkpt lat="45.054340374671845" lon="9.6750510923307"><ele>55.0</ele><time>2026-04-24T09:04:33Z</time></trkpt><trkpt lat="45.05432495295799" lon="9.674906944353125"><ele>55.0</ele><time>2026-04-24T09:04:35Z</time></trkpt><trkpt lat="45.05433071056147" lon="9.674779923963833"><ele>55.0</ele><time>2026-04-24T09:04:37Z</time></trkpt><trkpt lat="45.05433265753564" lon="9.674661638620043"><ele>55.0</ele><time>2026-04-24T09:04:39Z</time></trkpt><trkpt lat="45.05433048279933" lon="9.674541982340743"><ele>55.0</ele><time>2026-04-24T09:04:41Z</time></trkpt><trkpt lat="45.05432046984157" lon="9.674400289731349"><ele>55.4</ele><time>2026-04-24T09:04:43Z</time></trkpt><trkpt lat="45.05431967930547" lon="9.674263848794808"><ele>55.8</ele><time>2026-04-24T09:04:45Z</time></trkpt><trkpt lat="45.054324636153105" lon="9.67413744267486"><ele>56.2</ele><time>2026-04-24T09:04:47Z</time></trkpt><trkpt lat="45.05432809462818" lon="9.673995368623908"><ele>56.6</ele><time>2026-04-24T09:04:49Z</time></trkpt><trkpt lat="45.05433006733749" lon="9.673869064581364"><ele>57.0</ele><time>2026-04-24T09:04:50.999Z</time></trkpt><trkpt lat="45.054335103696154" lon="9.673748022327603"><ele>57.0</ele><time>2026-04-24T09:04:52.999Z</time></trkpt><trkpt lat="45.05432814793424" lon="9.673628524836225"><ele>57.0</ele><time>2026-04-24T09:04:54.999Z</time></trkpt><trkpt lat="45.054347576080666" lon="9.673482446712706"><ele>57.0</ele><time>2026-04-24T09:04:56.999Z</time></trkpt><trkpt lat="45.05435753820999" lon="9.673350512628199"><ele>57.0</ele><time>2026-04-24T09:04:58.999Z</time></trkpt><trkpt lat="45.05435965971221" lon="9.673235085015964"><ele>57.0</ele><time>2026-04-24T09:05:00.999Z</time></trkpt><trkpt lat="45.05437696470016" lon="9.673107597374774"><ele>57.0</ele><time>2026-04-24T09:05:02.999Z</time></trkpt><trkpt lat="45.054383529674546" lon="9.672973099090436"><ele>57.0</ele><time>2026-04-24T09:05:04.999Z</time></trkpt><trkpt lat="45.05437252610279" lon="9.672836905614808"><ele>57.0</ele><time>2026-04-24T09:05:06.999Z</time></trkpt><trkpt lat="45.054371437883724" lon="9.672686980657364"><ele>57.0</ele><time>2026-04-24T09:05:08.999Z</time></trkpt><trkpt lat="45.05441087467353" lon="9.672605767796492"><ele>57.0</ele><time>2026-04-24T09:05:09.999Z</time></trkpt><trkpt lat="45.054364813048636" lon="9.672474432690919"><ele>57.0</ele><time>2026-04-24T09:05:11.999Z</time></trkpt><trkpt lat="45.0543819774578" lon="9.67234042361811"><ele>57.0</ele><time>2026-04-24T09:05:13.999Z</time></trkpt><trkpt lat="45.05436872571582" lon="9.672195060559918"><ele>57.0</ele><time>2026-04-24T09:05:15.999Z</time></trkpt><trkpt lat="45.05437800897888" lon="9.672043538494432"><ele>57.0</ele><time>2026-04-24T09:05:17.999Z</time></trkpt><trkpt lat="45.05440313084122" lon="9.671896683581425"><ele>57.0</ele><time>2026-04-24T09:05:19.999Z</time></trkpt><trkpt lat="45.05439731154262" lon="9.671743406523305"><ele>57.2</ele><time>2026-04-24T09:05:21.999Z</time></trkpt><trkpt lat="45.05440889957441" lon="9.671591816106206"><ele>57.400000000000006</ele><time>2026-04-24T09:05:23.999Z</time></trkpt><trkpt lat="45.05442208871821" lon="9.67145381265513"><ele>57.599999999999994</ele><time>2026-04-24T09:05:25.999Z</time></trkpt><trkpt lat="45.05442520887502" lon="9.671329655140802"><ele>57.8</ele><time>2026-04-24T09:05:27.999Z</time></trkpt><trkpt lat="45.0544199459462" lon="9.671211027689028"><ele>58.0</ele><time>2026-04-24T09:05:29.999Z</time></trkpt><trkpt lat="45.05442364808449" lon="9.671080080596518"><ele>58.0</ele><time>2026-04-24T09:05:32Z</time></trkpt><trkpt lat="45.05441942792891" lon="9.670942520776206"><ele>58.0</ele><time>2026-04-24T09:05:34Z</time></trkpt><trkpt lat="45.05443411439109" lon="9.670806049189354"><ele>58.0</ele><time>2026-04-24T09:05:36Z</time></trkpt><trkpt lat="45.054436771190495" lon="9.670660727398115"><ele>58.0</ele><time>2026-04-24T09:05:38Z</time></trkpt><trkpt lat="45.054443070137424" lon="9.67051607600179"><ele>58.0</ele><time>2026-04-24T09:05:40Z</time></trkpt><trkpt lat="45.05445352917243" lon="9.670375965374015"><ele>58.0</ele><time>2026-04-24T09:05:42Z</time></trkpt><trkpt lat="45.054439175435355" lon="9.670222206018487"><ele>58.0</ele><time>2026-04-24T09:05:44Z</time></trkpt><trkpt lat="45.05446560564912" lon="9.670081183385888"><ele>58.0</ele><time>2026-04-24T09:05:46Z</time></trkpt><trkpt lat="45.054481426683665" lon="9.669942681306493"><ele>58.0</ele><time>2026-04-24T09:05:48Z</time></trkpt><trkpt lat="45.054487205130535" lon="9.669812072495645"><ele>58.0</ele><time>2026-04-24T09:05:50Z</time></trkpt><trkpt lat="45.05449139306236" lon="9.669683292546683"><ele>58.0</ele><time>2026-04-24T09:05:52Z</time></trkpt><trkpt lat="45.054489023810824" lon="9.669560965782695"><ele>58.0</ele><time>2026-04-24T09:05:54Z</time></trkpt><trkpt lat="45.05448961043703" lon="9.66941796717601"><ele>58.0</ele><time>2026-04-24T09:05:56Z</time></trkpt><trkpt lat="45.05449947827512" lon="9.669275760725643"><ele>58.0</ele><time>2026-04-24T09:05:58Z</time></trkpt><trkpt lat="45.05450662596799" lon="9.669133888179"><ele>58.0</ele><time>2026-04-24T09:06:00Z</time></trkpt><trkpt lat="45.05452016311088" lon="9.668994360541898"><ele>58.2</ele><time>2026-04-24T09:06:02Z</time></trkpt><trkpt lat="45.05451650835914" lon="9.66886551888155"><ele>58.4</ele><time>2026-04-24T09:06:04Z</time></trkpt><trkpt lat="45.05451262469733" lon="9.66873331574401"><ele>58.60000000000001</ele><time>2026-04-24T09:06:06Z</time></trkpt><trkpt lat="45.05449901629064" lon="9.668594179703739"><ele>58.800000000000004</ele><time>2026-04-24T09:06:08Z</time></trkpt><trkpt lat="45.05450610774675" lon="9.668443506506055"><ele>59.0</ele><time>2026-04-24T09:06:10Z</time></trkpt><trkpt lat="45.054521230307884" lon="9.668287723378409"><ele>59.0</ele><time>2026-04-24T09:06:12Z</time></trkpt><trkpt lat="45.05452954201822" lon="9.668143675067196"><ele>59.00000000000001</ele><time>2026-04-24T09:06:14Z</time></trkpt><trkpt lat="45.05452753732251" lon="9.668018732150395"><ele>59.00000000000001</ele><time>2026-04-24T09:06:16Z</time></trkpt><trkpt lat="45.054519210216334" lon="9.667897184612865"><ele>59.0</ele><time>2026-04-24T09:06:18Z</time></trkpt><trkpt lat="45.054526443994774" lon="9.667776022208011"><ele>59.0</ele><time>2026-04-24T09:06:20Z</time></trkpt><trkpt lat="45.054538674321215" lon="9.667643034579317"><ele>59.2</ele><time>2026-04-24T09:06:22Z</time></trkpt><trkpt lat="45.054547078478414" lon="9.66749659011833"><ele>59.400000000000006</ele><time>2026-04-24T09:06:24Z</time></trkpt><trkpt lat="45.05454590577351" lon="9.667350046672926"><ele>59.6</ele><time>2026-04-24T09:06:26Z</time></trkpt><trkpt lat="45.054555121094765" lon="9.66721132134339"><ele>59.8</ele><time>2026-04-24T09:06:28Z</time></trkpt><trkpt lat="45.05456397273951" lon="9.667079433225593"><ele>60.0</ele><time>2026-04-24T09:06:30Z</time></trkpt><trkpt lat="45.054562881126294" lon="9.666955116921859"><ele>59.6</ele><time>2026-04-24T09:06:32Z</time></trkpt><trkpt lat="45.05455449472427" lon="9.666829146882966"><ele>59.2</ele><time>2026-04-24T09:06:34Z</time></trkpt><trkpt lat="45.05455416124862" lon="9.666686939871669"><ele>58.8</ele><time>2026-04-24T09:06:36Z</time></trkpt><trkpt lat="45.05456448935991" lon="9.666535800436446"><ele>58.4</ele><time>2026-04-24T09:06:38Z</time></trkpt><trkpt lat="45.054565201783454" lon="9.666378705110823"><ele>58.0</ele><time>2026-04-24T09:06:40Z</time></trkpt><trkpt lat="45.054561383413514" lon="9.666239591682608"><ele>58.2</ele><time>2026-04-24T09:06:42Z</time></trkpt><trkpt lat="45.05456746686836" lon="9.666105039259952"><ele>58.4</ele><time>2026-04-24T09:06:44Z</time></trkpt><trkpt lat="45.054563398501614" lon="9.665975609674906"><ele>58.60000000000001</ele><time>2026-04-24T09:06:46Z</time></trkpt><trkpt lat="45.054555873141126" lon="9.665849134665423"><ele>58.800000000000004</ele><time>2026-04-24T09:06:48Z</time></trkpt><trkpt lat="45.05456260400897" lon="9.665736073428231"><ele>59.0</ele><time>2026-04-24T09:06:50Z</time></trkpt><trkpt lat="45.054584236394554" lon="9.665605836903568"><ele>59.0</ele><time>2026-04-24T09:06:52Z</time></trkpt><trkpt lat="45.05458417684588" lon="9.665458692817504"><ele>59.00000000000001</ele><time>2026-04-24T09:06:54Z</time></trkpt><trkpt lat="45.054587460160775" lon="9.665322943305716"><ele>59.00000000000001</ele><time>2026-04-24T09:06:56Z</time></trkpt><trkpt lat="45.054589563375075" lon="9.665191588803133"><ele>59.0</ele><time>2026-04-24T09:06:58Z</time></trkpt><trkpt lat="45.05459425499492" lon="9.665065489619023"><ele>59.0</ele><time>2026-04-24T09:06:59.999Z</time></trkpt><trkpt lat="45.0545928759994" lon="9.664937154477993"><ele>59.00000000000001</ele><time>2026-04-24T09:07:01.999Z</time></trkpt><trkpt lat="45.05459641881862" lon="9.66481135759672"><ele>59.0</ele><time>2026-04-24T09:07:03.999Z</time></trkpt><trkpt lat="45.054608705807105" lon="9.664692301847628"><ele>59.0</ele><time>2026-04-24T09:07:05.999Z</time></trkpt><trkpt lat="45.054608089225546" lon="9.664584170881346"><ele>59.0</ele><time>2026-04-24T09:07:09.999Z</time></trkpt><trkpt lat="45.054617674294896" lon="9.664468659268593"><ele>59.00000000000001</ele><time>2026-04-24T09:07:12.999Z</time></trkpt><trkpt lat="45.05460842969481" lon="9.664360293349393"><ele>59.0</ele><time>2026-04-24T09:07:14.999Z</time></trkpt><trkpt lat="45.054631816947925" lon="9.664237736700075"><ele>59.0</ele><time>2026-04-24T09:07:16.999Z</time></trkpt><trkpt lat="45.05463727306623" lon="9.664097819596162"><ele>59.00000000000001</ele><time>2026-04-24T09:07:18.999Z</time></trkpt><trkpt lat="45.054638013305286" lon="9.663948759032424"><ele>59.00000000000001</ele><time>2026-04-24T09:07:20.999Z</time></trkpt><trkpt lat="45.054648958594946" lon="9.66379574570188"><ele>59.0</ele><time>2026-04-24T09:07:22.999Z</time></trkpt><trkpt lat="45.05464967464606" lon="9.663653579348075"><ele>59.0</ele><time>2026-04-24T09:07:24.999Z</time></trkpt><trkpt lat="45.05465588694641" lon="9.663514291630934"><ele>59.400000000000006</ele><time>2026-04-24T09:07:26.999Z</time></trkpt><trkpt lat="45.05465490164649" lon="9.663384361699704"><ele>59.800000000000004</ele><time>2026-04-24T09:07:28.999Z</time></trkpt><trkpt lat="45.05465523168489" lon="9.6632559204485"><ele>60.199999999999996</ele><time>2026-04-24T09:07:30.999Z</time></trkpt><trkpt lat="45.05465411260598" lon="9.663119622853184"><ele>60.599999999999994</ele><time>2026-04-24T09:07:32.999Z</time></trkpt><trkpt lat="45.054657149683685" lon="9.662971066040223"><ele>61.0</ele><time>2026-04-24T09:07:34.999Z</time></trkpt><trkpt lat="45.05466208975351" lon="9.662817006583255"><ele>61.199999999999996</ele><time>2026-04-24T09:07:36.999Z</time></trkpt><trkpt lat="45.05467649646589" lon="9.662671133171038"><ele>61.39999999999999</ele><time>2026-04-24T09:07:39Z</time></trkpt><trkpt lat="45.05467707834991" lon="9.662528636349814"><ele>61.6</ele><time>2026-04-24T09:07:41Z</time></trkpt><trkpt lat="45.05468391485538" lon="9.662396309827304"><ele>61.8</ele><time>2026-04-24T09:07:43Z</time></trkpt><trkpt lat="45.054686418099124" lon="9.662266067291874"><ele>62.0</ele><time>2026-04-24T09:07:45Z</time></trkpt><trkpt lat="45.054693040353435" lon="9.662125850075876"><ele>62.0</ele><time>2026-04-24T09:07:47Z</time></trkpt><trkpt lat="45.054697474283" lon="9.661978609328536"><ele>62.0</ele><time>2026-04-24T09:07:49Z</time></trkpt><trkpt lat="45.054702433415095" lon="9.66183888437125"><ele>62.0</ele><time>2026-04-24T09:07:51Z</time></trkpt><trkpt lat="45.05470866342969" lon="9.66171136843125"><ele>62.0</ele><time>2026-04-24T09:07:53Z</time></trkpt><trkpt lat="45.05472021094546" lon="9.661589855132842"><ele>62.0</ele><time>2026-04-24T09:07:55Z</time></trkpt><trkpt lat="45.054719131906126" lon="9.661468565239442"><ele>61.8</ele><time>2026-04-24T09:07:57Z</time></trkpt><trkpt lat="45.05473078038513" lon="9.661338489897975"><ele>61.6</ele><time>2026-04-24T09:07:59Z</time></trkpt><trkpt lat="45.05472555047829" lon="9.661204771914662"><ele>61.39999999999999</ele><time>2026-04-24T09:08:01Z</time></trkpt><trkpt lat="45.054723297152144" lon="9.661094903437274"><ele>61.199999999999996</ele><time>2026-04-24T09:08:03Z</time></trkpt><trkpt lat="45.05473437820482" lon="9.660958726455128"><ele>61.0</ele><time>2026-04-24T09:08:05Z</time></trkpt><trkpt lat="45.054735899387055" lon="9.660813380558952"><ele>61.0</ele><time>2026-04-24T09:08:07Z</time></trkpt><trkpt lat="45.054738637308134" lon="9.660662968794576"><ele>60.99999999999999</ele><time>2026-04-24T09:08:09Z</time></trkpt><trkpt lat="45.05475215734071" lon="9.66052121798421"><ele>60.99999999999999</ele><time>2026-04-24T09:08:11Z</time></trkpt><trkpt lat="45.05474826459004" lon="9.660383166530254"><ele>61.0</ele><time>2026-04-24T09:08:13Z</time></trkpt><trkpt lat="45.05474329487237" lon="9.66023090392218"><ele>61.0</ele><time>2026-04-24T09:08:15Z</time></trkpt><trkpt lat="45.05476791119354" lon="9.660075496890753"><ele>60.4</ele><time>2026-04-24T09:08:17Z</time></trkpt><trkpt lat="45.05477854447502" lon="9.65993121489962"><ele>59.8</ele><time>2026-04-24T09:08:19Z</time></trkpt><trkpt lat="45.054789047773546" lon="9.65979801849775"><ele>59.199999999999996</ele><time>2026-04-24T09:08:21Z</time></trkpt><trkpt lat="45.0547967640683" lon="9.659660622418508"><ele>58.599999999999994</ele><time>2026-04-24T09:08:23Z</time></trkpt><trkpt lat="45.05480564539268" lon="9.659542257518313"><ele>58.0</ele><time>2026-04-24T09:08:25Z</time></trkpt><trkpt lat="45.054809026833624" lon="9.659431359581534"><ele>57.85714285714286</ele><time>2026-04-24T09:08:27Z</time></trkpt><trkpt lat="45.054807279607104" lon="9.6593328657757"><ele>57.714285714285715</ele><time>2026-04-24T09:08:29Z</time></trkpt><trkpt lat="45.054812082110935" lon="9.659230425182496"><ele>57.57142857142857</ele><time>2026-04-24T09:08:31Z</time></trkpt><trkpt lat="45.05483816518233" lon="9.659128384522594"><ele>57.42857142857143</ele><time>2026-04-24T09:08:33Z</time></trkpt><trkpt lat="45.054876539253286" lon="9.659055763113324"><ele>57.28571428571428</ele><time>2026-04-24T09:08:35Z</time></trkpt><trkpt lat="45.05492361889956" lon="9.658971101515144"><ele>57.14285714285714</ele><time>2026-04-24T09:08:37Z</time></trkpt><trkpt lat="45.0549856461391" lon="9.658887958598275"><ele>57.0</ele><time>2026-04-24T09:08:39Z</time></trkpt><trkpt lat="45.05499481197701" lon="9.65877489878767"><ele>57.0</ele><time>2026-04-24T09:08:41Z</time></trkpt><trkpt lat="45.054992467991404" lon="9.658674252739756"><ele>57.0</ele><time>2026-04-24T09:08:43Z</time></trkpt><trkpt lat="45.05495884495139" lon="9.658592686540208"><ele>57.0</ele><time>2026-04-24T09:08:45Z</time></trkpt><trkpt lat="45.054900819725326" lon="9.658504781339545"><ele>57.0</ele><time>2026-04-24T09:08:47Z</time></trkpt><trkpt lat="45.054837027790654" lon="9.658544591185352"><ele>57.0</ele><time>2026-04-24T09:08:48Z</time></trkpt><trkpt lat="45.054864711651824" lon="9.658394253574354"><ele>57.0</ele><time>2026-04-24T09:08:48.999Z</time></trkpt><trkpt lat="45.054840177169744" lon="9.65828535427063"><ele>57.0</ele><time>2026-04-24T09:08:50.999Z</time></trkpt><trkpt lat="45.054839802842416" lon="9.658149269159159"><ele>57.0</ele><time>2026-04-24T09:08:52.999Z</time></trkpt><trkpt lat="45.05482687058712" lon="9.658005955903139"><ele>57.0</ele><time>2026-04-24T09:08:54.999Z</time></trkpt><trkpt lat="45.05482202893679" lon="9.657857653245841"><ele>57.0</ele><time>2026-04-24T09:08:56.999Z</time></trkpt><trkpt lat="45.054833284857125" lon="9.657711181432505"><ele>57.0</ele><time>2026-04-24T09:08:58.999Z</time></trkpt><trkpt lat="45.05483616232203" lon="9.657580656899936"><ele>57.0</ele><time>2026-04-24T09:09:00.999Z</time></trkpt><trkpt lat="45.05483205820104" lon="9.657427336664917"><ele>57.0</ele><time>2026-04-24T09:09:02.999Z</time></trkpt><trkpt lat="45.05482621444479" lon="9.657292546690469"><ele>57.0</ele><time>2026-04-24T09:09:04.999Z</time></trkpt><trkpt lat="45.05483610821927" lon="9.657166689010888"><ele>57.0</ele><time>2026-04-24T09:09:06.999Z</time></trkpt><trkpt lat="45.054843842019544" lon="9.657030549983318"><ele>57.0</ele><time>2026-04-24T09:09:08.999Z</time></trkpt><trkpt lat="45.054849639402875" lon="9.65688124442016"><ele>57.0</ele><time>2026-04-24T09:09:10.999Z</time></trkpt><trkpt lat="45.054852638678305" lon="9.656723292764964"><ele>57.0</ele><time>2026-04-24T09:09:12.999Z</time></trkpt><trkpt lat="45.05486004772549" lon="9.656570779532762"><ele>57.0</ele><time>2026-04-24T09:09:14.999Z</time></trkpt><trkpt lat="45.05486276011364" lon="9.656410291541514"><ele>57.0</ele><time>2026-04-24T09:09:16.999Z</time></trkpt><trkpt lat="45.054856028853536" lon="9.656250694099342"><ele>57.0</ele><time>2026-04-24T09:09:18.999Z</time></trkpt><trkpt lat="45.05486165118148" lon="9.656094459925619"><ele>57.0</ele><time>2026-04-24T09:09:20.999Z</time></trkpt><trkpt lat="45.0548632849396" lon="9.655949954192659"><ele>57.0</ele><time>2026-04-24T09:09:22.999Z</time></trkpt><trkpt lat="45.0548629650547" lon="9.655804082996298"><ele>57.0</ele><time>2026-04-24T09:09:24.999Z</time></trkpt><trkpt lat="45.05486283826589" lon="9.655663927278399"><ele>57.0</ele><time>2026-04-24T09:09:26.999Z</time></trkpt><trkpt lat="45.05486545659427" lon="9.655510710271832"><ele>57.0</ele><time>2026-04-24T09:09:28.999Z</time></trkpt><trkpt lat="45.05486922416614" lon="9.655349231281733"><ele>57.400000000000006</ele><time>2026-04-24T09:09:30.999Z</time></trkpt><trkpt lat="45.05486403768459" lon="9.655191090962866"><ele>57.800000000000004</ele><time>2026-04-24T09:09:32.999Z</time></trkpt><trkpt lat="45.05486538054045" lon="9.655050720448838"><ele>58.2</ele><time>2026-04-24T09:09:34.999Z</time></trkpt><trkpt lat="45.05487356307298" lon="9.654919939367169"><ele>58.6</ele><time>2026-04-24T09:09:36.999Z</time></trkpt><trkpt lat="45.05487790868275" lon="9.65478313777134"><ele>59.0</ele><time>2026-04-24T09:09:38.999Z</time></trkpt><trkpt lat="45.05488024982725" lon="9.654625149245792"><ele>59.0</ele><time>2026-04-24T09:09:40.999Z</time></trkpt><trkpt lat="45.05488730920714" lon="9.654476174646467"><ele>59.00000000000001</ele><time>2026-04-24T09:09:42.999Z</time></trkpt><trkpt lat="45.05489131932339" lon="9.65432872843776"><ele>59.00000000000001</ele><time>2026-04-24T09:09:45Z</time></trkpt><trkpt lat="45.05488700075359" lon="9.654187584385014"><ele>59.0</ele><time>2026-04-24T09:09:47Z</time></trkpt><trkpt lat="45.054881727002666" lon="9.654051814888007"><ele>59.0</ele><time>2026-04-24T09:09:49Z</time></trkpt><trkpt lat="45.05490763936848" lon="9.653926465166267"><ele>59.0</ele><time>2026-04-24T09:09:51Z</time></trkpt><trkpt lat="45.05490240970473" lon="9.653781772615066"><ele>59.00000000000001</ele><time>2026-04-24T09:09:53Z</time></trkpt><trkpt lat="45.05489971993671" lon="9.653629146725121"><ele>59.00000000000001</ele><time>2026-04-24T09:09:55Z</time></trkpt><trkpt lat="45.05488368462313" lon="9.653470363260702"><ele>59.0</ele><time>2026-04-24T09:09:57Z</time></trkpt><trkpt lat="45.0548943778041" lon="9.653312146855807"><ele>59.0</ele><time>2026-04-24T09:09:59Z</time></trkpt><trkpt lat="45.05489987757658" lon="9.653164263502395"><ele>59.0</ele><time>2026-04-24T09:10:01Z</time></trkpt><trkpt lat="45.054913619235506" lon="9.653028857488664"><ele>59.00000000000001</ele><time>2026-04-24T09:10:03Z</time></trkpt><trkpt lat="45.05492122063519" lon="9.652894960665707"><ele>59.00000000000001</ele><time>2026-04-24T09:10:05Z</time></trkpt><trkpt lat="45.054930788856296" lon="9.652758672102973"><ele>59.0</ele><time>2026-04-24T09:10:07Z</time></trkpt><trkpt lat="45.0549401443921" lon="9.65260821103396"><ele>59.0</ele><time>2026-04-24T09:10:09Z</time></trkpt><trkpt lat="45.05495725118938" lon="9.652459304294423"><ele>59.400000000000006</ele><time>2026-04-24T09:10:11Z</time></trkpt><trkpt lat="45.05496626215054" lon="9.652315836390558"><ele>59.800000000000004</ele><time>2026-04-24T09:10:13Z</time></trkpt><trkpt lat="45.054972639767755" lon="9.652176013410175"><ele>60.199999999999996</ele><time>2026-04-24T09:10:15Z</time></trkpt><trkpt lat="45.05497380571499" lon="9.652044461423221"><ele>60.599999999999994</ele><time>2026-04-24T09:10:17Z</time></trkpt><trkpt lat="45.054976752881196" lon="9.65191465052082"><ele>61.0</ele><time>2026-04-24T09:10:19Z</time></trkpt><trkpt lat="45.05498535796825" lon="9.651792357449033"><ele>61.0</ele><time>2026-04-24T09:10:21Z</time></trkpt><trkpt lat="45.0549811948062" lon="9.651649674913454"><ele>60.99999999999999</ele><time>2026-04-24T09:10:23Z</time></trkpt><trkpt lat="45.05498381592348" lon="9.651500738273084"><ele>60.99999999999999</ele><time>2026-04-24T09:10:25Z</time></trkpt><trkpt lat="45.05497854649378" lon="9.651339995290892"><ele>61.0</ele><time>2026-04-24T09:10:27Z</time></trkpt><trkpt lat="45.05499985787244" lon="9.651185731631273"><ele>61.0</ele><time>2026-04-24T09:10:29Z</time></trkpt><trkpt lat="45.05499101468516" lon="9.651022813801244"><ele>60.199999999999996</ele><time>2026-04-24T09:10:31Z</time></trkpt><trkpt lat="45.05498910864917" lon="9.650870097234591"><ele>59.39999999999999</ele><time>2026-04-24T09:10:33Z</time></trkpt><trkpt lat="45.054988855631365" lon="9.650729854545048"><ele>58.6</ele><time>2026-04-24T09:10:35Z</time></trkpt><trkpt lat="45.0549966520628" lon="9.65059802450657"><ele>57.8</ele><time>2026-04-24T09:10:37Z</time></trkpt><trkpt lat="45.05500074121616" lon="9.65045786019146"><ele>57.0</ele><time>2026-04-24T09:10:39Z</time></trkpt><trkpt lat="45.05500041104897" lon="9.650298670562641"><ele>57.2</ele><time>2026-04-24T09:10:41Z</time></trkpt><trkpt lat="45.055004416825014" lon="9.65013049764718"><ele>57.400000000000006</ele><time>2026-04-24T09:10:43Z</time></trkpt><trkpt lat="45.05500799578479" lon="9.64997352749898"><ele>57.599999999999994</ele><time>2026-04-24T09:10:45Z</time></trkpt><trkpt lat="45.05500498623381" lon="9.64983229282672"><ele>57.8</ele><time>2026-04-24T09:10:47Z</time></trkpt><trkpt lat="45.055005555890055" lon="9.649692601340012"><ele>58.0</ele><time>2026-04-24T09:10:49Z</time></trkpt><trkpt lat="45.055007555676866" lon="9.64955978724238"><ele>58.4</ele><time>2026-04-24T09:10:51Z</time></trkpt><trkpt lat="45.05500630235735" lon="9.649427991844888"><ele>58.8</ele><time>2026-04-24T09:10:52.999Z</time></trkpt><trkpt lat="45.05500709323539" lon="9.649291589982898"><ele>59.2</ele><time>2026-04-24T09:10:54.999Z</time></trkpt><trkpt lat="45.055008188171286" lon="9.649142279658454"><ele>59.6</ele><time>2026-04-24T09:10:56.999Z</time></trkpt><trkpt lat="45.055004366014835" lon="9.64898924559957"><ele>60.0</ele><time>2026-04-24T09:10:58.999Z</time></trkpt><trkpt lat="45.05500153549836" lon="9.648829355700753"><ele>60.0</ele><time>2026-04-24T09:11:00.999Z</time></trkpt><trkpt lat="45.05500542485118" lon="9.648669309467323"><ele>60.0</ele><time>2026-04-24T09:11:02.999Z</time></trkpt><trkpt lat="45.055005790067106" lon="9.6485047276557"><ele>60.0</ele><time>2026-04-24T09:11:04.999Z</time></trkpt><trkpt lat="45.05502615657201" lon="9.64834375908066"><ele>60.0</ele><time>2026-04-24T09:11:06.999Z</time></trkpt><trkpt lat="45.0550142103029" lon="9.64818479480897"><ele>60.2</ele><time>2026-04-24T09:11:08.999Z</time></trkpt><trkpt lat="45.05502469229446" lon="9.648036289273941"><ele>60.4</ele><time>2026-04-24T09:11:10.999Z</time></trkpt><trkpt lat="45.05503160708128" lon="9.647901351986194"><ele>60.599999999999994</ele><time>2026-04-24T09:11:12.999Z</time></trkpt><trkpt lat="45.05503426689974" lon="9.647751582029446"><ele>60.8</ele><time>2026-04-24T09:11:14.999Z</time></trkpt><trkpt lat="45.055033892636814" lon="9.647592748538148"><ele>61.0</ele><time>2026-04-24T09:11:16.999Z</time></trkpt><trkpt lat="45.055038010258734" lon="9.647448911395506"><ele>60.599999999999994</ele><time>2026-04-24T09:11:18.999Z</time></trkpt><trkpt lat="45.05504893924228" lon="9.647287075782874"><ele>60.199999999999996</ele><time>2026-04-24T09:11:20.999Z</time></trkpt><trkpt lat="45.05505952244491" lon="9.647134259368732"><ele>59.800000000000004</ele><time>2026-04-24T09:11:22.999Z</time></trkpt><trkpt lat="45.055065994267416" lon="9.647004044872741"><ele>59.400000000000006</ele><time>2026-04-24T09:11:24.999Z</time></trkpt><trkpt lat="45.055069813720884" lon="9.64685649510226"><ele>59.0</ele><time>2026-04-24T09:11:26.999Z</time></trkpt><trkpt lat="45.05508020449457" lon="9.646721630158991"><ele>59.00000000000001</ele><time>2026-04-24T09:11:28.999Z</time></trkpt><trkpt lat="45.05508874072688" lon="9.646593137664855"><ele>59.0</ele><time>2026-04-24T09:11:30.999Z</time></trkpt><trkpt lat="45.055083323462725" lon="9.64646968961788"><ele>59.0</ele><time>2026-04-24T09:11:32.999Z</time></trkpt><trkpt lat="45.0550933143653" lon="9.646356353288574"><ele>59.0</ele><time>2026-04-24T09:11:34.999Z</time></trkpt><trkpt lat="45.055100453394644" lon="9.646251629494802"><ele>59.00000000000001</ele><time>2026-04-24T09:11:36.999Z</time></trkpt><trkpt lat="45.05509827332006" lon="9.646135789120917"><ele>59.0</ele><time>2026-04-24T09:11:39.999Z</time></trkpt><trkpt lat="45.05509327935313" lon="9.646002521421188"><ele>59.00000000000001</ele><time>2026-04-24T09:11:42.999Z</time></trkpt><trkpt lat="45.055117088524156" lon="9.645899614002989"><ele>59.0</ele><time>2026-04-24T09:11:44.999Z</time></trkpt><trkpt lat="45.055125519538365" lon="9.645806731232888"><ele>59.0</ele><time>2026-04-24T09:11:46.999Z</time></trkpt><trkpt lat="45.05514099139801" lon="9.645685228042607"><ele>59.0</ele><time>2026-04-24T09:11:50Z</time></trkpt><trkpt lat="45.05513700467809" lon="9.645564538148935"><ele>59.00000000000001</ele><time>2026-04-24T09:11:53Z</time></trkpt><trkpt lat="45.05514443232042" lon="9.645446486151952"><ele>59.0</ele><time>2026-04-24T09:11:56Z</time></trkpt><trkpt lat="45.055144698214065" lon="9.645349689780668"><ele>59.00000000000001</ele><time>2026-04-24T09:11:58Z</time></trkpt><trkpt lat="45.0551358058482" lon="9.645248282837025"><ele>59.0</ele><time>2026-04-24T09:12:00Z</time></trkpt><trkpt lat="45.05513895224177" lon="9.645149558591015"><ele>59.0</ele><time>2026-04-24T09:12:02Z</time></trkpt><trkpt lat="45.0551352777828" lon="9.645033684805556"><ele>59.0</ele><time>2026-04-24T09:12:04Z</time></trkpt><trkpt lat="45.05513739254151" lon="9.64489849062841"><ele>59.00000000000001</ele><time>2026-04-24T09:12:06Z</time></trkpt><trkpt lat="45.055136368483936" lon="9.6447818286532"><ele>59.0</ele><time>2026-04-24T09:12:08Z</time></trkpt><trkpt lat="45.05513500222838" lon="9.6446796340772"><ele>59.00000000000001</ele><time>2026-04-24T09:12:10Z</time></trkpt><trkpt lat="45.055138748086115" lon="9.644566651203865"><ele>59.0</ele><time>2026-04-24T09:12:12Z</time></trkpt><trkpt lat="45.055132674775216" lon="9.644463596915598"><ele>59.0</ele><time>2026-04-24T09:12:14Z</time></trkpt><trkpt lat="45.055139083329365" lon="9.644369236076129"><ele>59.0</ele><time>2026-04-24T09:12:16Z</time></trkpt><trkpt lat="45.055140904974124" lon="9.644231477737522"><ele>59.00000000000001</ele><time>2026-04-24T09:12:19Z</time></trkpt><trkpt lat="45.05514417422145" lon="9.644112769897692"><ele>59.0</ele><time>2026-04-24T09:12:21Z</time></trkpt><trkpt lat="45.05513996459987" lon="9.643993264709282"><ele>59.0</ele><time>2026-04-24T09:12:23Z</time></trkpt><trkpt lat="45.05515249883986" lon="9.643847612739895"><ele>59.00000000000001</ele><time>2026-04-24T09:12:25Z</time></trkpt><trkpt lat="45.05515647678439" lon="9.643709408346558"><ele>59.00000000000001</ele><time>2026-04-24T09:12:27Z</time></trkpt><trkpt lat="45.05515981831794" lon="9.643562057677906"><ele>59.0</ele><time>2026-04-24T09:12:29Z</time></trkpt><trkpt lat="45.055164152410825" lon="9.643430069044294"><ele>59.0</ele><time>2026-04-24T09:12:31Z</time></trkpt><trkpt lat="45.05517527651442" lon="9.643301511189541"><ele>59.0</ele><time>2026-04-24T09:12:33Z</time></trkpt><trkpt lat="45.0551754231836" lon="9.643181839987019"><ele>59.00000000000001</ele><time>2026-04-24T09:12:35Z</time></trkpt><trkpt lat="45.055172669884556" lon="9.643067527304444"><ele>59.00000000000001</ele><time>2026-04-24T09:12:37Z</time></trkpt><trkpt lat="45.05517684379646" lon="9.642940291203624"><ele>59.0</ele><time>2026-04-24T09:12:39Z</time></trkpt><trkpt lat="45.05517813386445" lon="9.642790055160235"><ele>59.0</ele><time>2026-04-24T09:12:41Z</time></trkpt><trkpt lat="45.05518164049179" lon="9.64264126861682"><ele>58.800000000000004</ele><time>2026-04-24T09:12:43Z</time></trkpt><trkpt lat="45.05518984921722" lon="9.642503922198813"><ele>58.60000000000001</ele><time>2026-04-24T09:12:45Z</time></trkpt><trkpt lat="45.05519240538826" lon="9.642345256949724"><ele>58.4</ele><time>2026-04-24T09:12:47Z</time></trkpt><trkpt lat="45.05520507754209" lon="9.642217365995077"><ele>58.2</ele><time>2026-04-24T09:12:48.999Z</time></trkpt><trkpt lat="45.05521856215675" lon="9.642094390997872"><ele>58.0</ele><time>2026-04-24T09:12:50.999Z</time></trkpt><trkpt lat="45.0552250859369" lon="9.64197226137046"><ele>58.0</ele><time>2026-04-24T09:12:52.999Z</time></trkpt><trkpt lat="45.0552314265809" lon="9.641850265845754"><ele>58.0</ele><time>2026-04-24T09:12:54.999Z</time></trkpt><trkpt lat="45.05523911314819" lon="9.641727486918263"><ele>58.0</ele><time>2026-04-24T09:12:56.999Z</time></trkpt><trkpt lat="45.05523059519237" lon="9.641580150555084"><ele>58.0</ele><time>2026-04-24T09:12:58.999Z</time></trkpt><trkpt lat="45.0552318336162" lon="9.641432707792953"><ele>58.0</ele><time>2026-04-24T09:13:00.999Z</time></trkpt><trkpt lat="45.05522989886828" lon="9.641284593831283"><ele>58.2</ele><time>2026-04-24T09:13:02.999Z</time></trkpt><trkpt lat="45.055230508554985" lon="9.641129423729417"><ele>58.4</ele><time>2026-04-24T09:13:04.999Z</time></trkpt><trkpt lat="45.0552327481412" lon="9.640985565449107"><ele>58.60000000000001</ele><time>2026-04-24T09:13:06.999Z</time></trkpt><trkpt lat="45.055251798814375" lon="9.640856735020897"><ele>58.800000000000004</ele><time>2026-04-24T09:13:08.999Z</time></trkpt><trkpt lat="45.05525460882149" lon="9.640726649709212"><ele>59.0</ele><time>2026-04-24T09:13:10.999Z</time></trkpt><trkpt lat="45.05526005021739" lon="9.64059265171154"><ele>59.0</ele><time>2026-04-24T09:13:12.999Z</time></trkpt><trkpt lat="45.05526480206144" lon="9.640456792411069"><ele>59.00000000000001</ele><time>2026-04-24T09:13:14.999Z</time></trkpt><trkpt lat="45.05525919019108" lon="9.640321569458349"><ele>59.00000000000001</ele><time>2026-04-24T09:13:16.999Z</time></trkpt><trkpt lat="45.05525967399037" lon="9.640183861332735"><ele>59.0</ele><time>2026-04-24T09:13:18.999Z</time></trkpt><trkpt lat="45.05525756731153" lon="9.640042822859918"><ele>59.0</ele><time>2026-04-24T09:13:20.999Z</time></trkpt><trkpt lat="45.05525737409893" lon="9.63990899312269"><ele>59.2</ele><time>2026-04-24T09:13:22.999Z</time></trkpt><trkpt lat="45.055257953456966" lon="9.639765605076148"><ele>59.400000000000006</ele><time>2026-04-24T09:13:24.999Z</time></trkpt><trkpt lat="45.05525799396717" lon="9.639617741020725"><ele>59.6</ele><time>2026-04-24T09:13:26.999Z</time></trkpt><trkpt lat="45.05525925563396" lon="9.639475740120954"><ele>59.8</ele><time>2026-04-24T09:13:28.999Z</time></trkpt><trkpt lat="45.05525833761603" lon="9.639330341646058"><ele>60.0</ele><time>2026-04-24T09:13:30.999Z</time></trkpt><trkpt lat="45.05526439551071" lon="9.639201748066542"><ele>60.0</ele><time>2026-04-24T09:13:32.999Z</time></trkpt><trkpt lat="45.055278434775055" lon="9.63907695914257"><ele>60.0</ele><time>2026-04-24T09:13:34.999Z</time></trkpt><trkpt lat="45.05527622315516" lon="9.63896392946361"><ele>60.0</ele><time>2026-04-24T09:13:36.999Z</time></trkpt><trkpt lat="45.05526205816093" lon="9.638845579552845"><ele>60.0</ele><time>2026-04-24T09:13:38.999Z</time></trkpt><trkpt lat="45.05529487352347" lon="9.638730800479028"><ele>60.0</ele><time>2026-04-24T09:13:40.999Z</time></trkpt><trkpt lat="45.055269739110514" lon="9.638635629809054"><ele>60.0</ele><time>2026-04-24T09:13:42.999Z</time></trkpt><trkpt lat="45.0552262811579" lon="9.638526653784101"><ele>60.2</ele><time>2026-04-24T09:13:45.999Z</time></trkpt><trkpt lat="45.05527715021374" lon="9.638370298661426"><ele>60.4</ele><time>2026-04-24T09:13:47.999Z</time></trkpt><trkpt lat="45.05521442416732" lon="9.638273148988095"><ele>60.599999999999994</ele><time>2026-04-24T09:13:50.999Z</time></trkpt><trkpt lat="45.05523260863218" lon="9.638165936590605"><ele>60.8</ele><time>2026-04-24T09:13:56Z</time></trkpt><trkpt lat="45.05524524204117" lon="9.638028040332124"><ele>61.0</ele><time>2026-04-24T09:13:58Z</time></trkpt><trkpt lat="45.0552562504817" lon="9.637892406456386"><ele>60.599999999999994</ele><time>2026-04-24T09:14:00Z</time></trkpt><trkpt lat="45.05526252624964" lon="9.637758906400428"><ele>60.199999999999996</ele><time>2026-04-24T09:14:02Z</time></trkpt><trkpt lat="45.055268747568924" lon="9.637624956055108"><ele>59.800000000000004</ele><time>2026-04-24T09:14:04Z</time></trkpt><trkpt lat="45.055274407087204" lon="9.637498939052223"><ele>59.400000000000006</ele><time>2026-04-24T09:14:06Z</time></trkpt><trkpt lat="45.05527128355168" lon="9.63735997521473"><ele>59.0</ele><time>2026-04-24T09:14:08Z</time></trkpt><trkpt lat="45.055262884613136" lon="9.637240775684308"><ele>59.00000000000001</ele><time>2026-04-24T09:14:10Z</time></trkpt><trkpt lat="45.05531876347748" lon="9.637112599697184"><ele>59.0</ele><time>2026-04-24T09:14:12Z</time></trkpt><trkpt lat="45.055323952342704" lon="9.636993079072937"><ele>59.0</ele><time>2026-04-24T09:14:14Z</time></trkpt><trkpt lat="45.055328043793395" lon="9.636886639437733"><ele>59.0</ele><time>2026-04-24T09:14:16Z</time></trkpt><trkpt lat="45.0553310876921" lon="9.636791314449614"><ele>59.00000000000001</ele><time>2026-04-24T09:14:18Z</time></trkpt><trkpt lat="45.055333783982896" lon="9.63667998598165"><ele>59.0</ele><time>2026-04-24T09:14:20Z</time></trkpt><trkpt lat="45.05533639064902" lon="9.63658196557293"><ele>58.66666666666667</ele><time>2026-04-24T09:14:22Z</time></trkpt><trkpt lat="45.05533910647408" lon="9.636480043658489"><ele>58.333333333333336</ele><time>2026-04-24T09:14:24Z</time></trkpt><trkpt lat="45.055342645960785" lon="9.636347210733131"><ele>58.0</ele><time>2026-04-24T09:14:26Z</time></trkpt><trkpt lat="45.05534603309454" lon="9.63621946086971"><ele>57.66666666666667</ele><time>2026-04-24T09:14:28Z</time></trkpt><trkpt lat="45.0553494215895" lon="9.63609109857571"><ele>57.333333333333336</ele><time>2026-04-24T09:14:30Z</time></trkpt><trkpt lat="45.05535253118778" lon="9.635973301432651"><ele>57.0</ele><time>2026-04-24T09:14:32Z</time></trkpt><trkpt lat="45.05535571753016" lon="9.63585259711803"><ele>56.833333333333336</ele><time>2026-04-24T09:14:34Z</time></trkpt><trkpt lat="45.05535879484907" lon="9.635736022757094"><ele>56.66666666666667</ele><time>2026-04-24T09:14:36Z</time></trkpt><trkpt lat="45.05536145473873" lon="9.635635261204904"><ele>56.5</ele><time>2026-04-24T09:14:38Z</time></trkpt><trkpt lat="45.055364259627076" lon="9.635529007131918"><ele>56.333333333333336</ele><time>2026-04-24T09:14:40Z</time></trkpt><trkpt lat="45.0553678550499" lon="9.6353928059684"><ele>56.16666666666667</ele><time>2026-04-24T09:14:43Z</time></trkpt><trkpt lat="45.05537052595151" lon="9.635291627424214"><ele>56.0</ele><time>2026-04-24T09:14:45Z</time></trkpt><trkpt lat="45.05537357251979" lon="9.63517621805262"><ele>55.833333333333336</ele><time>2026-04-24T09:14:48Z</time></trkpt><trkpt lat="45.05537631198052" lon="9.635064605875312"><ele>55.66666666666667</ele><time>2026-04-24T09:14:51Z</time></trkpt><trkpt lat="45.05537868752805" lon="9.634963862137576"><ele>55.5</ele><time>2026-04-24T09:14:54Z</time></trkpt><trkpt lat="45.05538114310876" lon="9.634872084138893"><ele>55.33333333333333</ele><time>2026-04-24T09:14:57Z</time></trkpt><trkpt lat="45.055383637897314" lon="9.634778840677749"><ele>55.166666666666664</ele><time>2026-04-24T09:14:59Z</time></trkpt><trkpt lat="45.05538735528396" lon="9.63463990231378"><ele>55.0</ele><time>2026-04-24T09:15:02Z</time></trkpt><trkpt lat="45.055391503413176" lon="9.634484864792476"><ele>54.6</ele><time>2026-04-24T09:15:05Z</time></trkpt><trkpt lat="45.055395078874504" lon="9.634351230769253"><ele>54.2</ele><time>2026-04-24T09:15:07Z</time></trkpt><trkpt lat="45.05539944923409" lon="9.63418788743719"><ele>53.8</ele><time>2026-04-24T09:15:08.999Z</time></trkpt><trkpt lat="45.05540305757215" lon="9.634053024486864"><ele>53.4</ele><time>2026-04-24T09:15:10.999Z</time></trkpt><trkpt lat="45.055406850487834" lon="9.633911263380796"><ele>53.0</ele><time>2026-04-24T09:15:12.999Z</time></trkpt><trkpt lat="45.0554104820443" lon="9.633775533076394"><ele>53.0</ele><time>2026-04-24T09:15:14.999Z</time></trkpt><trkpt lat="45.05541428275086" lon="9.633633480630294"><ele>53.0</ele><time>2026-04-24T09:15:16.999Z</time></trkpt><trkpt lat="45.05541779734893" lon="9.633502121583007"><ele>53.0</ele><time>2026-04-24T09:15:18.999Z</time></trkpt><trkpt lat="45.05542107077514" lon="9.633379776314674"><ele>53.0</ele><time>2026-04-24T09:15:20.999Z</time></trkpt><trkpt lat="45.0554247791522" lon="9.633242594941798"><ele>53.0</ele><time>2026-04-24T09:15:22.999Z</time></trkpt><trkpt lat="45.05542884170954" lon="9.633092783584468"><ele>53.0</ele><time>2026-04-24T09:15:24.999Z</time></trkpt><trkpt lat="45.055433209240995" lon="9.632931726314608"><ele>53.0</ele><time>2026-04-24T09:15:26.999Z</time></trkpt><trkpt lat="45.05543766532715" lon="9.632767403372469"><ele>53.0</ele><time>2026-04-24T09:15:28.999Z</time></trkpt><trkpt lat="45.055442219017614" lon="9.63259948118104"><ele>53.0</ele><time>2026-04-24T09:15:30.999Z</time></trkpt><trkpt lat="45.055446594438706" lon="9.63243813288751"><ele>53.0</ele><time>2026-04-24T09:15:32.999Z</time></trkpt><trkpt lat="45.05545068005841" lon="9.632287471286343"><ele>53.0</ele><time>2026-04-24T09:15:34.999Z</time></trkpt><trkpt lat="45.055454805619" lon="9.63213533686176"><ele>53.0</ele><time>2026-04-24T09:15:36.999Z</time></trkpt><trkpt lat="45.055458714873154" lon="9.631991179037485"><ele>53.0</ele><time>2026-04-24T09:15:38.999Z</time></trkpt><trkpt lat="45.05546236996835" lon="9.631856393337243"><ele>53.0</ele><time>2026-04-24T09:15:40.999Z</time></trkpt><trkpt lat="45.05546574000596" lon="9.631732119741688"><ele>53.0</ele><time>2026-04-24T09:15:42.999Z</time></trkpt><trkpt lat="45.05547017018893" lon="9.631568752014063"><ele>53.0</ele><time>2026-04-24T09:15:44.999Z</time></trkpt><trkpt lat="45.05547469264982" lon="9.631401981060005"><ele>53.0</ele><time>2026-04-24T09:15:46.999Z</time></trkpt><trkpt lat="45.05547926870574" lon="9.631233234470425"><ele>53.0</ele><time>2026-04-24T09:15:48.999Z</time></trkpt><trkpt lat="45.05548373703944" lon="9.63106845997843"><ele>53.4</ele><time>2026-04-24T09:15:50.999Z</time></trkpt><trkpt lat="45.05548775062683" lon="9.630920454461547"><ele>53.8</ele><time>2026-04-24T09:15:52.999Z</time></trkpt><trkpt lat="45.055491555344354" lon="9.630780151499563"><ele>54.2</ele><time>2026-04-24T09:15:54.999Z</time></trkpt><trkpt lat="45.05549557090194" lon="9.630632077067864"><ele>54.6</ele><time>2026-04-24T09:15:56.999Z</time></trkpt><trkpt lat="45.05549948331135" lon="9.630492691831797"><ele>55.0</ele><time>2026-04-24T09:15:58.999Z</time></trkpt><trkpt lat="45.05550296880249" lon="9.630371219571858"><ele>55.33333333333333</ele><time>2026-04-24T09:16:00.999Z</time></trkpt><trkpt lat="45.055506200199524" lon="9.630241175316879"><ele>55.666666666666664</ele><time>2026-04-24T09:16:03Z</time></trkpt><trkpt lat="45.05550943521311" lon="9.630110985835852"><ele>56.0</ele><time>2026-04-24T09:16:05Z</time></trkpt><trkpt lat="45.05551252490825" lon="9.629986644529772"><ele>56.33333333333333</ele><time>2026-04-24T09:16:07Z</time></trkpt><trkpt lat="45.05551513917065" lon="9.629879982822242"><ele>56.666666666666664</ele><time>2026-04-24T09:16:09Z</time></trkpt><trkpt lat="45.055517406515136" lon="9.629777813126095"><ele>57.0</ele><time>2026-04-24T09:16:11Z</time></trkpt><trkpt lat="45.05551991376107" lon="9.629664832945155"><ele>57.0</ele><time>2026-04-24T09:16:13Z</time></trkpt><trkpt lat="45.05552295488453" lon="9.629527795910368"><ele>57.0</ele><time>2026-04-24T09:16:15Z</time></trkpt><trkpt lat="45.05552579298454" lon="9.62939990714961"><ele>57.0</ele><time>2026-04-24T09:16:17Z</time></trkpt><trkpt lat="45.05552854147101" lon="9.62929394010335"><ele>57.0</ele><time>2026-04-24T09:16:19Z</time></trkpt><trkpt lat="45.055531079314896" lon="9.62919927401145"><ele>57.0</ele><time>2026-04-24T09:16:21Z</time></trkpt><trkpt lat="45.05553478744541" lon="9.629060953594463"><ele>57.0</ele><time>2026-04-24T09:16:24Z</time></trkpt><trkpt lat="45.055537626349114" lon="9.628955057293643"><ele>56.8</ele><time>2026-04-24T09:16:26Z</time></trkpt><trkpt lat="45.05554120836348" lon="9.628821441054358"><ele>56.6</ele><time>2026-04-24T09:16:28Z</time></trkpt><trkpt lat="45.05554501900809" lon="9.628679296929544"><ele>56.39999999999999</ele><time>2026-04-24T09:16:30Z</time></trkpt><trkpt lat="45.05554914375108" lon="9.62852543646563"><ele>56.199999999999996</ele><time>2026-04-24T09:16:32Z</time></trkpt><trkpt lat="45.05555308025821" lon="9.628378597952024"><ele>56.0</ele><time>2026-04-24T09:16:34Z</time></trkpt><trkpt lat="45.055557040601705" lon="9.628235938858078"><ele>56.00000000000001</ele><time>2026-04-24T09:16:36Z</time></trkpt><trkpt lat="45.05556088173745" lon="9.628097179145024"><ele>56.0</ele><time>2026-04-24T09:16:38Z</time></trkpt><trkpt lat="45.05556444034429" lon="9.627968625998841"><ele>56.0</ele><time>2026-04-24T09:16:40Z</time></trkpt><trkpt lat="45.05556690623516" lon="9.627879546666732"><ele>56.0</ele><time>2026-04-24T09:16:42Z</time></trkpt><trkpt lat="45.05556979312838" lon="9.627775258842078"><ele>56.00000000000001</ele><time>2026-04-24T09:16:47Z</time></trkpt><trkpt lat="45.05557259413189" lon="9.627674073667375"><ele>56.0</ele><time>2026-04-24T09:16:49Z</time></trkpt><trkpt lat="45.055575955421375" lon="9.627552648517836"><ele>55.8</ele><time>2026-04-24T09:16:51Z</time></trkpt><trkpt lat="45.055579315899735" lon="9.627431252529172"><ele>55.599999999999994</ele><time>2026-04-24T09:16:53Z</time></trkpt><trkpt lat="45.055582833215766" lon="9.627304190996831"><ele>55.4</ele><time>2026-04-24T09:16:55Z</time></trkpt><trkpt lat="45.055586555878826" lon="9.627160422377788"><ele>55.2</ele><time>2026-04-24T09:16:57Z</time></trkpt><trkpt lat="45.055590136957434" lon="9.627017861237436"><ele>55.0</ele><time>2026-04-24T09:16:59Z</time></trkpt><trkpt lat="45.0555938321625" lon="9.626870756869408"><ele>55.4</ele><time>2026-04-24T09:17:00.999Z</time></trkpt><trkpt lat="45.05559763690943" lon="9.626719291695212"><ele>55.8</ele><time>2026-04-24T09:17:02.999Z</time></trkpt><trkpt lat="45.05560181096397" lon="9.626553124671016"><ele>56.2</ele><time>2026-04-24T09:17:04.999Z</time></trkpt><trkpt lat="45.05560577221926" lon="9.626394677156464"><ele>56.6</ele><time>2026-04-24T09:17:06.999Z</time></trkpt><trkpt lat="45.055608030585674" lon="9.626304174362334"><ele>57.0</ele><time>2026-04-24T09:17:07.999Z</time></trkpt><trkpt lat="45.05561171548525" lon="9.626156503798475"><ele>56.400000000000006</ele><time>2026-04-24T09:17:09.999Z</time></trkpt><trkpt lat="45.05561538558979" lon="9.626009425924426"><ele>55.800000000000004</ele><time>2026-04-24T09:17:11.999Z</time></trkpt><trkpt lat="45.055544002645156" lon="9.625862979196505"><ele>55.2</ele><time>2026-04-24T09:17:13.999Z</time></trkpt><trkpt lat="45.055549492650606" lon="9.625709545778033"><ele>54.6</ele><time>2026-04-24T09:17:15.999Z</time></trkpt><trkpt lat="45.055556885268196" lon="9.62555748734808"><ele>54.0</ele><time>2026-04-24T09:17:17.999Z</time></trkpt><trkpt lat="45.055628478644174" lon="9.625482306325612"><ele>54.5</ele><time>2026-04-24T09:17:18.999Z</time></trkpt><trkpt lat="45.055632710716615" lon="9.6253116227494"><ele>55.0</ele><time>2026-04-24T09:17:20.999Z</time></trkpt><trkpt lat="45.05563700169296" lon="9.625138571882436"><ele>55.5</ele><time>2026-04-24T09:17:22.999Z</time></trkpt><trkpt lat="45.05564165889922" lon="9.62497768013795"><ele>56.0</ele><time>2026-04-24T09:17:24.999Z</time></trkpt><trkpt lat="45.05564572271443" lon="9.62482678273427"><ele>56.0</ele><time>2026-04-24T09:17:26.999Z</time></trkpt><trkpt lat="45.05564955509593" lon="9.624684478840887"><ele>55.99999999999999</ele><time>2026-04-24T09:17:28.999Z</time></trkpt><trkpt lat="45.05565336042171" lon="9.62454317978889"><ele>55.99999999999999</ele><time>2026-04-24T09:17:30.999Z</time></trkpt><trkpt lat="45.0556567377631" lon="9.624417772449533"><ele>56.0</ele><time>2026-04-24T09:17:32.999Z</time></trkpt><trkpt lat="45.05565996348198" lon="9.62429799516151"><ele>56.0</ele><time>2026-04-24T09:17:34.999Z</time></trkpt><trkpt lat="45.055663785855614" lon="9.624156062970053"><ele>56.0</ele><time>2026-04-24T09:17:36.999Z</time></trkpt><trkpt lat="45.05566804441581" lon="9.62398976701576"><ele>56.0</ele><time>2026-04-24T09:17:38.999Z</time></trkpt><trkpt lat="45.055671510472706" lon="9.623821031939281"><ele>56.0</ele><time>2026-04-24T09:17:40.999Z</time></trkpt><trkpt lat="45.05567670730427" lon="9.623659021764178"><ele>56.0</ele><time>2026-04-24T09:17:42.999Z</time></trkpt><trkpt lat="45.05568144399831" lon="9.62348612252153"><ele>56.0</ele><time>2026-04-24T09:17:44.999Z</time></trkpt><trkpt lat="45.05568624560848" lon="9.62331085365613"><ele>56.0</ele><time>2026-04-24T09:17:46.999Z</time></trkpt><trkpt lat="45.05569093930511" lon="9.623139523858846"><ele>56.0</ele><time>2026-04-24T09:17:48.999Z</time></trkpt><trkpt lat="45.055695449818494" lon="9.622974880534283"><ele>56.0</ele><time>2026-04-24T09:17:50.999Z</time></trkpt><trkpt lat="45.05569964050714" lon="9.622821911527545"><ele>56.199999999999996</ele><time>2026-04-24T09:17:52.999Z</time></trkpt><trkpt lat="45.05570354319789" lon="9.622679455033717"><ele>56.39999999999999</ele><time>2026-04-24T09:17:54.999Z</time></trkpt><trkpt lat="45.05570741913661" lon="9.622537975197009"><ele>56.6</ele><time>2026-04-24T09:17:56.999Z</time></trkpt><trkpt lat="45.0557112831074" lon="9.622396932119878"><ele>56.8</ele><time>2026-04-24T09:17:58.999Z</time></trkpt><trkpt lat="45.05571548051294" lon="9.622243717901526"><ele>57.0</ele><time>2026-04-24T09:18:00.999Z</time></trkpt><trkpt lat="45.05571962957891" lon="9.622085770100187"><ele>57.2</ele><time>2026-04-24T09:18:02.999Z</time></trkpt><trkpt lat="45.05572344993528" lon="9.62193802913614"><ele>57.400000000000006</ele><time>2026-04-24T09:18:04.999Z</time></trkpt><trkpt lat="45.05572720068804" lon="9.621792980069634"><ele>57.599999999999994</ele><time>2026-04-24T09:18:06.999Z</time></trkpt><trkpt lat="45.05573097382056" lon="9.621647065604755"><ele>57.8</ele><time>2026-04-24T09:18:09Z</time></trkpt><trkpt lat="45.05573450210333" lon="9.621510619787793"><ele>58.0</ele><time>2026-04-24T09:18:11Z</time></trkpt><trkpt lat="45.05573765248319" lon="9.621388788206264"><ele>58.0</ele><time>2026-04-24T09:18:13Z</time></trkpt><trkpt lat="45.05574104554568" lon="9.621257571552372"><ele>58.0</ele><time>2026-04-24T09:18:15Z</time></trkpt><trkpt lat="45.05574482735551" lon="9.621111321528918"><ele>58.0</ele><time>2026-04-24T09:18:17Z</time></trkpt><trkpt lat="45.05574881639479" lon="9.620957057460751"><ele>58.0</ele><time>2026-04-24T09:18:19Z</time></trkpt><trkpt lat="45.055752791428574" lon="9.620803334930633"><ele>58.0</ele><time>2026-04-24T09:18:21Z</time></trkpt><trkpt lat="45.05575650899753" lon="9.620659569138082"><ele>57.99999999999999</ele><time>2026-04-24T09:18:23Z</time></trkpt><trkpt lat="45.05575993883768" lon="9.620526930292943"><ele>58.0</ele><time>2026-04-24T09:18:25Z</time></trkpt><trkpt lat="45.055763272061355" lon="9.620398027899663"><ele>58.0</ele><time>2026-04-24T09:18:27Z</time></trkpt><trkpt lat="45.05576622023416" lon="9.620284016192198"><ele>58.0</ele><time>2026-04-24T09:18:29Z</time></trkpt><trkpt lat="45.05576911040792" lon="9.620172247432153"><ele>57.99999999999999</ele><time>2026-04-24T09:18:31Z</time></trkpt><trkpt lat="45.0557717736166" lon="9.620069255806037"><ele>58.0</ele><time>2026-04-24T09:18:33Z</time></trkpt><trkpt lat="45.05577449466415" lon="9.619964027438353"><ele>57.99999999999999</ele><time>2026-04-24T09:18:35Z</time></trkpt><trkpt lat="45.055777480818286" lon="9.619848546877709"><ele>58.0</ele><time>2026-04-24T09:18:37Z</time></trkpt><trkpt lat="45.05578060724323" lon="9.619728165049603"><ele>58.0</ele><time>2026-04-24T09:18:39Z</time></trkpt><trkpt lat="45.05578350593351" lon="9.619617097545667"><ele>58.0</ele><time>2026-04-24T09:18:41Z</time></trkpt><trkpt lat="45.05578634390343" lon="9.619508356909597"><ele>57.99999999999999</ele><time>2026-04-24T09:18:43Z</time></trkpt><trkpt lat="45.055788926558456" lon="9.619409398532483"><ele>58.0</ele><time>2026-04-24T09:18:45Z</time></trkpt><trkpt lat="45.05579154807115" lon="9.619308951348373"><ele>58.0</ele><time>2026-04-24T09:18:47Z</time></trkpt><trkpt lat="45.055794065242765" lon="9.619212502253207"><ele>58.0</ele><time>2026-04-24T09:18:49Z</time></trkpt><trkpt lat="45.0557973807809" lon="9.619085462595855"><ele>58.0</ele><time>2026-04-24T09:18:52Z</time></trkpt><trkpt lat="45.055799873060366" lon="9.618989967235965"><ele>58.0</ele><time>2026-04-24T09:18:54Z</time></trkpt><trkpt lat="45.05548663151436" lon="9.618827501201809"><ele>57.99999999999999</ele><time>2026-04-24T09:19:06Z</time></trkpt><trkpt lat="45.05541703383567" lon="9.61884918800786"><ele>58.0</ele><time>2026-04-24T09:19:08Z</time></trkpt><trkpt lat="45.05533396092862" lon="9.618848137461967"><ele>58.0</ele><time>2026-04-24T09:19:10Z</time></trkpt><trkpt lat="45.05524162526845" lon="9.618853364147098"><ele>58.0</ele><time>2026-04-24T09:19:12Z</time></trkpt><trkpt lat="45.05513832252991" lon="9.61885837073274"><ele>57.99999999999999</ele><time>2026-04-24T09:19:14Z</time></trkpt><trkpt lat="45.05504796369659" lon="9.618866209918522"><ele>58.0</ele><time>2026-04-24T09:19:16Z</time></trkpt><trkpt lat="45.05495248211027" lon="9.618870659192"><ele>58.0</ele><time>2026-04-24T09:19:18Z</time></trkpt><trkpt lat="45.054860034729344" lon="9.618882574901088"><ele>58.0</ele><time>2026-04-24T09:19:20Z</time></trkpt><trkpt lat="45.05476528805563" lon="9.618884532060179"><ele>58.0</ele><time>2026-04-24T09:19:22Z</time></trkpt><trkpt lat="45.05467190990045" lon="9.618896587813468"><ele>58.0</ele><time>2026-04-24T09:19:24Z</time></trkpt><trkpt lat="45.054578268056574" lon="9.618899296724317"><ele>58.0</ele><time>2026-04-24T09:19:26Z</time></trkpt><trkpt lat="45.05448198553005" lon="9.618903679117025"><ele>58.0</ele><time>2026-04-24T09:19:28Z</time></trkpt><trkpt lat="45.0543934142395" lon="9.618906544671924"><ele>58.0</ele><time>2026-04-24T09:19:30Z</time></trkpt><trkpt lat="45.05429913149098" lon="9.618924412414465"><ele>58.0</ele><time>2026-04-24T09:19:32Z</time></trkpt><trkpt lat="45.054208954957986" lon="9.6189244659946"><ele>58.0</ele><time>2026-04-24T09:19:34Z</time></trkpt><trkpt lat="45.054123002793496" lon="9.618937047782875"><ele>58.0</ele><time>2026-04-24T09:19:35.999Z</time></trkpt><trkpt lat="45.05403056365059" lon="9.618947912316361"><ele>57.83333333333333</ele><time>2026-04-24T09:19:37.999Z</time></trkpt><trkpt lat="45.053944234776736" lon="9.61895218573601"><ele>57.666666666666664</ele><time>2026-04-24T09:19:39.999Z</time></trkpt><trkpt lat="45.05386025635497" lon="9.618956647818191"><ele>57.5</ele><time>2026-04-24T09:19:41.999Z</time></trkpt><trkpt lat="45.05377698288634" lon="9.61896205868961"><ele>57.33333333333333</ele><time>2026-04-24T09:19:43.999Z</time></trkpt><trkpt lat="45.05369234174818" lon="9.61896924000498"><ele>57.166666666666664</ele><time>2026-04-24T09:19:45.999Z</time></trkpt><trkpt lat="45.05360520315426" lon="9.618958647829754"><ele>57.0</ele><time>2026-04-24T09:19:47.999Z</time></trkpt><trkpt lat="45.05352493340696" lon="9.618980524276282"><ele>57.0</ele><time>2026-04-24T09:19:49.999Z</time></trkpt><trkpt lat="45.05342715502253" lon="9.618982321937322"><ele>57.0</ele><time>2026-04-24T09:19:51.999Z</time></trkpt><trkpt lat="45.05333499244159" lon="9.618933436221363"><ele>57.0</ele><time>2026-04-24T09:19:53.999Z</time></trkpt><trkpt lat="45.053246065476486" lon="9.61890833114136"><ele>57.0</ele><time>2026-04-24T09:19:55.999Z</time></trkpt><trkpt lat="45.05315453953863" lon="9.618922816398555"><ele>57.0</ele><time>2026-04-24T09:19:57.999Z</time></trkpt><trkpt lat="45.05307167075492" lon="9.618887315802034"><ele>57.333333333333336</ele><time>2026-04-24T09:19:59.999Z</time></trkpt><trkpt lat="45.05300851164992" lon="9.618858675106138"><ele>57.66666666666667</ele><time>2026-04-24T09:20:01.999Z</time></trkpt><trkpt lat="45.052938013236364" lon="9.61880576887218"><ele>58.0</ele><time>2026-04-24T09:20:03.999Z</time></trkpt><trkpt lat="45.05285522570783" lon="9.618739166740916"><ele>58.333333333333336</ele><time>2026-04-24T09:20:05.999Z</time></trkpt><trkpt lat="45.0527728951122" lon="9.618675024967587"><ele>58.66666666666667</ele><time>2026-04-24T09:20:07.999Z</time></trkpt><trkpt lat="45.05268603557551" lon="9.618608953454347"><ele>59.0</ele><time>2026-04-24T09:20:09.999Z</time></trkpt><trkpt lat="45.05260055355062" lon="9.618538858879027"><ele>59.00000000000001</ele><time>2026-04-24T09:20:11.999Z</time></trkpt><trkpt lat="45.05252008799473" lon="9.61848131659373"><ele>59.0</ele><time>2026-04-24T09:20:14Z</time></trkpt><trkpt lat="45.052447556911154" lon="9.618424960538661"><ele>59.0</ele><time>2026-04-24T09:20:16Z</time></trkpt><trkpt lat="45.05237641095612" lon="9.618369460294094"><ele>59.0</ele><time>2026-04-24T09:20:18Z</time></trkpt><trkpt lat="45.052310797602985" lon="9.618311520011853"><ele>59.00000000000001</ele><time>2026-04-24T09:20:20Z</time></trkpt><trkpt lat="45.05224483472152" lon="9.61826379292606"><ele>59.0</ele><time>2026-04-24T09:20:22Z</time></trkpt><trkpt lat="45.05218632095242" lon="9.618209108658712"><ele>59.0</ele><time>2026-04-24T09:20:24Z</time></trkpt><trkpt lat="45.05212569765353" lon="9.618148681035644"><ele>59.00000000000001</ele><time>2026-04-24T09:20:26Z</time></trkpt><trkpt lat="45.05207271829155" lon="9.617974957946494"><ele>59.00000000000001</ele><time>2026-04-24T09:20:29Z</time></trkpt><trkpt lat="45.0520940655987" lon="9.617854647639904"><ele>59.0</ele><time>2026-04-24T09:20:31Z</time></trkpt><trkpt lat="45.05211728059336" lon="9.61773008866781"><ele>59.0</ele><time>2026-04-24T09:20:33Z</time></trkpt><trkpt lat="45.052142260176566" lon="9.617594058877485"><ele>59.0</ele><time>2026-04-24T09:20:35Z</time></trkpt><trkpt lat="45.052165871783465" lon="9.617460890546997"><ele>59.00000000000001</ele><time>2026-04-24T09:20:37Z</time></trkpt><trkpt lat="45.0521922067452" lon="9.617312362748628"><ele>59.00000000000001</ele><time>2026-04-24T09:20:39Z</time></trkpt><trkpt lat="45.05223158023641" lon="9.617186981148333"><ele>59.0</ele><time>2026-04-24T09:20:41Z</time></trkpt><trkpt lat="45.05225344598619" lon="9.617050740249484"><ele>59.0</ele><time>2026-04-24T09:20:43Z</time></trkpt><trkpt lat="45.0522695123345" lon="9.616927850703595"><ele>59.00000000000001</ele><time>2026-04-24T09:20:45Z</time></trkpt><trkpt lat="45.0522803926239" lon="9.616788132809496"><ele>59.0</ele><time>2026-04-24T09:20:47Z</time></trkpt><trkpt lat="45.052263352644076" lon="9.616653718609598"><ele>59.0</ele><time>2026-04-24T09:20:49Z</time></trkpt><trkpt lat="45.052221354407564" lon="9.616547061492973"><ele>59.0</ele><time>2026-04-24T09:20:51Z</time></trkpt><trkpt lat="45.052159614717354" lon="9.616489694716012"><ele>59.00000000000001</ele><time>2026-04-24T09:20:53Z</time></trkpt><trkpt lat="45.05209202807655" lon="9.61644901823086"><ele>59.0</ele><time>2026-04-24T09:20:55Z</time></trkpt><trkpt lat="45.052024724093606" lon="9.61641931767323"><ele>59.0</ele><time>2026-04-24T09:20:57Z</time></trkpt><trkpt lat="45.0519501359282" lon="9.616386389289731"><ele>59.00000000000001</ele><time>2026-04-24T09:20:59Z</time></trkpt><trkpt lat="45.05197653632057" lon="9.61617083068506"><ele>59.00000000000001</ele><time>2026-04-24T09:21:02Z</time></trkpt><trkpt lat="45.05199686217968" lon="9.616048882428892"><ele>59.0</ele><time>2026-04-24T09:21:04Z</time></trkpt><trkpt lat="45.0520146504768" lon="9.615912849303824"><ele>59.0</ele><time>2026-04-24T09:21:06Z</time></trkpt><trkpt lat="45.05204092800551" lon="9.615770877086415"><ele>59.16666666666667</ele><time>2026-04-24T09:21:08Z</time></trkpt><trkpt lat="45.05205999162894" lon="9.615643632209729"><ele>59.333333333333336</ele><time>2026-04-24T09:21:10Z</time></trkpt><trkpt lat="45.05208329477249" lon="9.615517621597101"><ele>59.5</ele><time>2026-04-24T09:21:12Z</time></trkpt><trkpt lat="45.05210570357543" lon="9.61540338627218"><ele>59.66666666666667</ele><time>2026-04-24T09:21:14Z</time></trkpt><trkpt lat="45.05212452749987" lon="9.615284732512615"><ele>59.833333333333336</ele><time>2026-04-24T09:21:16Z</time></trkpt><trkpt lat="45.052149493339854" lon="9.61515775545057"><ele>60.0</ele><time>2026-04-24T09:21:18Z</time></trkpt><trkpt lat="45.05217720393199" lon="9.61502776655121"><ele>60.0</ele><time>2026-04-24T09:21:20Z</time></trkpt><trkpt lat="45.052202778506384" lon="9.614887734447192"><ele>60.0</ele><time>2026-04-24T09:21:22Z</time></trkpt><trkpt lat="45.05222927757855" lon="9.61474785084839"><ele>60.0</ele><time>2026-04-24T09:21:24Z</time></trkpt><trkpt lat="45.05225484445511" lon="9.614616927138606"><ele>60.0</ele><time>2026-04-24T09:21:26Z</time></trkpt><trkpt lat="45.05227405347025" lon="9.614494382059867"><ele>60.0</ele><time>2026-04-24T09:21:28Z</time></trkpt><trkpt lat="45.05229410598842" lon="9.614390204079099"><ele>60.0</ele><time>2026-04-24T09:21:30Z</time></trkpt><trkpt lat="45.05230640041261" lon="9.614265498882737"><ele>60.0</ele><time>2026-04-24T09:21:32Z</time></trkpt><trkpt lat="45.0523283275273" lon="9.614132283278574"><ele>60.0</ele><time>2026-04-24T09:21:34Z</time></trkpt><trkpt lat="45.052355073067325" lon="9.613984730763333"><ele>60.0</ele><time>2026-04-24T09:21:36Z</time></trkpt><trkpt lat="45.052387296717335" lon="9.613836697946445"><ele>60.0</ele><time>2026-04-24T09:21:38Z</time></trkpt><trkpt lat="45.05240196779063" lon="9.613701508520364"><ele>59.833333333333336</ele><time>2026-04-24T09:21:40Z</time></trkpt><trkpt lat="45.05242480346031" lon="9.61357691778825"><ele>59.66666666666667</ele><time>2026-04-24T09:21:42Z</time></trkpt><trkpt lat="45.05244629682578" lon="9.613445171769886"><ele>59.5</ele><time>2026-04-24T09:21:43.999Z</time></trkpt><trkpt lat="45.05246490505755" lon="9.613322503442738"><ele>59.333333333333336</ele><time>2026-04-24T09:21:45.999Z</time></trkpt><trkpt lat="45.05248774418401" lon="9.61321324047133"><ele>59.16666666666667</ele><time>2026-04-24T09:21:47.999Z</time></trkpt><trkpt lat="45.05250588158966" lon="9.613108922943416"><ele>59.0</ele><time>2026-04-24T09:21:49.999Z</time></trkpt><trkpt lat="45.052529617972766" lon="9.613007540448239"><ele>59.16666666666667</ele><time>2026-04-24T09:21:51.999Z</time></trkpt><trkpt lat="45.05254654036658" lon="9.612909852981442"><ele>59.333333333333336</ele><time>2026-04-24T09:21:53.999Z</time></trkpt><trkpt lat="45.052567149326165" lon="9.61281956650454"><ele>59.5</ele><time>2026-04-24T09:21:55.999Z</time></trkpt><trkpt lat="45.05258827204203" lon="9.612715871065758"><ele>59.66666666666667</ele><time>2026-04-24T09:22:00.999Z</time></trkpt><trkpt lat="45.05260254445206" lon="9.612622978462712"><ele>59.833333333333336</ele><time>2026-04-24T09:22:02.999Z</time></trkpt><trkpt lat="45.05262478759429" lon="9.612500064165765"><ele>60.0</ele><time>2026-04-24T09:22:05.999Z</time></trkpt><trkpt lat="45.05265627684908" lon="9.612380416291366"><ele>60.0</ele><time>2026-04-24T09:22:07.999Z</time></trkpt><trkpt lat="45.052676675716555" lon="9.612253903735645"><ele>60.0</ele><time>2026-04-24T09:22:09.999Z</time></trkpt><trkpt lat="45.05269707894735" lon="9.612102856685834"><ele>60.0</ele><time>2026-04-24T09:22:11.999Z</time></trkpt><trkpt lat="45.05271466171819" lon="9.611959837729952"><ele>60.0</ele><time>2026-04-24T09:22:13.999Z</time></trkpt><trkpt lat="45.052721357577454" lon="9.611827410179645"><ele>60.0</ele><time>2026-04-24T09:22:15.999Z</time></trkpt><trkpt lat="45.0527276684904" lon="9.611702522663288"><ele>60.0</ele><time>2026-04-24T09:22:17.999Z</time></trkpt><trkpt lat="45.05273191218502" lon="9.611590419363282"><ele>60.0</ele><time>2026-04-24T09:22:20Z</time></trkpt><trkpt lat="45.05274568651311" lon="9.611467503998862"><ele>60.0</ele><time>2026-04-24T09:22:22Z</time></trkpt><trkpt lat="45.05275011435009" lon="9.61134810427451"><ele>60.0</ele><time>2026-04-24T09:22:24Z</time></trkpt><trkpt lat="45.052756321774794" lon="9.611225666151554"><ele>60.0</ele><time>2026-04-24T09:22:26Z</time></trkpt><trkpt lat="45.05277814920132" lon="9.611123133525105"><ele>60.0</ele><time>2026-04-24T09:22:28Z</time></trkpt><trkpt lat="45.05277154100259" lon="9.610974799051386"><ele>60.0</ele><time>2026-04-24T09:22:31Z</time></trkpt><trkpt lat="45.05277795788451" lon="9.610848353271601"><ele>60.0</ele><time>2026-04-24T09:22:34Z</time></trkpt><trkpt lat="45.05277340242355" lon="9.610738456142121"><ele>60.0</ele><time>2026-04-24T09:22:36Z</time></trkpt><trkpt lat="45.05278482183061" lon="9.610595280743834"><ele>60.0</ele><time>2026-04-24T09:22:38Z</time></trkpt><trkpt lat="45.05278754803248" lon="9.61044274006048"><ele>60.0</ele><time>2026-04-24T09:22:40Z</time></trkpt><trkpt lat="45.05278966584439" lon="9.610281631233297"><ele>60.0</ele><time>2026-04-24T09:22:42Z</time></trkpt><trkpt lat="45.05278618650475" lon="9.61011396739344"><ele>60.0</ele><time>2026-04-24T09:22:44Z</time></trkpt><trkpt lat="45.05279166104537" lon="9.609948854765205"><ele>60.0</ele><time>2026-04-24T09:22:46Z</time></trkpt><trkpt lat="45.0527994704044" lon="9.609859445556909"><ele>60.0</ele><time>2026-04-24T09:22:47Z</time></trkpt><trkpt lat="45.052803206506425" lon="9.6097051048508"><ele>60.0</ele><time>2026-04-24T09:22:49Z</time></trkpt><trkpt lat="45.05279899950698" lon="9.609555531358703"><ele>60.0</ele><time>2026-04-24T09:22:51Z</time></trkpt><trkpt lat="45.052800210746405" lon="9.609403324525479"><ele>60.0</ele><time>2026-04-24T09:22:53Z</time></trkpt><trkpt lat="45.05281259133566" lon="9.609237528806448"><ele>60.0</ele><time>2026-04-24T09:22:55Z</time></trkpt><trkpt lat="45.05281959064606" lon="9.609072587234088"><ele>60.0</ele><time>2026-04-24T09:22:57Z</time></trkpt><trkpt lat="45.052823760475015" lon="9.608906754472622"><ele>60.0</ele><time>2026-04-24T09:22:59Z</time></trkpt><trkpt lat="45.05281543439249" lon="9.608754398393591"><ele>60.0</ele><time>2026-04-24T09:23:01Z</time></trkpt><trkpt lat="45.05282453947503" lon="9.60861267833044"><ele>60.0</ele><time>2026-04-24T09:23:03Z</time></trkpt><trkpt lat="45.052836772057574" lon="9.60847188104341"><ele>60.0</ele><time>2026-04-24T09:23:05Z</time></trkpt><trkpt lat="45.05283904886279" lon="9.608354671021631"><ele>60.0</ele><time>2026-04-24T09:23:07Z</time></trkpt><trkpt lat="45.05284184795768" lon="9.608236549510686"><ele>60.0</ele><time>2026-04-24T09:23:09Z</time></trkpt><trkpt lat="45.052847887315" lon="9.608122206950467"><ele>60.0</ele><time>2026-04-24T09:23:11Z</time></trkpt><trkpt lat="45.05285323701652" lon="9.608014542458932"><ele>60.0</ele><time>2026-04-24T09:23:13Z</time></trkpt><trkpt lat="45.05286133820475" lon="9.607909363165984"><ele>60.0</ele><time>2026-04-24T09:23:15Z</time></trkpt><trkpt lat="45.05286599093699" lon="9.607811192651589"><ele>60.0</ele><time>2026-04-24T09:23:18Z</time></trkpt><trkpt lat="45.052883932438675" lon="9.6076992911838"><ele>60.0</ele><time>2026-04-24T09:23:32Z</time></trkpt><trkpt lat="45.052890666704876" lon="9.607579332827898"><ele>60.0</ele><time>2026-04-24T09:23:35Z</time></trkpt><trkpt lat="45.05287151003275" lon="9.607473931947842"><ele>60.0</ele><time>2026-04-24T09:23:37Z</time></trkpt><trkpt lat="45.05289790083245" lon="9.607346187283374"><ele>60.0</ele><time>2026-04-24T09:23:39Z</time></trkpt><trkpt lat="45.05290437115138" lon="9.607207060166903"><ele>60.0</ele><time>2026-04-24T09:23:41Z</time></trkpt><trkpt lat="45.052884005153196" lon="9.607068949473476"><ele>60.0</ele><time>2026-04-24T09:23:43Z</time></trkpt><trkpt lat="45.05288877041631" lon="9.60692976664388"><ele>60.2</ele><time>2026-04-24T09:23:45Z</time></trkpt><trkpt lat="45.05289494155093" lon="9.606781766678838"><ele>60.4</ele><time>2026-04-24T09:23:46.999Z</time></trkpt><trkpt lat="45.05290178197502" lon="9.60663454938275"><ele>60.599999999999994</ele><time>2026-04-24T09:23:48.999Z</time></trkpt><trkpt lat="45.05290216695879" lon="9.606491222876933"><ele>60.8</ele><time>2026-04-24T09:23:50.999Z</time></trkpt><trkpt lat="45.05290842612628" lon="9.60633645339314"><ele>61.0</ele><time>2026-04-24T09:23:52.999Z</time></trkpt><trkpt lat="45.052914016850785" lon="9.60618778488585"><ele>61.199999999999996</ele><time>2026-04-24T09:23:54.999Z</time></trkpt><trkpt lat="45.052914801828244" lon="9.606051600074007"><ele>61.39999999999999</ele><time>2026-04-24T09:23:56.999Z</time></trkpt><trkpt lat="45.052922517150215" lon="9.605923167798872"><ele>61.6</ele><time>2026-04-24T09:23:58.999Z</time></trkpt><trkpt lat="45.052927116794" lon="9.605783819015361"><ele>61.8</ele><time>2026-04-24T09:24:00.999Z</time></trkpt><trkpt lat="45.05293165907138" lon="9.605638114895841"><ele>62.0</ele><time>2026-04-24T09:24:02.999Z</time></trkpt><trkpt lat="45.052936293148974" lon="9.605483779519867"><ele>61.8</ele><time>2026-04-24T09:24:04.999Z</time></trkpt><trkpt lat="45.052952763766385" lon="9.605312581851209"><ele>61.6</ele><time>2026-04-24T09:24:06.999Z</time></trkpt><trkpt lat="45.05295224453479" lon="9.605160565530241"><ele>61.39999999999999</ele><time>2026-04-24T09:24:08.999Z</time></trkpt><trkpt lat="45.05295949473916" lon="9.605028423871138"><ele>61.199999999999996</ele><time>2026-04-24T09:24:10.999Z</time></trkpt><trkpt lat="45.05296169855466" lon="9.604898293529859"><ele>61.0</ele><time>2026-04-24T09:24:12.999Z</time></trkpt><trkpt lat="45.052960538249025" lon="9.604772045051075"><ele>60.99999999999999</ele><time>2026-04-24T09:24:14.999Z</time></trkpt><trkpt lat="45.05296385278061" lon="9.604645300958834"><ele>61.0</ele><time>2026-04-24T09:24:16.999Z</time></trkpt><trkpt lat="45.0529655220564" lon="9.604530180934066"><ele>61.0</ele><time>2026-04-24T09:24:18.999Z</time></trkpt><trkpt lat="45.0529658261304" lon="9.604410561252248"><ele>61.0</ele><time>2026-04-24T09:24:20.999Z</time></trkpt><trkpt lat="45.05297303374826" lon="9.604306669835827"><ele>60.99999999999999</ele><time>2026-04-24T09:24:22.999Z</time></trkpt><trkpt lat="45.05297640419425" lon="9.6042006497889"><ele>61.0</ele><time>2026-04-24T09:24:24.999Z</time></trkpt><trkpt lat="45.05298546838492" lon="9.6040971897152"><ele>60.83333333333333</ele><time>2026-04-24T09:24:27Z</time></trkpt><trkpt lat="45.05300567323924" lon="9.603987967611866"><ele>60.666666666666664</ele><time>2026-04-24T09:24:29Z</time></trkpt><trkpt lat="45.05303957680749" lon="9.603873727129786"><ele>60.5</ele><time>2026-04-24T09:24:31Z</time></trkpt><trkpt lat="45.05308234903719" lon="9.603753159384635"><ele>60.33333333333333</ele><time>2026-04-24T09:24:33Z</time></trkpt><trkpt lat="45.053126093345455" lon="9.603642836887587"><ele>60.166666666666664</ele><time>2026-04-24T09:24:35Z</time></trkpt><trkpt lat="45.05317362611055" lon="9.603543969242217"><ele>60.0</ele><time>2026-04-24T09:24:37Z</time></trkpt><trkpt lat="45.053213749967775" lon="9.603440558611815"><ele>59.833333333333336</ele><time>2026-04-24T09:24:39Z</time></trkpt><trkpt lat="45.05327221945862" lon="9.603344955762514"><ele>59.66666666666667</ele><time>2026-04-24T09:24:41Z</time></trkpt><trkpt lat="45.05332817840857" lon="9.603293238109622"><ele>59.5</ele><time>2026-04-24T09:24:43Z</time></trkpt><trkpt lat="45.05338133780775" lon="9.603234262068545"><ele>59.333333333333336</ele><time>2026-04-24T09:24:45Z</time></trkpt><trkpt lat="45.05345077549526" lon="9.603170159186458"><ele>59.16666666666667</ele><time>2026-04-24T09:24:47Z</time></trkpt><trkpt lat="45.05352200349415" lon="9.60310819899286"><ele>59.0</ele><time>2026-04-24T09:24:49Z</time></trkpt><trkpt lat="45.05359401182239" lon="9.603045560884723"><ele>58.833333333333336</ele><time>2026-04-24T09:24:51Z</time></trkpt><trkpt lat="45.05365661170023" lon="9.603065317982097"><ele>58.66666666666667</ele><time>2026-04-24T09:24:52Z</time></trkpt><trkpt lat="45.05372970081199" lon="9.60302835154595"><ele>58.5</ele><time>2026-04-24T09:24:54Z</time></trkpt><trkpt lat="45.05380595386751" lon="9.602958839829745"><ele>58.33333333333333</ele><time>2026-04-24T09:24:57Z</time></trkpt><trkpt lat="45.053916654097584" lon="9.603038350171545"><ele>58.166666666666664</ele><time>2026-04-24T09:24:59Z</time></trkpt><trkpt lat="45.05398224124827" lon="9.603037956721252"><ele>58.0</ele><time>2026-04-24T09:25:01Z</time></trkpt><trkpt lat="45.054073042655325" lon="9.603025345432341"><ele>58.0</ele><time>2026-04-24T09:25:04Z</time></trkpt><trkpt lat="45.05402427136712" lon="9.602840266042795"><ele>58.0</ele><time>2026-04-24T09:25:11Z</time></trkpt><trkpt lat="45.053927010382125" lon="9.602854397063949"><ele>58.0</ele><time>2026-04-24T09:25:13Z</time></trkpt><trkpt lat="45.053840458412246" lon="9.602842266555605"><ele>58.0</ele><time>2026-04-24T09:25:15Z</time></trkpt><trkpt lat="45.05378595921675" lon="9.602905452716323"><ele>58.0</ele><time>2026-04-24T09:25:16Z</time></trkpt><trkpt lat="45.05369328825531" lon="9.602877553262157"><ele>57.99999999999999</ele><time>2026-04-24T09:25:18Z</time></trkpt><trkpt lat="45.0536061883772" lon="9.602848456000054"><ele>58.0</ele><time>2026-04-24T09:25:20Z</time></trkpt><trkpt lat="45.05352901879891" lon="9.602815545613637"><ele>58.0</ele><time>2026-04-24T09:25:22Z</time></trkpt><trkpt lat="45.05344588776469" lon="9.60279712930054"><ele>58.0</ele><time>2026-04-24T09:25:24Z</time></trkpt><trkpt lat="45.05337797309227" lon="9.602766568946521"><ele>57.99999999999999</ele><time>2026-04-24T09:25:26Z</time></trkpt><trkpt lat="45.05330949767669" lon="9.602735756620344"><ele>58.0</ele><time>2026-04-24T09:25:28Z</time></trkpt><trkpt lat="45.05323869323872" lon="9.602677401626165"><ele>58.166666666666664</ele><time>2026-04-24T09:25:30Z</time></trkpt><trkpt lat="45.05315200439586" lon="9.60265687023568"><ele>58.33333333333333</ele><time>2026-04-24T09:25:32Z</time></trkpt><trkpt lat="45.05310098568228" lon="9.602577434328339"><ele>58.5</ele><time>2026-04-24T09:25:33Z</time></trkpt><trkpt lat="45.053021517572425" lon="9.602510675788887"><ele>58.66666666666667</ele><time>2026-04-24T09:25:35Z</time></trkpt><trkpt lat="45.052950949010274" lon="9.602450596555009"><ele>58.833333333333336</ele><time>2026-04-24T09:25:37Z</time></trkpt><trkpt lat="45.05288765249847" lon="9.602396445632781"><ele>59.0</ele><time>2026-04-24T09:25:39Z</time></trkpt><trkpt lat="45.052826905750976" lon="9.602344476046694"><ele>59.0</ele><time>2026-04-24T09:25:41Z</time></trkpt><trkpt lat="45.05276786037861" lon="9.602293962079914"><ele>59.00000000000001</ele><time>2026-04-24T09:25:43Z</time></trkpt><trkpt lat="45.052701939005786" lon="9.602236818077813"><ele>59.00000000000001</ele><time>2026-04-24T09:25:44.999Z</time></trkpt><trkpt lat="45.05268681866973" lon="9.601998290757479"><ele>59.0</ele><time>2026-04-24T09:25:47.999Z</time></trkpt><trkpt lat="45.05269748456681" lon="9.601868156151125"><ele>59.0</ele><time>2026-04-24T09:25:49.999Z</time></trkpt><trkpt lat="45.05270595167327" lon="9.601753415544499"><ele>59.0</ele><time>2026-04-24T09:25:51.999Z</time></trkpt><trkpt lat="45.052713500458864" lon="9.601639390762651"><ele>59.00000000000001</ele><time>2026-04-24T09:25:53.999Z</time></trkpt><trkpt lat="45.05272409519587" lon="9.601516380699383"><ele>59.00000000000001</ele><time>2026-04-24T09:25:55.999Z</time></trkpt><trkpt lat="45.052738931105836" lon="9.601373581427586"><ele>59.0</ele><time>2026-04-24T09:25:57.999Z</time></trkpt><trkpt lat="45.05272664285294" lon="9.601234244093215"><ele>59.0</ele><time>2026-04-24T09:25:59.999Z</time></trkpt><trkpt lat="45.05272998704406" lon="9.60110486276044"><ele>59.16666666666667</ele><time>2026-04-24T09:26:01.999Z</time></trkpt><trkpt lat="45.05273310649452" lon="9.600984176102395"><ele>59.333333333333336</ele><time>2026-04-24T09:26:03.999Z</time></trkpt><trkpt lat="45.05273613950058" lon="9.600866833764655"><ele>59.5</ele><time>2026-04-24T09:26:05.999Z</time></trkpt><trkpt lat="45.05275317772806" lon="9.600755302325325"><ele>59.66666666666667</ele><time>2026-04-24T09:26:07.999Z</time></trkpt><trkpt lat="45.052741798089514" lon="9.600647911642735"><ele>59.833333333333336</ele><time>2026-04-24T09:26:09.999Z</time></trkpt><trkpt lat="45.052745384083984" lon="9.600509178732839"><ele>60.0</ele><time>2026-04-24T09:26:12.999Z</time></trkpt><trkpt lat="45.05275825258041" lon="9.600365155431328"><ele>60.5</ele><time>2026-04-24T09:26:15.999Z</time></trkpt><trkpt lat="45.05275151618788" lon="9.600236989699846"><ele>61.0</ele><time>2026-04-24T09:26:17.999Z</time></trkpt><trkpt lat="45.05275448053005" lon="9.600108750553904"><ele>61.5</ele><time>2026-04-24T09:26:19.999Z</time></trkpt><trkpt lat="45.05275716270877" lon="9.599992717993867"><ele>62.0</ele><time>2026-04-24T09:26:21.999Z</time></trkpt><trkpt lat="45.05277221973262" lon="9.5998756997613"><ele>62.5</ele><time>2026-04-24T09:26:23.999Z</time></trkpt><trkpt lat="45.05276065318915" lon="9.599778714051647"><ele>63.0</ele><time>2026-04-24T09:26:25.999Z</time></trkpt><trkpt lat="45.05276236053457" lon="9.599663020352072"><ele>63.0</ele><time>2026-04-24T09:26:28.999Z</time></trkpt><trkpt lat="45.0527683086236" lon="9.59952531372041"><ele>63.0</ele><time>2026-04-24T09:26:33Z</time></trkpt><trkpt lat="45.052754579241764" lon="9.599418095655782"><ele>63.0</ele><time>2026-04-24T09:26:35Z</time></trkpt><trkpt lat="45.052746218237665" lon="9.59932038006059"><ele>63.0</ele><time>2026-04-24T09:26:37Z</time></trkpt><trkpt lat="45.0527513949876" lon="9.599229157154774"><ele>63.0</ele><time>2026-04-24T09:26:39Z</time></trkpt><trkpt lat="45.05272433785751" lon="9.59913799508502"><ele>63.0</ele><time>2026-04-24T09:26:42Z</time></trkpt><trkpt lat="45.05270666552223" lon="9.599013216898427"><ele>63.2</ele><time>2026-04-24T09:26:45Z</time></trkpt><trkpt lat="45.05267784971072" lon="9.598882350045102"><ele>63.4</ele><time>2026-04-24T09:26:49Z</time></trkpt><trkpt lat="45.05264987759192" lon="9.598790086716281"><ele>63.60000000000001</ele><time>2026-04-24T09:26:51Z</time></trkpt><trkpt lat="45.052531031528446" lon="9.598736521071002"><ele>63.800000000000004</ele><time>2026-04-24T09:26:53Z</time></trkpt><trkpt lat="45.052451600326116" lon="9.598763891254046"><ele>64.0</ele><time>2026-04-24T09:26:55Z</time></trkpt><trkpt lat="45.05237544198968" lon="9.598748687041397"><ele>63.49999999999999</ele><time>2026-04-24T09:26:57Z</time></trkpt><trkpt lat="45.05230574442752" lon="9.598777134183976"><ele>63.0</ele><time>2026-04-24T09:26:59Z</time></trkpt><trkpt lat="45.052239556680476" lon="9.598759312292591"><ele>62.5</ele><time>2026-04-24T09:27:01Z</time></trkpt><trkpt lat="45.052177694716484" lon="9.598787114095499"><ele>62.0</ele><time>2026-04-24T09:27:03Z</time></trkpt><trkpt lat="45.052087472702325" lon="9.59875834312809"><ele>61.49999999999999</ele><time>2026-04-24T09:27:06Z</time></trkpt><trkpt lat="45.05203866850755" lon="9.598623289926113"><ele>61.0</ele><time>2026-04-24T09:27:10Z</time></trkpt><trkpt lat="45.052039543736484" lon="9.598532211328056"><ele>60.33333333333333</ele><time>2026-04-24T09:27:12Z</time></trkpt><trkpt lat="45.05202840414582" lon="9.598407864594183"><ele>59.66666666666667</ele><time>2026-04-24T09:27:15Z</time></trkpt><trkpt lat="45.0520245527152" lon="9.598316927119509"><ele>59.0</ele><time>2026-04-24T09:27:18Z</time></trkpt><trkpt lat="45.05181079946015" lon="9.59790573179976"><ele>59.0</ele><time>2026-04-24T09:27:22Z</time></trkpt><trkpt lat="45.05174394104849" lon="9.597961147778781"><ele>59.0</ele><time>2026-04-24T09:27:25Z</time></trkpt></trkseg></trk></gpx>